[[{"header":{"parameterUnit":"m.s-1","parameterCategory":1,"la1":31.0,"la2":29.5877,"lo1":-88.7671,"lo2":-86.6584,"dy":0.0162,"dx":0.0185,"nx":115,"ny":88,"refTime":"2023-10-08T06:00:00:Z","depth":0,"parameterNumber":2,"parameterNumberName":"U-component_of_WINDS"},"data":[0.0,0.0,0.0,0.0,0.0,0.0,0.0,0.0,0.0,0.0,0.0,0.0,0.0,0.0,0.0,0.0,0.0,0.0,0.0,0.0,0.0,0.0,0.0,0.0,0.0,0.0,0.0,0.0,0.0,0.0,0.0,0.0,0.0,0.0,0.0,0.0,0.0,0.0,0.0,0.0,0.0,0.0,0.0,0.0,0.0,0.0,0.0,0.0,0.0,0.0,0.0,0.0,0.0,0.0,0.0,0.0,0.0,0.0,0.0,0.0,0.0,0.0,0.0,0.0,0.0,0.0,0.0,0.0,0.0,0.0,0.0,0.0,0.0,0.0,0.0,0.0,0.0,0.0,0.0,0.0,0.0,0.0,0.0,0.0,0.0,0.0,0.0,0.0,0.0,0.0,0.0,0.0,0.0,0.0,0.0,0.0,0.0,0.0,0.0,0.0,0.0,0.0,0.0,0.0,0.0,0.0,0.0,0.0,0.0,0.0,0.0,0.0,0.0,0.0,0.0,0.0,0.0,0.0,0.0,0.0,0.0,0.0,0.0,0.0,0.0,0.0,0.0,0.0,0.0,0.0,0.0,0.0,0.0,0.0,0.0,0.0,0.0,0.0,0.0,0.0,0.0,0.0,0.0,0.0,0.0,0.0,0.0,0.0,0.0,0.0,0.0,0.0,0.0,0.0,0.0,0.0,0.0,0.0,0.0,0.0,0.0,0.0,0.0,0.0,0.0,0.0,0.0,0.0,0.0,0.0,0.0,0.0,0.0,0.0,0.0,0.0,0.0,0.0,0.0,0.0,0.0,0.0,0.0,0.0,0.0,0.0,0.0,0.0,0.0,0.0,0.0,0.0,0.0,0.0,0.0,0.0,0.0,0.0,0.0,0.0,0.0,0.0,0.0,0.0,0.0,0.0,0.0,0.0,0.0,0.0,0.0,0.0,0.0,0.0,0.0,0.0,0.0,0.0,0.0,0.0,0.0,0.0,0.0,0.0,0.0,0.0,0.0,0.0,0.0,0.0,0.0,0.0,0.0,0.0,0.0,0.0,0.0,0.0,0.0,0.0,0.0,0.0,0.0,0.0,0.0,0.0,0.0,0.0,0.0,0.0,0.0,0.0,0.0,0.0,0.0,0.0,0.0,0.0,0.0,0.0,0.0,0.0,0.0,0.0,0.0,0.0,0.0,0.0,0.0,0.0,0.0,0.0,0.0,0.0,0.0,0.0,0.0,0.0,0.0,0.0,0.0,0.0,0.0,0.0,0.0,0.0,0.0,0.0,0.0,0.0,0.0,0.0,0.0,0.0,0.0,0.0,0.0,0.0,0.0,0.0,0.0,0.0,0.0,0.0,0.0,0.0,0.0,0.0,0.0,0.0,0.0,0.0,0.0,0.0,0.0,0.0,0.0,0.0,0.0,0.0,0.0,0.0,0.0,0.0,0.0,0.0,0.0,0.0,0.0,0.0,0.0,0.0,0.0,0.0,0.0,0.0,0.0,0.0,0.0,0.0,0.0,0.0,0.0,0.0,0.0,0.0,0.0,0.0,0.0,0.0,0.0,0.0,0.0,0.0,0.0,0.0,0.0,0.0,0.0,0.0,0.0,0.0,0.0,0.0,0.0,0.0,0.0,0.0,0.0,0.0,0.0,0.0,0.0,0.0,0.0,0.0,0.0,0.0,0.0,0.0,0.0,0.0,0.0,0.0,0.0,0.0,0.0,0.0,0.0,0.0,0.0,0.0,0.0,0.0,0.0,0.0,0.0,0.0,0.0,0.0,0.0,0.0,0.0,0.0,0.0,0.0,0.0,0.0,0.0,0.0,0.0,0.0,0.0,0.0,0.0,0.0,0.0,0.0,0.0,0.0,0.0,0.0,0.0,0.0,0.0,0.0,0.0,0.0,0.0,0.0,0.0,0.0,0.0,0.0,0.0,0.0,0.0,0.0,0.0,0.0,0.0,0.0,0.0,0.0,0.0,0.0,0.0,0.0,0.0,0.0,0.0,0.0,0.0,0.0,0.0,0.0,0.0,0.0,0.0,0.0,0.0,0.0,0.0,0.0,0.0,0.0,0.0,0.0,0.0,0.0,0.0,0.0,0.0,0.0,0.0,0.0,0.0,0.0,0.0,0.0,0.0,0.0,0.0,0.0,0.0,0.0,0.0,0.0,0.0,0.0,0.0,0.0,0.0,0.0,0.0,0.0,0.0,0.0,0.0,0.0,0.0,0.0,0.0,0.0,0.0,0.0,0.0,0.0,0.0,0.0,0.0,0.0,0.0,0.0,0.0,0.0,0.0,0.0,0.0,0.0,0.0,0.0,0.0,0.0,0.0,0.0,0.0,0.0,0.0,0.0,0.0,0.0,0.0,0.0,0.0,0.0,0.0,0.0,0.0,0.0,0.0,0.0,0.0,0.0,0.0,0.0,0.0,0.0,0.0,0.0,0.0,0.0,0.0,0.0,0.0,0.0,0.0,0.0,0.0,0.0,0.0,0.0,0.0,0.0,0.0,0.0,0.0,0.0,0.0,0.0,0.0,0.0,0.0,0.0,0.0,0.0,0.0,0.0,0.0,0.0,0.0,0.0,0.0,0.0,0.0,0.0,0.0,0.0,0.0,0.0,0.0,0.0,0.0,0.0,0.0,0.0,0.0,0.0,0.0,0.0,0.0,0.0,0.0,0.0,0.0,0.0,0.0,0.0,0.0,0.0,0.0,0.0,0.0,0.0,0.0,0.0,0.0,0.0,0.0,0.0,0.0,0.0,0.0,0.0,0.0,0.0,0.0,0.0,0.0,0.0,0.0,0.0,0.0,0.0,0.0,0.0,0.0,0.0,0.0,0.0,0.0,0.0,0.0,0.0,0.0,0.0,0.0,0.0,0.0,0.0,0.0,0.0,0.0,0.0,0.0,0.0,0.0,0.0,0.0,0.0,0.0,0.0,0.0,0.0,0.0,0.0,0.0,0.0,0.0,0.0,0.0,0.0,0.0,0.0,0.0,0.0,0.0,0.0,0.0,0.0,0.0,0.0,0.0,0.0,0.0,0.0,0.0,0.0,0.0,0.0,0.0,0.0,0.0,0.0,0.0,0.0,0.0,0.0,0.0,0.0,0.0,0.0,0.0,0.0,0.0,0.0,0.0,0.0,0.0,0.0,0.0,0.0,0.0,0.0,0.0,0.0,0.0,0.0,0.0,0.0,0.0,0.0,0.0,0.0,0.0,0.0,0.0,0.0,0.0,0.0,0.0,0.0,0.0,0.0,0.0,0.0,0.0,0.0,0.0,0.0,0.0,0.0,0.0,0.0,0.0,0.0,0.0,0.0,0.0,0.0,0.0,0.0,0.0,0.0,0.0,0.0,0.0,0.0,0.0,0.0,0.0,0.0,0.0,0.0,0.0,0.0,0.0,0.0,0.0,0.0,0.0,0.0,0.0,0.0,0.0,0.0,0.0,0.0,0.0,0.0,0.0,0.0,0.0,0.0,0.0,0.0,0.0,0.0,0.0,0.0,0.0,0.0,0.0,0.0,0.0,0.0,0.0,0.0,0.0,0.0,0.0,0.0,0.0,0.0,0.0,0.0,0.0,0.0,0.0,0.0,0.0,0.0,0.0,0.0,0.0,0.0,0.0,0.0,0.0,0.0,0.0,0.0,0.0,0.0,0.0,0.0,0.0,0.0,0.0,0.0,0.0,0.0,0.0,0.0,0.0,0.0,0.0,0.0,0.0,0.0,0.0,0.0,0.0,0.0,0.0,0.0,0.0,0.0,0.0,0.0,0.0,0.0,0.0,0.0,0.0,0.0,0.0,0.0,0.0,0.0,0.0,0.0,0.0,0.0,0.0,0.0,0.0,0.0,0.0,0.0,0.0,0.0,0.0,0.0,0.0,0.0,0.0,0.0,0.0,0.0,0.0,0.0,0.0,0.0,0.0,0.0,0.0,0.0,0.0,0.0,0.0,0.0,0.0,0.0,0.0,0.0,0.0,0.0,0.0,0.0,0.0,0.0,0.0,0.0,0.0,0.0,0.0,0.0,0.0,0.0,0.0,0.0,0.0,0.0,0.0,0.0,0.0,0.0,0.0,0.0,0.0,0.0,0.0,0.0,0.0,0.0,0.0,0.0,0.0,0.0,0.0,0.0,0.0,0.0,0.0,0.0,0.0,0.0,0.0,0.0,0.0,0.0,0.0,0.0,0.0,0.0,0.0,0.0,0.0,0.0,0.0,0.0,0.0,0.0,0.0,0.0,0.0,0.0,0.0,0.0,0.0,0.0,0.0,0.0,0.0,0.0,-0.6563,0.0,0.0,0.0,0.0,0.0,0.0,0.0,0.0,0.0,0.0,0.0,0.0,0.0,0.0,0.0,0.0,0.0,0.0,0.0,0.0,0.0,0.0,0.0,0.0,0.0,0.0,0.0,0.0,0.0,0.0,0.0,0.0,0.0,0.0,0.0,0.0,0.0,0.0,0.0,0.0,0.0,0.0,0.0,0.0,0.0,0.0,0.0,0.0,0.0,0.0,0.0,0.0,0.0,0.0,0.0,0.0,0.0,0.0,0.0,0.0,0.0,0.0,0.0,0.0,0.0,0.0,0.0,0.0,0.0,0.0,0.0,0.0,0.0,0.0,0.0,0.0,0.0,0.0,0.0,0.0,0.0,0.0,0.0,0.0,0.0,0.0,0.0,0.0,0.0,0.0,0.0,0.0,0.0,0.0,0.0,0.0,0.0,0.0,0.0,0.0,0.0,0.0,0.0,0.0,0.0,0.0,0.0,0.0,0.0,0.0,-0.6057,-0.6176,-0.6206,-0.6291,-0.6405,0.0,0.0,0.0,0.0,0.0,0.0,0.0,0.0,0.0,0.0,0.0,0.0,0.0,0.0,0.0,0.0,0.0,0.0,0.0,0.0,0.0,0.0,0.0,0.0,0.0,0.0,0.0,0.0,0.0,0.0,0.0,0.0,0.0,0.0,0.0,0.0,0.0,0.0,0.0,0.0,0.0,0.0,0.0,0.0,0.0,0.0,0.0,0.0,0.0,0.0,0.0,0.0,0.0,0.0,0.0,0.0,0.0,0.0,0.0,0.0,0.0,0.0,0.0,0.0,0.0,0.0,0.0,0.0,0.0,0.0,0.0,0.0,0.0,0.0,0.0,0.0,0.0,0.0,0.0,0.0,0.0,0.0,0.0,0.0,0.0,0.0,0.0,0.0,0.0,0.0,0.0,0.0,0.0,0.0,0.0,0.0,0.0,0.0,0.0,0.0,0.0,0.0,0.0,0.0,0.0,0.0,0.0,0.0,0.0,0.0,0.0,0.0,-0.6006,-0.6082,-0.6008,0.0,0.0,0.0,0.0,0.0,0.0,0.0,0.0,0.0,0.0,0.0,0.0,0.0,0.0,0.0,0.0,0.0,0.0,0.0,0.0,0.0,0.0,0.0,0.0,0.0,0.0,0.0,0.0,0.0,0.0,0.0,0.0,0.0,0.0,0.0,0.0,0.0,0.0,0.0,0.0,0.0,0.0,0.0,0.0,0.0,0.0,0.0,0.0,0.0,0.0,0.0,0.0,0.0,0.0,0.0,0.0,0.0,0.0,0.0,0.0,0.0,0.0,0.0,0.0,0.0,0.0,0.0,0.0,0.0,0.0,0.0,0.0,0.0,0.0,0.0,0.0,0.0,0.0,0.0,0.0,0.0,0.0,0.0,0.0,0.0,0.0,0.0,0.0,0.0,0.0,0.0,0.0,0.0,0.0,0.0,0.0,0.0,0.0,0.0,0.0,0.0,0.0,0.0,0.0,0.0,0.0,0.0,0.0,0.0,0.0,-0.5881,-0.5967,-0.5889,0.0,-0.5164,0.0,0.0,0.0,0.0,0.0,0.0,0.0,0.0,0.0,0.0,0.0,0.0,0.0,0.0,0.0,0.0,0.0,0.0,0.0,0.0,0.0,0.0,0.0,0.0,0.0,0.0,0.0,0.0,0.0,0.0,0.0,0.0,0.0,0.0,0.0,0.0,0.0,0.0,0.0,0.0,0.0,0.0,0.0,0.0,0.0,0.0,0.0,0.0,0.0,0.0,0.0,0.0,0.0,0.0,0.0,0.0,0.0,0.0,0.0,0.0,0.0,0.0,0.0,0.0,0.0,0.0,0.0,0.0,0.0,0.0,0.0,0.0,0.0,0.0,0.0,0.0,0.0,0.0,0.0,0.0,0.0,0.0,0.0,0.0,0.0,0.0,0.0,0.0,0.0,0.0,0.0,0.0,0.0,0.0,0.0,0.0,0.0,0.0,0.0,0.0,0.0,0.0,0.0,0.0,0.0,0.0,0.0,0.0,0.0,0.0,-0.5827,-0.5874,-0.5827,-0.5613,0.0,0.0,0.0,0.0,0.0,0.0,0.0,0.0,0.0,0.0,0.0,0.0,0.0,0.0,0.0,0.0,0.0,0.0,0.0,0.0,0.0,0.0,0.0,0.0,0.0,0.0,0.0,0.0,0.0,0.0,0.0,0.0,0.0,0.0,0.0,0.0,0.0,0.0,0.0,0.0,0.0,0.0,0.0,0.0,0.0,0.0,0.0,0.0,0.0,0.0,0.0,0.0,0.0,0.0,0.0,0.0,0.0,0.0,0.0,0.0,0.0,0.0,0.0,0.0,0.0,0.0,0.0,0.0,0.0,0.0,0.0,0.0,0.0,0.0,0.0,0.0,0.0,0.0,0.0,0.0,0.0,0.0,0.0,0.0,0.0,0.0,0.0,0.0,0.0,0.0,0.0,0.0,0.0,0.0,0.0,0.0,0.0,0.0,0.0,0.0,0.0,0.0,0.0,0.0,0.0,0.0,0.0,0.0,0.0,0.0,-0.5609,-0.5702,-0.5703,-0.5661,-0.5516,-0.5283,0.0,0.0,0.0,0.0,0.0,0.0,0.0,0.0,0.0,0.0,0.0,0.0,0.0,0.0,0.0,0.0,0.0,0.0,0.0,0.0,0.0,0.0,0.0,0.0,0.0,0.0,0.0,0.0,0.0,0.0,0.0,0.0,0.0,0.0,0.0,0.0,0.0,0.0,0.0,0.0,0.0,0.0,0.0,0.0,0.0,0.0,0.0,0.0,0.0,0.0,0.0,0.0,0.0,0.0,0.0,0.0,0.0,0.0,0.0,0.0,0.0,0.0,0.0,0.0,0.0,0.0,0.0,0.0,0.0,0.0,0.0,0.0,0.0,0.0,0.0,0.0,0.0,0.0,0.0,0.0,0.0,0.0,0.0,0.0,0.0,0.0,0.0,0.0,0.0,0.0,0.0,0.0,0.0,0.0,0.0,0.0,0.0,0.0,0.0,0.0,0.0,0.0,0.0,0.0,0.0,0.0,0.0,0.0,-0.548,-0.5446,-0.5453,-0.5515,-0.5346,-0.5226,0.0,0.0,0.0,0.0,0.0,0.0,0.0,0.0,0.0,0.0,0.0,0.0,0.0,0.0,0.0,0.0,0.0,0.0,0.0,0.0,0.0,0.0,0.0,0.0,0.0,0.0,0.0,0.0,0.0,0.0,0.0,0.0,0.0,0.0,0.0,0.0,0.0,0.0,0.0,0.0,0.0,0.0,0.0,0.0,0.0,0.0,0.0,0.0,0.0,0.0,0.0,0.0,0.0,0.0,0.0,0.0,0.0,0.0,0.0,0.0,0.0,0.0,0.0,0.0,0.0,0.0,0.0,0.0,0.0,0.0,0.0,0.0,0.0,0.0,0.0,0.0,0.0,0.0,0.0,0.0,0.0,0.0,0.0,0.0,0.0,0.0,0.0,0.0,0.0,0.0,0.0,0.0,0.0,0.0,0.0,0.0,0.0,0.0,0.0,0.0,0.0,0.0,0.0,0.0,0.0,0.0,0.0,0.0,0.0,-0.5671,-0.5546,-0.5428,-0.5373,-0.534,-0.5308,0.0,0.0,0.0,0.0,0.0,0.0,0.0,0.0,0.0,0.0,0.0,0.0,0.0,0.0,0.0,0.0,0.0,0.0,0.0,0.0,0.0,0.0,0.0,0.0,0.0,0.0,0.0,0.0,0.0,0.0,0.0,0.0,0.0,0.0,0.0,0.0,0.0,0.0,0.0,0.0,0.0,0.0,0.0,0.0,0.0,0.0,0.0,0.0,0.0,0.0,0.0,0.0,0.0,0.0,0.0,0.0,0.0,0.0,0.0,0.0,0.0,0.0,0.0,0.0,0.0,0.0,0.0,0.0,0.0,0.0,0.0,0.0,0.0,0.0,0.0,0.0,0.0,0.0,0.0,0.0,0.0,0.0,0.0,0.0,0.0,0.0,0.0,0.0,0.0,0.0,0.0,0.0,0.0,0.0,0.0,0.0,0.0,0.0,0.0,0.0,0.0,0.0,0.0,0.0,0.0,0.0,0.0,0.0,0.0,-0.5507,0.0,-0.5231,-0.5081,-0.5209,-0.5256,0.0,0.0,0.0,0.0,0.0,0.0,0.0,0.0,0.0,0.0,0.0,0.0,0.0,0.0,0.0,0.0,0.0,0.0,0.0,0.0,0.0,0.0,0.0,0.0,0.0,0.0,0.0,0.0,0.0,0.0,0.0,0.0,0.0,0.0,0.0,0.0,0.0,0.0,0.0,0.0,0.0,0.0,0.0,0.0,0.0,0.0,0.0,0.0,0.0,0.0,0.0,0.0,0.0,0.0,0.0,0.0,0.0,0.0,0.0,0.0,0.0,0.0,0.0,0.0,0.0,0.0,0.0,0.0,0.0,0.0,0.0,0.0,0.0,0.0,0.0,0.0,0.0,0.0,0.0,0.0,0.0,0.0,0.0,0.0,0.0,0.0,0.0,0.0,0.0,0.0,0.0,0.0,0.0,0.0,0.0,0.0,0.0,0.0,0.0,0.0,0.0,0.0,0.0,0.0,0.0,0.0,0.0,0.0,-0.5269,-0.4936,-0.4936,-0.4832,-0.4618,-0.4938,-0.5027,0.0,0.0,0.0,0.0,0.0,0.0,0.0,0.0,0.0,0.0,0.0,0.0,0.0,0.0,0.0,0.0,0.0,0.0,0.0,0.0,0.0,0.0,0.0,0.0,0.0,0.0,0.0,0.0,0.0,0.0,0.0,0.0,0.0,0.0,0.0,0.0,0.0,0.0,0.0,0.0,0.0,0.0,0.0,0.0,0.0,0.0,0.0,0.0,0.0,0.0,0.0,0.0,0.0,0.0,0.0,0.0,0.0,0.0,0.0,0.0,0.0,0.0,0.0,0.0,0.0,0.0,0.0,0.0,0.0,0.0,0.0,0.0,0.0,0.0,0.0,0.0,0.0,0.0,0.0,0.0,0.0,0.0,0.0,0.0,0.0,0.0,0.0,0.0,0.0,0.0,0.0,0.0,0.0,0.0,0.0,0.0,0.0,0.0,0.0,0.0,0.0,0.0,0.0,0.0,0.0,0.0,0.0,0.0,0.0,-0.5251,-0.4964,-0.481,-0.4743,-0.4747,-0.4732,0.0,0.0,0.0,0.0,0.0,0.0,0.0,0.0,0.0,0.0,0.0,0.0,0.0,0.0,0.0,0.0,0.0,0.0,0.0,0.0,0.0,0.0,0.0,0.0,0.0,0.0,0.0,0.0,0.0,0.0,0.0,0.0,0.0,0.0,0.0,0.0,0.0,0.0,0.0,0.0,0.0,0.0,0.0,0.0,0.0,0.0,0.0,0.0,0.0,0.0,0.0,0.0,0.0,0.0,0.0,0.0,0.0,0.0,0.0,0.0,0.0,0.0,0.0,0.0,0.0,0.0,0.0,0.0,0.0,0.0,0.0,0.0,0.0,0.0,0.0,0.0,0.0,0.0,0.0,0.0,0.0,0.0,0.0,0.0,0.0,0.0,0.0,0.0,0.0,0.0,0.0,0.0,0.0,0.0,0.0,0.0,0.0,0.0,0.0,0.0,0.0,0.0,0.0,0.0,0.0,0.0,0.0,0.0,0.0,-0.5999,-0.5374,-0.4966,-0.4885,-0.4932,-0.4782,-0.4442,0.0,0.0,0.0,0.0,0.0,0.0,0.0,0.0,0.0,0.0,0.0,0.0,0.0,0.0,0.0,0.0,0.0,0.0,0.0,0.0,0.0,0.0,0.0,0.0,0.0,0.0,0.0,0.0,0.0,0.0,0.0,0.0,0.0,0.0,0.0,0.0,0.0,0.0,0.0,0.0,0.0,0.0,0.0,0.0,0.0,0.0,0.0,0.0,0.0,0.0,0.0,0.0,0.0,0.0,0.0,0.0,0.0,0.0,0.0,0.0,0.0,0.0,0.0,0.0,0.0,0.0,0.0,0.0,0.0,0.0,0.0,0.0,0.0,0.0,0.0,0.0,0.0,0.0,0.0,0.0,0.0,0.0,0.0,0.0,0.0,0.0,0.0,0.0,0.0,0.0,0.0,0.0,0.0,0.0,0.0,0.0,0.0,0.0,0.0,0.0,0.0,0.0,0.0,0.0,0.0,0.0,0.0,0.0,-0.7115,-0.608,-0.5404,-0.5086,-0.5415,-0.5143,0.0,0.0,0.0,0.0,0.0,0.0,0.0,0.0,0.0,0.0,0.0,0.0,0.0,0.0,0.0,0.0,0.0,0.0,0.0,0.0,0.0,0.0,0.0,0.0,0.0,0.0,0.0,0.0,0.0,0.0,0.0,0.0,0.0,0.0,0.0,0.0,0.0,0.0,0.0,0.0,0.0,0.0,0.0,0.0,0.0,0.0,0.0,0.0,0.0,0.0,0.0,0.0,0.0,0.0,0.0,0.0,0.0,0.0,0.0,0.0,0.0,0.0,0.0,0.0,0.0,0.0,0.0,0.0,0.0,0.0,0.0,0.0,0.0,0.0,0.0,0.0,0.0,0.0,0.0,0.0,0.0,0.0,0.0,0.0,0.0,0.0,0.0,0.0,0.0,0.0,0.0,0.0,0.0,0.0,0.0,0.0,0.0,0.0,0.0,0.0,0.0,0.0,0.0,0.0,0.0,0.0,0.0,0.0,0.0,-0.7302,-0.7229,-0.6765,-0.5919,-0.5847,-0.5437,0.0,0.0,0.0,0.0,0.0,0.0,0.0,0.0,0.0,0.0,0.0,0.0,0.0,0.0,0.0,0.0,0.0,0.0,0.0,0.0,0.0,0.0,0.0,0.0,0.0,0.0,0.0,0.0,0.0,0.0,0.0,0.0,0.0,0.0,0.0,0.0,0.0,0.0,0.0,0.0,0.0,0.0,0.0,0.0,0.0,0.0,0.0,0.0,0.0,0.0,0.0,0.0,0.0,0.0,0.0,0.0,0.0,0.0,0.0,0.0,0.0,0.0,0.0,0.0,0.0,0.0,0.0,0.0,0.0,0.0,0.0,0.0,0.0,0.0,0.0,0.0,0.0,0.0,0.0,0.0,0.0,0.0,0.0,0.0,0.0,0.0,0.0,0.0,0.0,0.0,0.0,0.0,0.0,0.0,0.0,0.0,0.0,0.0,0.0,0.0,0.0,0.0,0.0,0.0,0.0,0.0,0.0,0.0,-0.7609,-0.7948,-0.8298,-0.8015,-0.7107,-0.6643,-0.593,0.0,0.0,0.0,0.0,0.0,0.0,0.0,0.0,0.0,0.0,0.0,0.0,0.0,0.0,0.0,0.0,0.0,0.0,0.0,0.0,0.0,0.0,0.0,0.0,0.0,0.0,0.0,0.0,0.0,0.0,0.0,0.0,0.0,0.0,0.0,0.0,0.0,0.0,0.0,0.0,0.0,0.0,0.0,0.0,0.0,0.0,0.0,0.0,0.0,0.0,0.0,0.0,0.0,0.0,0.0,0.0,0.0,0.0,0.0,0.0,0.0,0.0,0.0,0.0,0.0,0.0,0.0,0.0,0.0,0.0,0.0,0.0,0.0,0.0,0.0,0.0,0.0,0.0,0.0,0.0,0.0,0.0,0.0,0.0,0.0,0.0,0.0,0.0,0.0,0.0,0.0,0.0,0.0,0.0,0.0,0.0,0.0,0.0,0.0,0.0,0.0,0.0,0.0,0.0,0.0,0.0,0.0,0.0,-0.8083,-0.8599,-0.9114,-0.9026,-0.8321,-0.7565,-0.6543,0.0,0.0,0.0,0.0,0.0,0.0,0.0,0.0,0.0,0.0,0.0,0.0,0.0,0.0,0.0,0.0,0.0,0.0,0.0,0.0,0.0,0.0,0.0,0.0,0.0,0.0,0.0,0.0,0.0,0.0,0.0,0.0,0.0,0.0,0.0,0.0,0.0,0.0,0.0,0.0,0.0,0.0,0.0,0.0,0.0,0.0,0.0,0.0,0.0,0.0,0.0,0.0,0.0,0.0,0.0,0.0,0.0,0.0,0.0,0.0,0.0,0.0,0.0,0.0,0.0,0.0,0.0,0.0,0.0,0.0,0.0,0.0,0.0,0.0,0.0,0.0,0.0,0.0,0.0,0.0,0.0,0.0,0.0,0.0,0.0,0.0,0.0,0.0,0.0,0.0,0.0,0.0,0.0,0.0,0.0,0.0,0.0,0.0,0.0,0.0,0.0,0.0,0.0,0.0,0.0,0.0,0.0,0.0,-0.7996,-0.8075,-0.8745,-0.8848,-0.8393,-0.7862,-0.7167,0.0,0.0,0.0,0.0,0.0,0.0,0.0,0.0,0.0,0.0,0.0,0.0,0.0,0.0,0.0,0.0,0.0,0.0,0.0,0.0,0.0,0.0,0.0,0.0,0.0,0.0,0.0,0.0,0.0,0.0,0.0,0.0,0.0,0.0,0.0,0.0,0.0,0.0,0.0,0.0,0.0,0.0,0.0,0.0,0.0,0.0,0.0,0.0,-0.5841,0.0,0.0,0.0,0.0,0.0,0.0,0.0,0.0,0.0,0.0,0.0,0.0,0.0,0.0,0.0,0.0,0.0,0.0,0.0,0.0,0.0,0.0,0.0,0.0,0.0,0.0,0.0,0.0,0.0,0.0,0.0,0.0,0.0,0.0,0.0,0.0,0.0,0.0,0.0,0.0,0.0,0.0,0.0,0.0,0.0,0.0,0.0,0.0,0.0,0.0,0.0,0.0,0.0,0.0,0.0,0.0,0.0,0.0,0.0,-0.8442,-0.846,-0.906,-0.9119,-0.8602,-0.8045,-0.7406,0.0,0.0,0.0,0.0,0.0,0.0,0.0,0.0,0.0,0.0,0.0,0.0,0.0,0.0,0.0,0.0,0.0,0.0,0.0,0.0,0.0,0.0,0.0,0.0,0.0,0.0,0.0,0.0,0.0,0.0,0.0,0.0,0.0,0.0,0.0,0.0,0.0,0.0,0.0,0.0,0.0,0.0,0.0,0.0,0.0,0.0,0.0,0.0,0.0,0.0,0.0,0.0,0.0,0.0,0.0,0.0,0.0,0.0,0.0,0.0,0.0,0.0,0.0,0.0,0.0,0.0,0.0,0.0,0.0,0.0,0.0,0.0,0.0,0.0,0.0,0.0,0.0,0.0,0.0,0.0,0.0,0.0,0.0,0.0,0.0,0.0,0.0,0.0,0.0,0.0,0.0,0.0,0.0,0.0,0.0,0.0,0.0,0.0,0.0,0.0,0.0,0.0,0.0,0.0,0.0,0.0,0.0,-0.8783,-0.8961,-0.923,-0.9523,-0.9398,-0.8807,-0.8186,-0.7506,-0.6838,0.0,0.0,0.0,0.0,0.0,0.0,0.0,0.0,0.0,0.0,0.0,0.0,0.0,0.0,0.0,0.0,0.0,0.0,0.0,0.0,0.0,0.0,0.0,0.0,0.0,0.0,0.0,0.0,0.0,0.0,0.0,0.0,0.0,0.0,0.0,0.0,0.0,0.0,-0.6719,-0.6496,0.0,0.0,0.0,0.0,0.0,0.0,0.0,0.0,-0.6015,0.0,0.0,0.0,0.0,0.0,0.0,0.0,0.0,0.0,0.0,0.0,0.0,0.0,0.0,0.0,0.0,0.0,0.0,0.0,0.0,0.0,0.0,0.0,0.0,0.0,0.0,0.0,0.0,0.0,0.0,0.0,0.0,0.0,0.0,0.0,0.0,0.0,0.0,0.0,0.0,0.0,0.0,0.0,0.0,0.0,0.0,0.0,0.0,0.0,0.0,0.0,0.0,0.0,0.0,0.0,0.0,-0.9548,-0.886,-0.8913,-0.9732,-0.936,-0.9022,-0.8791,-0.8324,-0.7802,-0.7296,0.0,0.0,0.0,0.0,0.0,0.0,0.0,0.0,0.0,0.0,0.0,0.0,0.0,0.0,0.0,0.0,0.0,0.0,0.0,0.0,0.0,0.0,0.0,0.0,0.0,0.0,0.0,0.0,0.0,0.0,0.0,0.0,0.0,0.0,0.0,0.0,0.0,0.0,0.0,-0.6435,-0.6259,0.0,0.0,0.0,0.0,0.0,0.0,0.0,0.0,-0.5962,0.0,0.0,0.0,0.0,0.0,0.0,0.0,0.0,0.0,0.0,0.0,0.0,0.0,0.0,0.0,0.0,0.0,0.0,0.0,0.0,0.0,0.0,0.0,0.0,0.0,0.0,0.0,0.0,0.0,0.0,0.0,0.0,0.0,0.0,0.0,0.0,0.0,0.0,0.0,0.0,0.0,0.0,0.0,0.0,0.0,0.0,0.0,0.0,0.0,0.0,0.0,0.0,0.0,0.0,0.0,-0.9461,-0.9303,-0.9394,-0.9831,-0.9473,-0.9145,-0.8898,-0.8385,-0.7988,0.0,0.0,0.0,0.0,0.0,0.0,0.0,0.0,0.0,0.0,0.0,0.0,0.0,0.0,0.0,0.0,0.0,0.0,0.0,0.0,0.0,0.0,0.0,0.0,0.0,0.0,0.0,0.0,0.0,0.0,0.0,0.0,0.0,0.0,0.0,0.0,0.0,0.0,0.0,0.0,-0.6546,-0.6439,-0.6412,0.0,0.0,0.0,0.0,0.0,0.0,-0.6069,-0.6091,0.0,0.0,0.0,0.0,0.0,0.0,0.0,0.0,0.0,0.0,0.0,0.0,0.0,0.0,0.0,0.0,0.0,0.0,0.0,0.0,0.0,0.0,0.0,0.0,0.0,0.0,0.0,0.0,0.0,0.0,0.0,0.0,0.0,0.0,0.0,0.0,0.0,0.0,0.0,0.0,0.0,0.0,0.0,0.0,0.0,0.0,0.0,0.0,0.0,0.0,0.0,0.0,0.0,0.0,0.0,-0.9421,-0.9712,-0.986,-0.9929,-0.9626,-0.9316,-0.8995,-0.8409,-0.8047,0.0,0.0,0.0,0.0,0.0,0.0,0.0,0.0,0.0,0.0,0.0,0.0,0.0,0.0,0.0,0.0,0.0,0.0,0.0,0.0,0.0,0.0,0.0,0.0,0.0,0.0,0.0,0.0,0.0,0.0,0.0,0.0,0.0,0.0,0.0,0.0,0.0,0.0,0.0,0.0,0.0,-0.6731,-0.6561,-0.635,0.0,0.0,0.0,0.0,-0.5989,-0.6285,0.0,0.0,0.0,0.0,0.0,0.0,0.0,0.0,0.0,0.0,0.0,0.0,0.0,0.0,0.0,0.0,0.0,0.0,0.0,0.0,0.0,0.0,0.0,0.0,0.0,0.0,0.0,0.0,0.0,0.0,0.0,0.0,0.0,0.0,0.0,0.0,0.0,0.0,0.0,0.0,0.0,0.0,0.0,0.0,0.0,0.0,0.0,0.0,0.0,0.0,0.0,0.0,0.0,0.0,0.0,0.0,-0.9869,-0.9738,-0.9878,-1.0361,-0.9706,-0.9226,-0.8995,-0.8415,-0.7914,0.0,0.0,0.0,0.0,0.0,0.0,0.0,0.0,0.0,0.0,0.0,0.0,0.0,0.0,0.0,0.0,0.0,0.0,0.0,0.0,0.0,0.0,0.0,0.0,0.0,0.0,0.0,0.0,0.0,0.0,0.0,0.0,0.0,0.0,0.0,0.0,0.0,0.0,0.0,0.0,0.0,-0.7109,-0.7031,-0.6935,-0.6973,0.0,0.0,-0.6687,-0.6817,-0.6953,0.0,0.0,0.0,0.0,0.0,0.0,0.0,0.0,0.0,0.0,0.0,0.0,0.0,0.0,0.0,0.0,0.0,0.0,0.0,0.0,0.0,0.0,0.0,0.0,0.0,0.0,0.0,0.0,0.0,0.0,0.0,0.0,0.0,0.0,0.0,0.0,0.0,0.0,0.0,0.0,0.0,0.0,0.0,0.0,0.0,0.0,0.0,0.0,0.0,0.0,0.0,0.0,0.0,0.0,0.0,-0.9808,-0.9675,-0.9879,-0.9945,-0.9811,-0.937,-0.9081,-0.9006,-0.8637,-0.8242,0.0,0.0,0.0,0.0,0.0,0.0,0.0,0.0,0.0,0.0,0.0,0.0,0.0,0.0,0.0,0.0,0.0,0.0,0.0,0.0,0.0,0.0,0.0,0.0,0.0,0.0,0.0,0.0,0.0,0.0,0.0,0.0,0.0,0.0,0.0,0.0,0.0,0.0,0.0,0.0,0.0,0.0,-0.7652,-0.7623,0.0,0.0,0.0,-0.7257,-0.7134,0.0,0.0,0.0,0.0,0.0,0.0,0.0,0.0,0.0,0.0,0.0,0.0,0.0,0.0,0.0,0.0,0.0,0.0,0.0,0.0,0.0,0.0,0.0,0.0,0.0,0.0,0.0,0.0,0.0,0.0,0.0,0.0,0.0,0.0,0.0,0.0,0.0,0.0,0.0,0.0,0.0,0.0,0.0,0.0,0.0,0.0,0.0,0.0,0.0,0.0,0.0,0.0,0.0,0.0,0.0,0.0,0.0,-0.9361,-0.9963,-0.9945,-0.9258,-0.9049,-0.8936,-0.8952,-0.8704,0.0,0.0,0.0,0.0,0.0,0.0,0.0,0.0,0.0,0.0,0.0,0.0,0.0,0.0,0.0,0.0,0.0,0.0,0.0,0.0,0.0,0.0,0.0,0.0,0.0,0.0,0.0,-0.6873,0.0,0.0,0.0,0.0,0.0,0.0,0.0,0.0,0.0,0.0,0.0,0.0,0.0,0.0,-0.8748,-0.8318,-0.8383,-0.8425,0.0,0.0,-0.8075,-0.7803,-0.8007,-0.8043,0.0,0.0,0.0,0.0,0.0,0.0,0.0,0.0,0.0,0.0,0.0,0.0,0.0,0.0,0.0,0.0,0.0,0.0,0.0,0.0,0.0,0.0,0.0,0.0,0.0,0.0,0.0,0.0,0.0,0.0,0.0,0.0,0.0,0.0,0.0,0.0,0.0,0.0,0.0,0.0,0.0,0.0,0.0,0.0,0.0,0.0,0.0,0.0,0.0,0.0,0.0,0.0,0.0,0.0,0.0,-0.9184,-0.9885,-0.9894,-0.9065,-0.8877,-0.8818,-0.8797,-0.8432,-0.8238,0.0,0.0,0.0,0.0,0.0,0.0,0.0,0.0,0.0,0.0,0.0,0.0,0.0,0.0,0.0,0.0,0.0,0.0,0.0,0.0,0.0,0.0,0.0,0.0,0.0,0.0,0.0,0.0,0.0,0.0,0.0,0.0,0.0,0.0,0.0,0.0,0.0,0.0,0.0,0.0,0.0,-0.9347,-0.9053,-0.9248,-0.9514,0.0,0.0,-0.9166,-0.9328,-0.9626,-0.964,-0.904,0.0,0.0,0.0,0.0,0.0,0.0,0.0,0.0,0.0,0.0,0.0,0.0,0.0,0.0,0.0,0.0,0.0,0.0,0.0,0.0,0.0,0.0,0.0,0.0,0.0,0.0,0.0,0.0,0.0,0.0,0.0,0.0,0.0,0.0,0.0,0.0,0.0,0.0,0.0,0.0,0.0,0.0,0.0,0.0,0.0,0.0,0.0,0.0,0.0,0.0,0.0,0.0,0.0,-1.0638,-0.985,-1.0177,-1.0033,-0.9393,-0.9164,-0.9044,-0.9039,-0.8876,-0.8695,0.0,0.0,0.0,0.0,0.0,0.0,0.0,0.0,0.0,0.0,0.0,0.0,0.0,0.0,0.0,0.0,0.0,0.0,0.0,0.0,0.0,0.0,0.0,0.0,0.0,0.0,0.0,0.0,-0.7809,-0.804,-0.8492,0.0,0.0,0.0,0.0,0.0,0.0,0.0,0.0,0.0,0.0,-1.0056,-0.9909,-1.0101,0.0,0.0,-1.0055,-0.9925,-0.988,-0.9899,-0.9812,-0.9452,-0.9109,0.0,0.0,0.0,0.0,0.0,0.0,0.0,0.0,0.0,0.0,0.0,0.0,0.0,0.0,0.0,0.0,0.0,0.0,0.0,0.0,0.0,0.0,0.0,0.0,0.0,0.0,0.0,0.0,0.0,0.0,0.0,0.0,0.0,0.0,0.0,0.0,0.0,0.0,0.0,0.0,0.0,0.0,0.0,0.0,0.0,0.0,0.0,0.0,0.0,0.0,0.0,0.0,-1.1316,-1.0578,-1.0558,-1.0273,-0.9761,-0.9391,-0.9188,-0.9183,-0.9099,-0.8997,0.0,0.0,0.0,0.0,0.0,0.0,0.0,0.0,0.0,0.0,0.0,0.0,0.0,0.0,0.0,0.0,0.0,0.0,0.0,0.0,0.0,0.0,0.0,0.0,0.0,0.0,0.0,0.0,-0.8419,-0.8736,-0.9271,0.0,0.0,0.0,0.0,0.0,0.0,0.0,0.0,0.0,0.0,-1.0631,-1.0544,-1.0725,-1.084,-1.0755,-1.0594,-1.0507,-1.0463,-1.0243,-1.0049,-0.9861,0.0,0.0,0.0,0.0,0.0,0.0,0.0,0.0,0.0,0.0,0.0,0.0,0.0,0.0,0.0,0.0,0.0,0.0,0.0,0.0,0.0,0.0,0.0,0.0,0.0,0.0,0.0,0.0,0.0,0.0,-0.9398,0.0,0.0,0.0,0.0,0.0,0.0,0.0,0.0,0.0,0.0,0.0,0.0,0.0,0.0,0.0,0.0,0.0,0.0,0.0,0.0,0.0,0.0,-1.2108,-1.1204,-1.1005,-1.0643,-1.0135,-0.9515,-0.9257,-0.9246,-0.9042,-0.8979,-0.9103,0.0,0.0,0.0,0.0,0.0,0.0,0.0,0.0,0.0,0.0,0.0,0.0,0.0,0.0,0.0,0.0,0.0,0.0,0.0,0.0,0.0,0.0,0.0,0.0,0.0,0.0,-0.8386,-0.8725,-0.9146,0.0,0.0,0.0,0.0,0.0,0.0,0.0,0.0,0.0,0.0,-1.0761,-1.1019,-1.0839,-1.1085,-1.1331,-1.1442,-1.1076,-1.0899,-1.1197,-1.0879,-1.053,0.0,0.0,0.0,0.0,0.0,0.0,0.0,0.0,0.0,0.0,0.0,0.0,0.0,0.0,0.0,0.0,0.0,0.0,0.0,0.0,0.0,0.0,0.0,0.0,0.0,0.0,0.0,-1.0771,-1.079,0.0,0.0,0.0,0.0,0.0,0.0,0.0,0.0,0.0,0.0,0.0,-1.1772,-1.1774,0.0,0.0,0.0,0.0,0.0,0.0,0.0,0.0,0.0,0.0,0.0,0.0,-1.2449,-1.2133,-1.1832,-1.1611,-1.1429,-1.1062,-1.0864,-1.0858,-1.0527,-1.0193,-0.984,0.0,0.0,0.0,0.0,0.0,0.0,0.0,0.0,0.0,0.0,0.0,0.0,0.0,0.0,0.0,0.0,0.0,0.0,0.0,0.0,0.0,0.0,0.0,0.0,0.0,-0.9431,0.0,0.0,0.0,0.0,0.0,0.0,0.0,0.0,0.0,0.0,0.0,-1.0734,-1.0656,-1.0974,-1.1235,-1.1268,-1.1586,-1.1798,0.0,0.0,0.0,0.0,0.0,0.0,0.0,0.0,0.0,0.0,0.0,0.0,0.0,0.0,-0.9601,-0.9522,-0.945,-0.9539,-0.9863,0.0,0.0,0.0,0.0,0.0,0.0,0.0,0.0,0.0,0.0,0.0,0.0,0.0,0.0,-1.1114,0.0,-1.1366,0.0,0.0,0.0,0.0,0.0,0.0,0.0,0.0,-1.1779,-1.1884,-1.2053,-1.2158,-1.2152,0.0,-1.253,-1.2596,0.0,0.0,0.0,0.0,0.0,0.0,0.0,0.0,-1.2904,-1.2696,-1.2345,-1.2179,-1.2168,-1.1868,-1.1669,-1.1589,-1.121,-1.0688,-1.0053,-1.0066,-0.9964,0.0,0.0,0.0,0.0,0.0,0.0,0.0,0.0,0.0,0.0,0.0,0.0,0.0,0.0,0.0,0.0,0.0,0.0,0.0,0.0,0.0,0.0,0.0,-1.0055,0.0,0.0,0.0,0.0,0.0,0.0,0.0,0.0,0.0,-1.0902,-1.1042,-1.1157,-1.1051,-1.1281,-1.1506,-1.159,0.0,0.0,0.0,0.0,0.0,0.0,0.0,-1.0558,-1.0848,-1.0673,-1.0507,-1.0646,-1.0437,-1.025,-1.0221,0.0,0.0,-0.9991,-0.9972,-1.0085,-1.0458,-1.0702,-1.0929,-1.1252,-1.163,-1.196,0.0,0.0,0.0,0.0,0.0,0.0,0.0,0.0,-1.0899,-1.1062,0.0,-1.104,0.0,0.0,0.0,0.0,0.0,-1.2017,0.0,0.0,-1.2192,-1.2423,-1.2348,-1.2913,-1.2887,-1.2385,-1.3092,-1.3132,-1.254,-1.2458,0.0,0.0,0.0,0.0,0.0,0.0,-1.3517,-1.2936,-1.2539,-1.233,-1.233,-1.1967,-1.1663,-1.1459,-1.1064,-1.0536,-0.9849,-1.009,-1.011,-0.9874,-0.9898,0.0,0.0,0.0,0.0,0.0,0.0,0.0,0.0,0.0,0.0,0.0,0.0,0.0,0.0,0.0,0.0,0.0,0.0,0.0,0.0,-1.0137,0.0,0.0,0.0,0.0,0.0,0.0,0.0,0.0,0.0,0.0,-1.1214,-1.147,-1.1657,-1.1531,0.0,0.0,0.0,0.0,-1.2081,-1.2002,-1.188,-1.1769,-1.1754,-1.1213,-1.0862,-1.1056,0.0,0.0,-1.0815,-1.066,-1.0538,-1.0545,-1.0466,-1.0351,-1.0387,-1.0351,-1.0472,-1.0917,-1.1087,-1.1222,-1.1484,-1.1882,-1.2198,-1.3633,0.0,0.0,0.0,0.0,-1.2315,-1.2344,-1.2567,-1.2424,-1.235,-1.2331,-1.2361,0.0,0.0,0.0,0.0,0.0,0.0,-1.2471,-1.2407,-1.2672,-1.2657,-1.2453,-1.3013,-1.308,-1.2752,-1.3107,-1.319,-1.2986,-1.296,-1.3177,-1.3573,0.0,0.0,0.0,0.0,-1.3535,-1.3395,-1.3128,-1.3008,-1.3015,-1.2902,-1.2643,-1.2249,-1.1945,-1.1649,-1.1285,-1.0946,-1.0883,-1.1139,-1.0412,0.0,0.0,0.0,0.0,0.0,0.0,0.0,0.0,0.0,0.0,0.0,0.0,0.0,0.0,0.0,0.0,0.0,0.0,0.0,-1.1265,-1.1225,-1.133,0.0,0.0,0.0,0.0,0.0,0.0,0.0,0.0,0.0,-1.1882,-1.191,-1.1864,0.0,0.0,-1.2094,-1.1968,-1.211,-1.2189,-1.2081,-1.1722,0.0,-1.1309,-1.093,-1.0762,-1.1048,-1.113,-1.1167,-1.1151,-1.1218,-1.1289,-1.1282,-1.1404,-1.1563,-1.1654,-1.1136,-1.0899,-1.1319,-1.1629,-1.189,-1.2171,-1.266,-1.3097,-1.4657,-1.4244,-1.3675,-1.3469,-1.3517,-1.3218,-1.3197,-1.3361,-1.3243,-1.3152,-1.3088,-1.3044,-1.304,-1.3041,-1.3114,0.0,0.0,0.0,-1.2808,-1.2869,-1.2937,-1.293,-1.2894,-1.3191,-1.3209,-1.2978,-1.3257,-1.3293,-1.3094,-1.336,-1.3545,-1.3673,0.0,0.0,-1.37,-1.3508,-1.3454,-1.3561,-1.3441,-1.3383,-1.3395,-1.3258,-1.303,-1.2777,-1.2428,-1.2116,-1.1906,-1.1461,-1.1346,-1.157,-1.0923,-1.1128,0.0,0.0,0.0,0.0,0.0,0.0,0.0,0.0,0.0,0.0,0.0,-1.049,-1.0667,0.0,0.0,0.0,-1.0891,-1.1259,-1.1802,-1.1764,0.0,0.0,0.0,0.0,0.0,0.0,0.0,-1.2457,-1.2258,-1.214,-1.2265,-1.2279,-1.2204,-1.1985,-1.2126,-1.2274,-1.2282,0.0,-1.2337,-1.2271,-1.1987,-1.1714,-1.1525,-1.1368,-1.1345,-1.1609,-1.1667,-1.1686,-1.1693,-1.1732,-1.1763,-1.1778,-1.1895,-1.2066,-1.2259,-1.2011,-1.1817,-1.194,-1.2227,-1.2509,-1.2673,-1.317,-1.3705,-1.5565,-1.5509,-1.4791,-1.4392,-1.4166,-1.3965,-1.3788,-1.3617,-1.3639,-1.3598,-1.3562,-1.3318,-1.3394,-1.3695,-1.3539,0.0,-1.2938,-1.2932,-1.2979,-1.3049,-1.3111,-1.3252,-1.3397,-1.3444,-1.3326,-1.3113,-1.3558,-1.3535,-1.3132,-1.3709,-1.3845,-1.3571,-1.3452,-1.3465,-1.3599,-1.3447,-1.3402,-1.3549,-1.3536,-1.3516,-1.3476,-1.3143,-1.2973,-1.2946,-1.252,-1.2178,-1.1942,-1.1735,-1.1574,-1.1475,-1.1398,-1.1546,-1.1963,0.0,0.0,0.0,0.0,0.0,0.0,0.0,0.0,0.0,0.0,0.0,0.0,0.0,0.0,0.0,-1.1005,0.0,-1.1687,-1.1992,0.0,0.0,0.0,-1.299,-1.3369,-1.2973,-1.2721,-1.2858,0.0,0.0,-1.249,-1.2666,-1.2698,-1.2387,-1.2286,-1.2366,-1.2687,-1.2648,-1.2567,-1.2654,-1.2608,-1.2501,-1.2312,-1.2305,-1.2344,-1.2452,-1.2413,-1.2305,-1.229,-1.2267,-1.2135,-1.2181,-1.2166,-1.2297,-1.2468,-1.3067,-1.3346,-1.2788,-1.2941,-1.3164,-1.3221,-1.3605,-1.416,-1.6097,-1.6075,-1.5698,-1.5272,-1.4838,-1.4588,-1.457,-1.4702,-1.4674,-1.4514,-1.4329,-1.4227,-1.3993,-1.3689,-1.347,-1.3326,-1.3281,-1.3296,-1.3314,-1.3393,-1.36,-1.3627,-1.3495,-1.3843,-1.3974,-1.3945,-1.4211,-1.4434,-1.4512,-1.4653,-1.4548,-1.4207,-1.4152,-1.4012,-1.3765,-1.3705,-1.3741,-1.3884,-1.3884,-1.3701,-1.3259,-1.2976,-1.2733,-1.2467,-1.2375,-1.2271,-1.2216,-1.1973,-1.1901,-1.2059,-1.1407,-1.1508,-1.2612,-1.2251,0.0,0.0,0.0,0.0,0.0,0.0,0.0,0.0,0.0,-1.1722,-1.1762,0.0,-1.1975,0.0,-1.1821,-1.2195,-1.2633,-1.2877,0.0,0.0,-1.3079,-1.2982,-1.2689,-1.2444,-1.2444,-1.2714,-1.2856,-1.3004,-1.3221,-1.3544,-1.3739,-1.3643,-1.3033,-1.2714,-1.3082,-1.3039,-1.3109,-1.3456,-1.344,-1.3392,-1.3281,-1.3083,-1.2901,-1.2949,-1.2687,-1.2451,-1.2459,-1.2875,-1.321,-1.3258,-1.3694,-1.4021,-1.4078,-1.4301,-1.4325,-1.4217,-1.4248,-1.4297,-1.4297,-1.4545,-1.4859,-1.6748,-1.665,-1.639,-1.6006,-1.5608,-1.5348,-1.5318,-1.5439,-1.5422,-1.5254,-1.4991,-1.4826,-1.4479,-1.3989,-1.3822,-1.3705,-1.3629,-1.3607,-1.3701,-1.3863,-1.387,-1.3804,-1.3688,-1.3811,-1.3875,-1.3892,-1.417,-1.4395,-1.4658,-1.4755,-1.4761,-1.4664,-1.4679,-1.4533,-1.4289,-1.4106,-1.412,-1.4317,-1.4214,-1.3994,-1.3614,-1.32,-1.3049,-1.3175,-1.2786,-1.2735,-1.3045,-1.2868,-1.2772,-1.2835,-1.251,-1.2571,-1.3127,-1.2868,-1.2999,0.0,0.0,0.0,0.0,0.0,0.0,0.0,0.0,0.0,0.0,0.0,-1.264,-1.2687,-1.2642,-1.2733,-1.3061,-1.3125,-1.3143,-1.3076,-1.3005,-1.2937,-1.2876,-1.2821,-1.2915,-1.3274,-1.3438,-1.3576,-1.3638,-1.382,-1.396,-1.398,-1.3517,-1.3326,-1.3664,-1.3664,-1.3738,-1.3981,-1.3898,-1.375,-1.3657,-1.3475,-1.3348,-1.3412,-1.3371,-1.3321,-1.3253,-1.3698,-1.4092,-1.4125,-1.4424,-1.47,-1.4725,-1.4829,-1.4915,-1.4941,-1.506,-1.5069,-1.4785,-1.4863,-1.5077,-1.7298,-1.7062,-1.6773,-1.6507,-1.6254,-1.6006,-1.5885,-1.5885,-1.5885,-1.5759,-1.5535,-1.527,-1.4896,-1.4455,-1.4419,-1.4274,-1.4069,-1.4057,-1.4165,-1.4334,-1.4111,-1.4043,-1.4082,-1.3765,-1.3724,-1.3952,-1.4079,-1.4294,-1.4598,-1.4763,-1.5005,-1.5271,-1.5219,-1.5188,-1.5164,-1.4831,-1.4669,-1.4713,-1.4545,-1.4321,-1.4084,-1.3669,-1.374,-1.4254,-1.3537,-1.3409,-1.4036,-1.3914,-1.3768,-1.3583,-1.392,-1.392,-1.3557,-1.3623,-1.378,0.0,-1.3942,0.0,0.0,0.0,0.0,0.0,0.0,0.0,0.0,-1.272,-1.3136,-1.3619,-1.3306,-1.3109,-1.3203,-1.3198,-1.3165,-1.3094,-1.2989,-1.3088,-1.351,-1.3583,-1.371,-1.4039,-1.4137,-1.4093,-1.3944,-1.3959,-1.4024,-1.4096,-1.4135,-1.4222,-1.4412,-1.4406,-1.4368,-1.4367,-1.4266,-1.4231,-1.405,-1.3913,-1.3892,-1.4012,-1.4177,-1.4376,-1.4182,-1.4479,-1.4752,-1.4752,-1.4821,-1.488,-1.4846,-1.5095,-1.5266,-1.5283,-1.5531,-1.5548,-1.506,-1.4988,-1.5189,-1.7135,-1.7073,-1.6561,-1.6353,-1.6287,-1.6,-1.5885,-1.5885,-1.5885,-1.5861,-1.5795,-1.5541,-1.5366,-1.5258,-1.5046,-1.4932,-1.4883,-1.4883,-1.4793,-1.4611,-1.4588,-1.4752,-1.5052,-1.4456,-1.4922,-1.626,-1.5728,-1.5869,-1.6702,-1.6383,-1.6426,-1.6784,-1.6414,-1.6362,-1.666,0.0,0.0,0.0,-1.465,-1.4428,-1.4056,-1.4594,-1.4755,-1.4472,-1.4346,0.0,-1.4471,-1.4214,-1.4021,-1.3992,-1.4057,0.0,0.0,0.0,0.0,0.0,0.0,0.0,0.0,0.0,0.0,0.0,-1.341,-1.336,-1.3055,-1.2717,-1.2613,-1.2882,-1.3201,-1.3368,-1.3286,-1.3915,-1.4228,-1.4058,-1.3994,-1.4006,-1.3995,-1.3967,-1.4021,-1.4093,-1.4328,-1.4497,-1.4489,-1.4866,-1.5159,-1.5124,-1.5328,-1.5443,-1.5478,-1.5062,-1.4984,-1.5377,-1.5335,-1.5397,-1.5399,-1.5052,-1.4807,-1.4925,-1.4728,-1.4642,-1.4624,-1.4855,-1.5086,-1.5103,-1.5377,-1.5574,-1.5574,-1.5651,-1.5668,-1.5694,-1.5728,-1.5745,-1.5617,-1.56,-1.5661,-1.7213,0.0,-1.6797,-1.6559,0.0,-1.6166,-1.6167,-1.6258,-1.6025,-1.5885,-1.5912,-1.5747,-1.5777,-1.5902,-1.5914,-1.6005,-1.6161,-1.6274,-1.6264,-1.6134,-1.6134,-1.6277,-1.6458,-1.5954,-1.6163,-1.703,-1.6782,-1.6877,-1.7377,-1.7289,-1.7352,-1.7551,-1.7102,-1.693,-1.6996,-1.6869,-1.6372,-1.5509,-1.5502,-1.5238,-1.4736,-1.5006,-1.5195,-1.5265,-1.4835,0.0,0.0,0.0,0.0,0.0,0.0,0.0,0.0,-1.4356,0.0,-1.4106,-1.4031,-1.3973,-1.3961,-1.392,-1.3718,-1.3383,-1.3539,-1.3467,-1.2989,-1.276,-1.2811,-1.3222,-1.3479,-1.3691,-1.3795,-1.4191,-1.4382,-1.422,-1.4129,-1.4122,-1.4292,-1.4256,-1.4328,-1.4615,-1.4866,-1.5017,-1.4901,-1.523,-1.5487,-1.5505,-1.5576,-1.5691,-1.5761,-1.5541,-1.547,-1.5629,-1.5655,-1.5594,-1.5524,-1.5345,-1.5161,-1.5044,-1.4985,-1.4951,-1.4958,-1.5181,-1.5367,-1.5462,-1.5677,-1.5805,-1.5805,-1.5805,-1.5805,-1.5805,-1.5805,-1.5805,-1.5805,-1.5805,-1.5805,-1.7445,-1.7332,-1.7283,-1.7056,-1.6755,-1.6706,-1.6769,-1.6882,0.0,0.0,0.0,-1.6211,-1.6319,-1.6555,-1.6827,-1.7088,-1.7333,-1.7527,-1.7617,-1.7611,-1.7568,-1.7558,-1.7626,-1.7299,-1.7252,-1.7512,-1.7589,-1.7712,-1.7832,-1.7868,-1.7934,-1.8007,-1.7606,-1.734,-1.7235,-1.7019,-1.6808,-1.6652,-1.6504,-1.6167,-1.5573,-1.5492,-1.5708,-1.619,-1.5432,-1.5293,-1.5861,-1.535,-1.5003,-1.4906,-1.5085,-1.5059,-1.4759,-1.4723,-1.4624,-1.4359,-1.4283,-1.4171,-1.3948,-1.3991,-1.395,-1.3708,-1.391,-1.3731,-1.3012,-1.3035,-1.3313,-1.3778,-1.3887,-1.4049,-1.4292,-1.441,-1.4428,-1.431,-1.414,-1.4271,-1.4782,-1.4674,-1.479,-1.5295,-1.5471,-1.5475,-1.5284,-1.5364,-1.5443,-1.5443,-1.5452,-1.5487,-1.5655,-1.5726,-1.5673,-1.555,-1.5523,-1.5443,-1.5275,-1.5206,-1.5143,-1.5066,-1.5164,-1.5265,-1.529,-1.5494,-1.5662,-1.5683,-1.5796,-1.5856,-1.5831,-1.5805,-1.5805,-1.5805,-1.5805,-1.5805,-1.5805,-1.5805,-1.5805,-1.7789,-1.8193,-1.796,-1.8127,-1.8528,-1.8279,-1.8056,-1.7805,-1.7496,-1.7345,-1.7371,-1.7371,-1.7378,-1.7417,-1.7469,-1.7619,-1.7866,-1.769,-1.76,-1.7585,-1.7362,-1.7473,-1.7839,-1.74,-1.7873,-1.9036,-1.8447,-1.8463,-1.898,-1.8198,-1.8046,-1.8512,-1.7993,-1.7948,-1.848,-1.8494,-1.832,-1.8027,-1.7346,-1.6713,-1.6203,-1.6862,-1.7026,-1.6628,-1.6532,-1.6534,-1.6642,-1.5961,-1.5731,-1.6024,-1.5458,-1.5128,-1.5191,-1.4742,-1.4362,-1.4183,-1.4348,-1.4452,-1.442,-1.4785,-1.4835,-1.4508,-1.4771,-1.469,-1.3977,-1.3926,-1.3894,-1.3851,-1.425,-1.4418,-1.4364,-1.48,-1.5103,-1.5069,-1.5034,-1.5247,-1.5768,-1.5628,-1.562,-1.6067,-1.5885,-1.5615,-1.5474,-1.5345,-1.5275,-1.5258,-1.5275,-1.5284,-1.5355,-1.5594,-1.5708,-1.5558,-1.5505,-1.5408,-1.524,-1.5196,-1.5234,-1.5412,-1.5403,-1.5408,-1.5446,-1.5772,-1.5952,-1.5652,-1.5884,-1.6007,-1.5855,-1.5805,-1.577,-1.577,-1.5752,-1.577,-1.577,-1.5788,-1.5805,-1.8806,-1.889,-1.876,-1.8772,-1.8888,-1.8911,-1.8767,-1.8514,-1.8676,-1.8284,-1.7635,-1.7615,-1.7766,-1.8022,-1.818,-1.8487,-1.893,-1.8938,-1.8962,-1.8927,-1.885,-1.888,-1.9024,-1.8685,-1.8862,-1.9502,-1.9159,-1.9048,-1.9187,-1.8688,-1.8544,-1.8668,-1.8155,-1.8087,-1.8419,-1.8566,-1.8557,-1.8407,-1.7979,-1.7531,-1.7139,-1.7511,-1.7501,-1.7032,-1.6838,-1.6649,-1.6464,-1.5982,-1.5667,-1.5585,-1.5245,-1.4981,-1.4812,-1.4828,-1.4764,-1.4667,-1.5017,-1.5255,-1.5208,-1.5412,-1.5514,-1.5527,-1.5693,-1.5756,-1.5646,-1.5048,-1.4779,-1.4976,-1.5237,-1.5457,-1.5661,-1.5973,-1.613,-1.613,-1.6038,-1.604,-1.6142,-1.6017,-1.5896,-1.5992,-1.5854,-1.5673,-1.5609,-1.5462,-1.5381,-1.5355,-1.5275,-1.5196,-1.5196,-1.5346,-1.5426,-1.5355,-1.5337,-1.5293,-1.5196,-1.5196,-1.5258,-1.5337,-1.5248,-1.5313,-1.5481,-1.5696,-1.5687,-1.5861,-1.5859,-1.5728,-1.5687,-1.5595,-1.5513,-1.5487,-1.547,-1.5487,-1.5487,-1.57,-1.5912,-1.975,-1.9629,-1.9555,-1.9474,-1.9415,-1.9533,-1.9467,-1.9311,-1.9592,-1.9112,-1.8151,-1.8018,-1.8213,-1.8612,-1.8807,-1.9198,-1.968,-1.9853,-1.9931,-2.0001,-1.9931,-1.9905,-1.9908,-1.9707,-1.9611,-1.9603,-1.9618,-1.9443,-1.9231,-1.9066,-1.8874,-1.8625,-1.8369,-1.8193,-1.8224,-1.8342,-1.8404,-1.8411,-1.8368,-1.8211,-1.7928,-1.7912,-1.7775,-1.7419,-1.7048,-1.6722,-1.6464,-1.6051,-1.5677,-1.5396,-1.5119,-1.4935,-1.4848,-1.5037,-1.522,-1.5347,-1.5849,-1.6198,-1.6291,-1.6298,-1.6365,-1.6544,-1.6638,-1.6789,-1.6922,-1.6299,-1.5902,-1.6092,-1.6092,-1.6299,-1.6592,-1.6704,-1.6777,-1.6767,-1.6588,-1.6433,-1.6418,-1.6195,-1.6041,-1.5962,-1.5897,-1.5876,-1.5803,-1.5632,-1.5436,-1.5255,-1.5151,-1.5062,-1.5062,-1.5062,-1.508,-1.5088,-1.5124,-1.5098,-1.508,-1.5044,-1.5062,-1.5115,-1.5017,-1.5105,-1.5348,-1.5247,-1.5334,-1.5873,-1.5698,-1.5536,-1.5622,-1.5452,-1.5335,-1.5435,-1.5524,-1.5524,-1.57,-1.6009,-1.6167,-2.0144,-2.0589,-2.0338,-2.0487,-2.0803,-2.0579,-2.0451,-2.036,-1.9984,-1.9745,-1.9503,-1.9272,-1.9149,-1.922,-1.9227,-1.9428,-1.9654,-1.948,-1.9506,-1.9706,-1.948,-1.9376,-1.9402,-1.9598,-1.9687,-1.9667,-1.9631,-1.9555,-1.9446,-1.8974,-1.8725,-1.8682,-1.86,-1.8537,-1.8506,-1.827,-1.8133,-1.8133,-1.835,-1.8392,-1.8279,-1.8255,-1.8111,-1.7753,-1.7405,-1.7236,-1.7127,-1.6524,-1.6269,-1.6437,-1.5509,-1.5324,-1.6001,-1.5516,-1.5391,-1.597,-1.6574,-1.7151,-1.7699,-1.7808,-1.7638,-1.7444,-1.7635,-1.7669,-1.7494,-1.7604,-1.7364,-1.6789,-1.6566,-1.6553,-1.6389,-1.6433,-1.6494,-1.6519,-1.6311,-1.6261,-1.6684,-1.6463,-1.6308,-1.6663,-1.646,-1.6379,-1.619,-1.5819,-1.5318,-1.489,-1.483,-1.4762,-1.4705,-1.4731,-1.4713,-1.4713,-1.481,-1.4846,-1.474,-1.4651,-1.4766,-1.49,-1.4926,-1.4964,-1.5107,-1.5387,-1.5737,-1.5647,-1.5694,-1.5677,-1.5642,-1.5468,-1.5452,-1.5806,-1.5965,-1.6132,-1.6586,-1.6752,-1.6621,-2.1413,-2.1334,-2.1198,-2.1126,-2.1125,-2.0953,-2.0792,-2.0624,-2.0397,-2.0195,-2.003,-1.973,-1.9488,-1.9305,-1.9298,-1.935,-1.9454,-1.935,-1.935,-1.9454,-1.935,-1.9298,-1.9298,-1.9409,-1.9454,-1.9446,-1.945,-1.9319,-1.907,-1.8691,-1.8454,-1.8447,-1.8444,-1.8329,-1.8159,-1.8152,-1.8065,-1.7869,-1.8117,-1.8234,-1.8194,-1.8171,-1.8031,-1.7644,-1.71,-1.686,-1.6964,-1.6564,-1.6437,-1.6653,-1.6228,-1.6029,-1.6214,-1.625,-1.6381,-1.6694,-1.7274,-1.77,-1.7991,-1.8011,-1.7951,-1.7809,-1.7926,-1.7923,-1.7806,-1.7825,-1.7637,-1.7361,-1.7353,-1.7392,-1.7285,-1.7186,-1.7119,-1.7088,-1.6938,-1.6884,-1.6967,-1.6851,-1.6758,-1.6742,-1.6601,-1.6479,-1.639,-1.6062,-1.5581,-1.5083,-1.4959,-1.4861,-1.466,-1.4587,-1.4587,-1.4605,-1.4677,-1.4677,-1.4605,-1.4587,-1.4641,-1.4703,-1.4721,-1.477,-1.5067,-1.4977,-1.516,-1.5544,-1.5644,-1.5758,-1.5873,-1.593,-1.5965,-1.6254,-1.6237,-1.6307,-1.6516,-1.6838,-1.689,-2.2336,-2.1957,-2.1774,-2.1511,-2.1189,-2.1152,-2.1021,-2.0836,-2.0694,-2.0527,-2.0305,-2.0033,-1.9762,-1.9561,-1.9393,-1.9298,-1.9298,-1.9298,-1.9298,-1.9298,-1.9298,-1.9298,-1.9298,-1.9298,-1.9298,-1.9298,-1.9298,-1.9173,-1.8939,-1.8719,-1.8569,-1.8562,-1.8482,-1.8321,-1.8101,-1.8191,-1.8069,-1.7823,-1.8113,-1.8263,-1.8162,-1.8148,-1.808,-1.7895,-1.7191,-1.6939,-1.7248,-1.6993,-1.6854,-1.689,-1.6792,-1.6661,-1.6563,-1.6898,-1.7151,-1.7363,-1.7757,-1.8011,-1.8011,-1.7951,-1.791,-1.791,-1.787,-1.7829,-1.7797,-1.7688,-1.7627,-1.7594,-1.7749,-1.7792,-1.7818,-1.7708,-1.7619,-1.7598,-1.7424,-1.7249,-1.7102,-1.7057,-1.6878,-1.6727,-1.6617,-1.6509,-1.6388,-1.611,-1.571,-1.5293,-1.5176,-1.5046,-1.4708,-1.4587,-1.4587,-1.4587,-1.4605,-1.4605,-1.4587,-1.4587,-1.4587,-1.4641,-1.4677,-1.4944,-1.5247,-1.5057,-1.5201,-1.6025,-1.5849,-1.5862,-1.6181,-1.6359,-1.6411,-1.6533,-1.6629,-1.6733,-1.6958,-1.7201,-1.7365,-2.257,-2.2491,-2.1935,-2.1518,-2.1211,-2.1225,-2.1181,-2.1102,-2.0845,-2.0678,-2.0634,-2.0307,-2.0181,-2.0053,-1.9507,-1.9294,-1.9294,-1.9323,-1.9338,-1.9364,-1.9316,-1.9312,-1.9298,-1.9298,-1.9312,-1.9342,-1.9349,-1.9312,-1.9261,-1.922,-1.9261,-1.9224,-1.888,-1.876,-1.8657,-1.8483,-1.8178,-1.8059,-1.8506,-1.864,-1.8283,-1.8325,-1.845,-1.8587,-1.8114,-1.7911,-1.8262,-1.8089,-1.7751,-1.7396,-1.6963,-1.6996,-1.7468,-1.7204,-1.7306,-1.7838,-1.7959,-1.8,-1.7951,-1.7801,-1.77,-1.77,-1.7566,-1.7432,-1.7493,-1.7432,-1.7412,-1.7412,-1.7412,-1.7412,-1.7412,-1.7424,-1.7412,-1.7392,-1.7221,-1.7111,-1.7098,-1.6874,-1.673,-1.6689,-1.667,-1.6568,-1.6273,-1.5916,-1.5672,-1.5391,-1.5247,-1.5094,-1.4774,-1.4637,-1.4673,-1.4659,-1.4659,-1.4605,-1.4605,-1.4687,-1.4659,-1.4794,-1.5088,-1.5213,-1.5514,-1.5796,-1.618,-1.6437,-1.628,-1.6316,-1.6571,-1.6715,-1.6737,-1.6933,-1.7382,-1.7554,-1.7373,-1.7742,-1.782,-2.2806,-2.2564,-2.195,-2.1628,-2.1533,-2.1518,-2.1401,-2.1203,-2.1086,-2.1035,-2.0891,-2.0257,-1.9954,-1.9898,-1.9077,-1.9159,-1.984,-1.9859,-1.9867,-1.9894,-1.9867,-1.9886,-1.9867,-1.9859,-1.9769,-1.9635,-1.9605,-1.9503,-1.926,-1.8933,-1.8829,-1.9004,-1.8889,-1.8814,-1.8829,-1.9039,-1.8975,-1.8718,-1.8734,-1.8606,-1.8432,-1.8114,-1.8226,-1.8719,-1.7956,-1.7792,-1.8364,-1.798,-1.7808,-1.7975,-1.7577,-1.7383,-1.7485,-1.7343,-1.7343,-1.7575,-1.7615,-1.7615,-1.7595,-1.7534,-1.7505,-1.7505,-1.7453,-1.7371,-1.7371,-1.729,-1.7208,-1.718,-1.7045,-1.6963,-1.6976,-1.7098,-1.72,-1.7159,-1.6996,-1.6853,-1.6833,-1.6751,-1.6689,-1.6689,-1.6689,-1.6646,-1.6507,-1.6408,-1.6222,-1.5912,-1.5825,-1.5574,-1.5189,-1.5139,-1.5208,-1.5101,-1.5204,-1.5374,-1.5364,-1.5115,-1.5044,-1.5311,-1.5541,-1.5577,-1.5771,-1.5877,-1.6183,-1.6386,-1.6386,-1.6596,-1.6794,-1.7013,-1.7063,-1.7228,-1.7693,-1.7727,-1.7676,-1.7745,-1.7727,-2.282,-2.2526,-2.2067,-2.1854,-2.1854,-2.1759,-2.1511,-2.1198,-2.0974,-2.0838,-2.0623,-1.9961,-1.9643,-1.9552,-1.8972,-1.9116,-1.9835,-1.97,-1.9608,-1.96,-1.96,-1.9633,-1.9644,-1.9688,-1.9551,-1.9227,-1.9124,-1.8969,-1.8764,-1.8605,-1.8665,-1.8855,-1.9068,-1.9225,-1.9279,-1.958,-1.961,-1.9309,-1.9184,-1.9066,-1.8759,-1.8493,-1.8474,-1.8658,-1.8216,-1.8082,-1.8505,-1.8213,-1.8153,-1.836,-1.8024,-1.765,-1.7429,-1.7392,-1.7392,-1.7392,-1.7392,-1.7392,-1.7392,-1.7359,-1.7302,-1.729,-1.72,-1.7168,-1.7176,-1.7037,-1.6996,-1.6914,-1.6812,-1.6689,-1.673,-1.6874,-1.6976,-1.6955,-1.6792,-1.6689,-1.6689,-1.6689,-1.6689,-1.6673,-1.6562,-1.6542,-1.6568,-1.6468,-1.6376,-1.6301,-1.6197,-1.5893,-1.5717,-1.5634,-1.5673,-1.5458,-1.5568,-1.5762,-1.5842,-1.5709,-1.5479,-1.5674,-1.5894,-1.5947,-1.6044,-1.6097,-1.6184,-1.6342,-1.6542,-1.6769,-1.7011,-1.7262,-1.7375,-1.7443,-1.7512,-1.759,-1.7556,-1.7512,-1.7522,-2.2614,-2.2578,-2.2278,-2.2154,-2.2087,-2.1742,-2.1459,-2.1049,-2.0519,-2.0161,-1.9887,-1.9441,-1.929,-1.9263,-1.9181,-1.9285,-1.9251,-1.8974,-1.8737,-1.8682,-1.8634,-1.8611,-1.8673,-1.8872,-1.8755,-1.8337,-1.7905,-1.7806,-1.7996,-1.8546,-1.8859,-1.9008,-1.962,-1.9882,-2.0063,-2.0058,-2.0004,-1.9864,-2.0054,-1.9881,-1.9192,-1.9359,-1.9286,-1.8922,-1.895,-1.8987,-1.8956,-1.894,-1.8831,-1.8684,-1.8194,-1.7742,-1.7388,-1.7331,-1.738,-1.7331,-1.7371,-1.7371,-1.7351,-1.72,-1.7078,-1.7057,-1.6874,-1.6771,-1.6771,-1.6751,-1.673,-1.673,-1.671,-1.6689,-1.6689,-1.671,-1.673,-1.6689,-1.6718,-1.6689,-1.6689,-1.671,-1.671,-1.6719,-1.6609,-1.6364,-1.6352,-1.6422,-1.6429,-1.6563,-1.6371,-1.6179,-1.6267,-1.6128,-1.5874,-1.5806,-1.5939,-1.614,-1.6237,-1.6298,-1.6088,-1.6,-1.6202,-1.6333,-1.649,-1.6577,-1.6682,-1.683,-1.683,-1.702,-1.702,-1.7237,-1.7289,-1.7367,-1.7419,-1.7401,-1.734,-1.7306,-1.735,-2.2959,-2.2861,-2.2095,-2.1943,-2.1997,-2.1295,-2.0762,-2.0515,-2.0226,-1.9889,-1.9461,-1.9106,-1.8858,-1.879,-1.8903,-1.9013,-1.9058,-1.9425,-1.9464,-1.9073,-1.9016,-1.9054,-1.9041,-1.8928,-1.8892,-1.8946,-1.9195,-1.9302,-1.925,-1.9186,-1.9231,-1.9465,-1.9672,-1.9905,-2.013,-2.0447,-2.0583,-2.0544,-2.0424,-2.0229,-1.993,-1.9637,-1.9407,-1.9216,-1.9032,-1.8902,-1.8874,-1.8956,-1.8888,-1.8751,-1.8061,-1.7451,-1.7015,-1.6922,-1.6894,-1.6914,-1.6914,-1.6922,-1.6922,-1.6874,-1.6833,-1.6812,-1.6738,-1.6689,-1.6689,-1.6689,-1.6689,-1.6689,-1.6689,-1.6689,-1.6689,-1.6689,-1.673,-1.6689,-1.6689,-1.673,-1.6792,-1.7004,-1.7168,-1.7221,-1.7325,-1.7446,-1.7455,-1.7315,-1.7274,-1.7373,-1.7147,-1.6913,-1.6754,-1.668,-1.643,-1.6237,-1.6386,-1.6535,-1.665,-1.6739,-1.6669,-1.651,-1.6589,-1.6685,-1.6842,-1.6882,-1.702,-1.7099,-1.7116,-1.7133,-1.7133,-1.7116,-1.7133,-1.7135,-1.7092,-1.7083,-1.7091,-1.7128,-1.7166,-2.291,-2.282,-2.1953,-2.1781,-2.1965,-2.1009,-2.0469,-2.0234,-2.0301,-1.998,-1.9538,-1.9539,-1.9384,-1.9189,-1.9345,-1.9432,-1.949,-2.0061,-2.0061,-1.9708,-1.9679,-1.964,-1.9508,-1.9064,-1.9022,-1.9281,-1.9513,-1.9587,-1.9472,-1.9591,-1.965,-1.971,-1.999,-2.0248,-2.0395,-2.0712,-2.0899,-2.0859,-2.0702,-2.0527,-2.0362,-1.9996,-1.9654,-1.9407,-1.9153,-1.8947,-1.8835,-1.8878,-1.8909,-1.8773,-1.8205,-1.7487,-1.6802,-1.671,-1.6689,-1.6689,-1.6689,-1.6689,-1.6689,-1.671,-1.6689,-1.6689,-1.6689,-1.6689,-1.6689,-1.6689,-1.673,-1.6943,-1.6984,-1.7017,-1.7159,-1.718,-1.718,-1.718,-1.7066,-1.7045,-1.7168,-1.7432,-1.7595,-1.7656,-1.7801,-1.7931,-1.791,-1.789,-1.7971,-1.8,-1.7757,-1.7553,-1.7356,-1.7355,-1.7071,-1.6893,-1.6945,-1.7042,-1.7103,-1.7157,-1.723,-1.7122,-1.7031,-1.7059,-1.7121,-1.6964,-1.6978,-1.6978,-1.6995,-1.7012,-1.7012,-1.6874,-1.6839,-1.6805,-1.6852,-1.6926,-1.6981,-1.699,-1.7053,-2.2526,-2.2431,-2.1789,-2.1621,-2.1786,-2.0828,-2.033,-2.0296,-2.0442,-2.0257,-1.9936,-2.034,-2.0461,-2.0268,-2.0241,-2.0349,-2.0357,-2.0558,-2.0615,-2.0486,-2.0401,-2.0153,-1.9517,-1.9161,-1.9197,-1.9292,-1.9285,-1.905,-1.9071,-1.9807,-2.0073,-1.9969,-2.0506,-2.0873,-2.084,-2.0899,-2.0899,-2.0891,-2.0875,-2.0734,-2.0464,-2.0369,-2.0123,-1.9558,-1.9407,-1.9193,-1.8877,-1.8758,-1.8833,-1.8965,-1.8358,-1.76,-1.6881,-1.6689,-1.6689,-1.6689,-1.6689,-1.6689,-1.6689,-1.6689,-1.6689,-1.6689,-1.6771,-1.6759,-1.68,-1.6922,-1.7057,-1.7371,-1.7432,-1.7554,-1.7829,-1.789,-1.791,-1.7971,-1.7656,-1.7587,-1.791,-1.7991,-1.804,-1.804,-1.804,-1.8031,-1.8003,-1.7954,-1.8095,-1.8195,-1.8033,-1.7888,-1.7877,-1.7803,-1.777,-1.7579,-1.7289,-1.7207,-1.7144,-1.7153,-1.7234,-1.7268,-1.7171,-1.7153,-1.7207,-1.7053,-1.6801,-1.681,-1.6861,-1.6886,-1.6823,-1.6693,-1.6686,-1.6775,-1.6821,-1.6865,-1.6855,-1.6829,-1.6862,-2.1508,-2.1405,-2.0788,-2.0682,-2.0791,-1.9701,-1.9782,-2.0445,-2.0165,-2.0188,-2.0205,-2.0552,-2.0547,-2.0074,-2.0888,-2.1145,-2.1124,-2.1617,-2.1852,-2.1616,-2.1356,-2.0258,-1.9262,-1.9462,-1.9684,-1.965,-2.0023,-2.0325,-2.0256,-2.0503,-2.0646,-2.0591,-2.0743,-2.0907,-2.0899,-2.0873,-2.0899,-2.0899,-2.0891,-2.0842,-2.0707,-2.0494,-2.0346,-2.0155,-1.9654,-1.9281,-1.8926,-1.8512,-1.8231,-1.8117,-1.784,-1.7354,-1.6787,-1.6697,-1.6689,-1.6689,-1.6705,-1.6697,-1.6726,-1.6741,-1.6713,-1.673,-1.7086,-1.7208,-1.7229,-1.7493,-1.7688,-1.7838,-1.7838,-1.7899,-1.7991,-1.804,-1.8181,-1.8391,-1.8121,-1.7919,-1.8072,-1.8302,-1.8511,-1.8523,-1.8734,-1.8785,-1.8765,-1.8745,-1.8725,-1.8691,-1.8449,-1.8129,-1.8104,-1.7931,-1.777,-1.7487,-1.7232,-1.7167,-1.7129,-1.7149,-1.7189,-1.7282,-1.7206,-1.7083,-1.7113,-1.7062,-1.6751,-1.653,-1.6721,-1.6776,-1.6661,-1.6528,-1.6626,-1.6749,-1.6798,-1.6824,-1.6677,-1.6599,-1.6631,-2.1375,-2.1488,-2.0938,-2.1102,-2.1492,-2.0545,-2.0498,-2.1022,-2.114,-2.0968,-2.1054,-2.1635,-2.1472,-2.091,-2.1638,-2.1837,-2.1674,-2.2137,-2.225,-2.2053,-2.1557,-2.0612,-1.9735,-1.9978,-2.0009,-1.9976,-2.0611,-2.0856,-2.0825,-2.1041,-2.1023,-2.0805,-2.0888,-2.0835,-2.055,-2.0694,-2.066,-2.0583,-2.055,-2.0557,-2.0526,-2.0395,-2.0208,-2.0067,-1.9653,-1.9322,-1.8828,-1.827,-1.7881,-1.7719,-1.7522,-1.7224,-1.6849,-1.674,-1.6697,-1.6697,-1.6762,-1.6911,-1.7192,-1.7268,-1.744,-1.7679,-1.7908,-1.789,-1.7898,-1.8001,-1.8011,-1.825,-1.827,-1.8382,-1.8514,-1.8554,-1.8683,-1.8843,-1.8623,-1.8462,-1.8525,-1.8794,-1.8891,-1.8931,-1.9022,-1.9123,-1.9073,-1.9042,-1.8982,-1.8856,-1.864,-1.8371,-1.8156,-1.7914,-1.7691,-1.7452,-1.7296,-1.7247,-1.7209,-1.722,-1.7173,-1.7258,-1.7201,-1.7089,-1.6988,-1.6994,-1.6787,-1.657,-1.662,-1.6625,-1.6543,-1.6517,-1.6659,-1.6766,-1.6802,-1.6822,-1.6724,-1.6494,-1.6499,-2.171,-2.2027,-2.1684,-2.2048,-2.2598,-2.2201,-2.1658,-2.1877,-2.2325,-2.2328,-2.2091,-2.2952,-2.2604,-2.2141,-2.2251,-2.2361,-2.2038,-2.2078,-2.1941,-2.1658,-2.1226,-2.0607,-2.0148,-2.006,-2.0094,-2.0147,-2.0727,-2.0788,-2.0772,-2.1178,-2.1113,-2.0799,-2.0857,-2.0642,-2.0305,-2.0313,-2.0272,-2.013,-2.0082,-2.0082,-2.0105,-2.0097,-2.0046,-1.9821,-1.95,-1.9109,-1.8563,-1.7988,-1.7634,-1.7546,-1.7419,-1.7213,-1.6943,-1.6834,-1.6897,-1.7028,-1.723,-1.7598,-1.7998,-1.817,-1.8437,-1.8859,-1.8797,-1.8752,-1.873,-1.861,-1.8641,-1.8854,-1.8843,-1.8963,-1.9092,-1.9222,-1.9152,-1.9112,-1.9013,-1.9033,-1.9192,-1.9251,-1.9172,-1.9022,-1.8982,-1.8891,-1.8752,-1.866,-1.8652,-1.8523,-1.8395,-1.821,-1.8018,-1.7873,-1.7697,-1.7521,-1.742,-1.7352,-1.7313,-1.7293,-1.7234,-1.722,-1.7164,-1.7053,-1.6865,-1.6827,-1.6781,-1.6691,-1.6589,-1.6533,-1.651,-1.6565,-1.67,-1.674,-1.6748,-1.6896,-1.6995,-1.661,-1.6477,-2.1639,-2.1661,-2.1368,-2.133,-2.1447,-2.1156,-2.1558,-2.2372,-2.2107,-2.2375,-2.2666,-2.2849,-2.2541,-2.2121,-2.2396,-2.2326,-2.1863,-2.189,-2.1618,-2.0635,-2.0505,-2.0081,-1.9795,-1.9929,-2.0101,-2.0114,-2.0216,-2.0414,-2.062,-2.0735,-2.0758,-2.0635,-2.0605,-2.0474,-2.0135,-1.9883,-1.9763,-1.9712,-1.9694,-1.9692,-1.9745,-1.9928,-2.0014,-1.9859,-1.929,-1.8746,-1.8284,-1.7697,-1.7397,-1.735,-1.7348,-1.7339,-1.7208,-1.7521,-1.7742,-1.7886,-1.8335,-1.8726,-1.8914,-1.8977,-1.9054,-1.9325,-1.9554,-1.9627,-1.9648,-1.9761,-1.9742,-1.9734,-1.9634,-1.9421,-1.9228,-1.9132,-1.9073,-1.8993,-1.8843,-1.8732,-1.8812,-1.8851,-1.8832,-1.8772,-1.8732,-1.8672,-1.8491,-1.8431,-1.8342,-1.8181,-1.8034,-1.79,-1.7811,-1.775,-1.7582,-1.7393,-1.7301,-1.7188,-1.7079,-1.7071,-1.7071,-1.7059,-1.7013,-1.698,-1.681,-1.6724,-1.6697,-1.6604,-1.6457,-1.6446,-1.65,-1.6608,-1.6745,-1.6714,-1.6699,-1.6796,-1.683,-1.6557,-1.6501,-2.1913,-2.2063,-2.1897,-2.208,-2.2459,-2.2379,-2.258,-2.2937,-2.2751,-2.2677,-2.2836,-2.281,-2.2491,-2.1986,-2.2339,-2.2197,-2.1608,-2.1595,-2.1354,-2.0726,-2.0435,-2.0135,-1.9972,-1.9914,-1.9911,-1.9799,-1.9893,-2.0076,-2.0249,-2.0496,-2.0532,-2.0271,-2.0449,-2.0261,-1.9798,-1.9511,-1.9376,-1.9234,-1.9227,-1.9227,-1.9297,-1.9534,-1.9732,-1.9657,-1.9118,-1.8753,-1.8843,-1.8446,-1.8246,-1.8237,-1.8218,-1.7987,-1.7762,-1.8237,-1.8568,-1.8719,-1.9003,-1.951,-1.9687,-1.9857,-2.0022,-2.0306,-2.0442,-2.0279,-2.0198,-2.031,-2.0081,-1.9761,-1.9472,-1.9263,-1.8927,-1.8814,-1.8743,-1.8654,-1.8422,-1.827,-1.8282,-1.8491,-1.86,-1.8471,-1.8342,-1.8181,-1.806,-1.802,-1.7939,-1.7737,-1.7716,-1.7582,-1.7561,-1.748,-1.7338,-1.7175,-1.7078,-1.6984,-1.6833,-1.6797,-1.6842,-1.6834,-1.6825,-1.6812,-1.6741,-1.6684,-1.6668,-1.6576,-1.6501,-1.6521,-1.6585,-1.6693,-1.6725,-1.6706,-1.6686,-1.6709,-1.6697,-1.6597,-1.658,-2.2478,-2.2668,-2.2675,-2.3146,-2.3792,-2.3822,-2.3658,-2.3518,-2.3518,-2.3099,-2.2786,-2.2956,-2.2541,-2.2112,-2.232,-2.2016,-2.1481,-2.1211,-2.1123,-2.0912,-2.0532,-2.0378,-2.034,-2.0079,-1.9832,-1.9496,-1.9776,-1.9945,-2.0145,-2.0377,-2.0494,-2.0121,-2.0301,-2.0142,-1.9534,-1.9169,-1.9008,-1.8805,-1.8758,-1.8866,-1.8895,-1.9107,-1.9133,-1.9228,-1.9097,-1.9037,-1.9172,-1.8999,-1.8952,-1.9209,-1.9304,-1.9031,-1.8765,-1.8916,-1.9294,-1.9294,-1.9535,-1.9941,-2.0355,-2.0571,-2.085,-2.1521,-2.1209,-2.0812,-2.0469,-2.0266,-1.9994,-1.9576,-1.9252,-1.8934,-1.8548,-1.8559,-1.8542,-1.8429,-1.8052,-1.7772,-1.7816,-1.8213,-1.8181,-1.802,-1.7919,-1.7797,-1.7595,-1.7473,-1.7392,-1.7339,-1.731,-1.729,-1.7249,-1.7139,-1.6976,-1.6812,-1.6677,-1.6643,-1.6512,-1.6512,-1.6553,-1.6574,-1.6574,-1.6574,-1.6574,-1.6497,-1.646,-1.6632,-1.663,-1.659,-1.6512,-1.6509,-1.6533,-1.6599,-1.6571,-1.6491,-1.6527,-1.6607,-1.6628,-2.3442,-2.3012,-2.3019,-2.299,-2.2923,-2.3144,-2.3269,-2.3175,-2.3199,-2.3146,-2.2996,-2.2785,-2.2647,-2.2403,-2.2258,-2.1994,-2.154,-2.1227,-2.1001,-2.0783,-2.0486,-2.0378,-2.0252,-1.9974,-1.9912,-2.0079,-2.0046,-2.0086,-2.04,-2.0655,-2.0561,-2.0501,-2.0345,-2.003,-1.9594,-1.9188,-1.8675,-1.8424,-1.8388,-1.8547,-1.8847,-1.8788,-1.8787,-1.9064,-1.9111,-1.9161,-1.9023,-1.8808,-1.8512,-1.8404,-1.8915,-1.9105,-1.9045,-1.9272,-1.9501,-1.9802,-2.0123,-2.0435,-2.0716,-2.0859,-2.0862,-2.0885,-2.0805,-2.0644,-2.0371,-2.0243,-1.9949,-1.9573,-1.9225,-1.8995,-1.8982,-1.863,-1.8672,-1.8557,-1.8158,-1.7796,-1.7771,-1.7697,-1.7628,-1.742,-1.742,-1.7412,-1.7188,-1.7025,-1.6984,-1.6943,-1.6882,-1.6861,-1.682,-1.6689,-1.6504,-1.6368,-1.6211,-1.6219,-1.619,-1.6211,-1.6252,-1.6273,-1.6294,-1.6294,-1.6273,-1.6203,-1.6245,-1.6422,-1.6504,-1.644,-1.6386,-1.6327,-1.6306,-1.6348,-1.6294,-1.6232,-1.6314,-1.6409,-1.6443,-2.3801,-2.3347,-2.3186,-2.3018,-2.2923,-2.304,-2.3106,-2.3106,-2.3106,-2.3106,-2.3069,-2.2937,-2.2674,-2.2469,-2.2447,-2.1998,-2.1283,-2.0888,-2.0659,-2.0423,-1.9906,-1.9814,-1.9839,-1.9503,-1.9276,-1.9263,-1.9326,-1.9809,-2.0416,-2.0619,-2.057,-2.0394,-2.0269,-1.9914,-1.9309,-1.8638,-1.8304,-1.8081,-1.8108,-1.8316,-1.88,-1.8686,-1.889,-1.9001,-1.916,-1.9252,-1.9406,-1.9312,-1.9162,-1.9114,-1.9324,-1.9273,-1.9106,-1.9073,-1.9348,-1.9951,-2.0292,-2.0518,-2.0623,-2.0645,-2.0578,-2.0518,-2.0473,-2.0314,-2.0087,-1.9946,-1.9737,-1.919,-1.8985,-1.8641,-1.8227,-1.8173,-1.8091,-1.8002,-1.7714,-1.7456,-1.7281,-1.7127,-1.701,-1.6929,-1.6934,-1.6926,-1.6771,-1.6648,-1.6594,-1.6533,-1.6479,-1.6458,-1.6438,-1.6306,-1.6154,-1.6108,-1.6012,-1.6012,-1.6012,-1.5991,-1.5991,-1.6012,-1.604,-1.604,-1.6069,-1.6055,-1.6123,-1.6265,-1.6265,-1.6196,-1.6224,-1.619,-1.6128,-1.6095,-1.6095,-1.6087,-1.6128,-1.619,-1.6216,-2.3757,-2.3384,-2.3193,-2.3045,-2.2994,-2.3091,-2.3106,-2.3106,-2.3106,-2.3062,-2.301,-2.2967,-2.2582,-2.2126,-2.1851,-2.1424,-2.0517,-2.0181,-2.009,-1.99,-1.9306,-1.917,-1.9297,-1.898,-1.8629,-1.8963,-1.8792,-1.9105,-1.9889,-2.0221,-2.0212,-2.0048,-1.9988,-1.9662,-1.8928,-1.8445,-1.8053,-1.8021,-1.8013,-1.8225,-1.8459,-1.8952,-1.9108,-1.8959,-1.8993,-1.9197,-1.9375,-1.9383,-1.9328,-1.9264,-1.9271,-1.9176,-1.8736,-1.8496,-1.8889,-1.9669,-1.9897,-1.9942,-1.9965,-1.9973,-1.9874,-1.9783,-1.9897,-1.9669,-1.944,-1.9232,-1.9151,-1.8493,-1.8376,-1.8304,-1.7892,-1.7619,-1.7612,-1.7597,-1.741,-1.708,-1.7014,-1.6894,-1.6728,-1.6637,-1.6565,-1.65,-1.6438,-1.6368,-1.6355,-1.6355,-1.6294,-1.6162,-1.6121,-1.6059,-1.5955,-1.5922,-1.5867,-1.5867,-1.5867,-1.5825,-1.5797,-1.5777,-1.5806,-1.5829,-1.5899,-1.5955,-1.6046,-1.6084,-1.5922,-1.588,-1.5963,-1.5991,-1.5859,-1.5818,-1.5908,-1.5929,-1.5867,-1.5922,-1.5989,-2.3296,-2.2769,-2.301,-2.2945,-2.2731,-2.2965,-2.3082,-2.3082,-2.3029,-2.293,-2.2564,-2.2575,-2.2081,-2.1345,-2.0514,-1.9965,-1.9582,-1.9459,-1.9441,-1.9357,-1.9079,-1.899,-1.9283,-1.9296,-1.8746,-1.8676,-1.8677,-1.909,-1.9318,-1.9451,-1.9583,-1.9521,-1.9313,-1.9008,-1.8897,-1.8466,-1.8478,-1.8604,-1.8651,-1.8443,-1.8236,-1.9091,-1.9017,-1.862,-1.8574,-1.8785,-1.8793,-1.8801,-1.8676,-1.8434,-1.8357,-1.8272,-1.8179,-1.8179,-1.8179,-1.8388,-1.8566,-1.8796,-1.8981,-1.9058,-1.9012,-1.8935,-1.8835,-1.8589,-1.8542,-1.8473,-1.8427,-1.8211,-1.8141,-1.8095,-1.7888,-1.7934,-1.7995,-1.7842,-1.7568,-1.7432,-1.7302,-1.6897,-1.6715,-1.6503,-1.6466,-1.6354,-1.6255,-1.6184,-1.6136,-1.6115,-1.6074,-1.595,-1.5852,-1.579,-1.5748,-1.5701,-1.568,-1.568,-1.5701,-1.5659,-1.5713,-1.5649,-1.5693,-1.5752,-1.592,-1.603,-1.5872,-1.5864,-1.5753,-1.5765,-1.5937,-1.588,-1.5607,-1.5607,-1.5786,-1.5678,-1.5493,-1.559,-1.5777,-2.2795,-2.2921,-2.3034,-2.3025,-2.2892,-2.2836,-2.2825,-2.2695,-2.2233,-2.1937,-2.1744,-2.1409,-2.096,-2.0328,-1.9764,-1.9255,-1.8887,-1.8787,-1.8787,-1.8619,-1.842,-1.8279,-1.8345,-1.8078,-1.7824,-1.7916,-1.7647,-1.7595,-1.8116,-1.8733,-1.902,-1.9285,-1.9077,-1.893,-1.8842,-1.8543,-1.845,-1.8513,-1.8594,-1.8523,-1.8435,-1.8608,-1.8628,-1.8125,-1.8295,-1.8334,-1.8288,-1.8265,-1.8133,-1.7931,-1.7885,-1.7784,-1.7683,-1.766,-1.7652,-1.7683,-1.7746,-1.8002,-1.8334,-1.838,-1.8334,-1.8311,-1.8265,-1.8249,-1.811,-1.8087,-1.7994,-1.7877,-1.7877,-1.7807,-1.7707,-1.7637,-1.7637,-1.7593,-1.7558,-1.7416,-1.7288,-1.7108,-1.6818,-1.6588,-1.6387,-1.6317,-1.6202,-1.6009,-1.5941,-1.5904,-1.5853,-1.5725,-1.564,-1.5569,-1.5506,-1.5472,-1.5472,-1.5472,-1.5493,-1.55,-1.5727,-1.5743,-1.5824,-1.5919,-1.6125,-1.6162,-1.6045,-1.606,-1.6125,-1.6109,-1.6071,-1.5932,-1.5795,-1.5723,-1.5687,-1.5651,-1.56,-1.5482,-1.5621,-2.1919,-2.2304,-2.2524,-2.2616,-2.2577,-2.2188,-2.2014,-2.19,-2.129,-2.0944,-2.0679,-2.0181,-1.9681,-1.9378,-1.9014,-1.8509,-1.8188,-1.8188,-1.8188,-1.7931,-1.7629,-1.7578,-1.7704,-1.7267,-1.7051,-1.6887,-1.697,-1.7145,-1.7568,-1.7989,-1.8512,-1.8933,-1.8781,-1.8742,-1.8697,-1.8568,-1.8459,-1.8694,-1.8787,-1.8707,-1.8493,-1.8259,-1.8127,-1.7938,-1.79,-1.79,-1.7893,-1.7893,-1.7737,-1.7644,-1.7605,-1.7527,-1.7396,-1.738,-1.738,-1.738,-1.7426,-1.7543,-1.7776,-1.7893,-1.7893,-1.7893,-1.7893,-1.7846,-1.7846,-1.7893,-1.7846,-1.7597,-1.7597,-1.7473,-1.7356,-1.7326,-1.738,-1.738,-1.735,-1.718,-1.7056,-1.7051,-1.6979,-1.6765,-1.6595,-1.647,-1.6286,-1.5942,-1.5781,-1.5694,-1.56,-1.5541,-1.5534,-1.5555,-1.565,-1.5709,-1.5767,-1.5774,-1.5752,-1.5752,-1.5841,-1.5863,-1.5951,-1.6133,-1.6367,-1.6404,-1.6345,-1.6389,-1.6455,-1.6463,-1.6404,-1.6213,-1.603,-1.603,-1.6009,-1.5913,-1.5818,-1.5658,-1.5557,-2.0257,-2.0114,-2.0958,-2.1338,-2.1324,-2.0693,-2.05,-2.0622,-2.0426,-2.0124,-1.9711,-1.9021,-1.8594,-1.8401,-1.8102,-1.7743,-1.7602,-1.7573,-1.7631,-1.7596,-1.7519,-1.7506,-1.7493,-1.7439,-1.7352,-1.7351,-1.7187,-1.7415,-1.7802,-1.7953,-1.7945,-1.7791,-1.8482,-1.8484,-1.8543,-1.8622,-1.8755,-1.8966,-1.9078,-1.8805,-1.8535,-1.8253,-1.8024,-1.7528,-1.7394,-1.7356,-1.7356,-1.7419,-1.7442,-1.738,-1.7438,-1.7453,-1.7421,-1.739,-1.739,-1.739,-1.7324,-1.7387,-1.7473,-1.7473,-1.7403,-1.738,-1.7432,-1.7517,-1.7496,-1.7434,-1.7364,-1.7394,-1.7403,-1.738,-1.7309,-1.7309,-1.7309,-1.7309,-1.7309,-1.7266,-1.7208,-1.723,-1.7122,-1.6947,-1.6837,-1.6748,-1.669,-1.6418,-1.6133,-1.6052,-1.5935,-1.5877,-1.587,-1.5891,-1.6052,-1.6147,-1.6235,-1.6265,-1.6279,-1.6235,-1.6082,-1.6089,-1.6154,-1.6394,-1.6694,-1.6659,-1.6502,-1.6562,-1.6574,-1.6665,-1.6688,-1.6459,-1.6306,-1.6337,-1.6301,-1.6148,-1.6009,-1.5828,-1.5756,-1.9769,-1.9492,-1.9501,-1.993,-2.0618,-2.017,-2.0002,-1.9878,-1.9372,-1.8835,-1.8397,-1.8026,-1.783,-1.7772,-1.7655,-1.7367,-1.7256,-1.7426,-1.7367,-1.7309,-1.7367,-1.7455,-1.7485,-1.7514,-1.7473,-1.7577,-1.7601,-1.7722,-1.7963,-1.8399,-1.8685,-1.8776,-1.8767,-1.8816,-1.8902,-1.8914,-1.9063,-1.9109,-1.9096,-1.8803,-1.8679,-1.8364,-1.8086,-1.7667,-1.7602,-1.7485,-1.7353,-1.7317,-1.7309,-1.7353,-1.7477,-1.7529,-1.7536,-1.7543,-1.7543,-1.7514,-1.7404,-1.7331,-1.7331,-1.7324,-1.7309,-1.7337,-1.7463,-1.7543,-1.7426,-1.7485,-1.7448,-1.7397,-1.7346,-1.7397,-1.7324,-1.7317,-1.7309,-1.7309,-1.7339,-1.7375,-1.7382,-1.7419,-1.7346,-1.7202,-1.7166,-1.7113,-1.7055,-1.6974,-1.6704,-1.644,-1.6323,-1.6199,-1.6133,-1.6126,-1.6227,-1.6329,-1.6409,-1.6417,-1.6417,-1.6335,-1.6247,-1.6303,-1.6359,-1.6517,-1.6726,-1.6688,-1.6575,-1.6645,-1.6656,-1.6648,-1.6634,-1.6597,-1.6566,-1.6552,-1.6458,-1.6326,-1.6164,-1.5981,-1.5814,-1.8722,-1.8439,-1.8116,-1.867,-1.9615,-1.9189,-1.903,-1.8962,-1.82,-1.7619,-1.7214,-1.7185,-1.722,-1.722,-1.7185,-1.7162,-1.705,-1.7103,-1.7162,-1.7191,-1.7309,-1.7514,-1.769,-1.783,-1.7971,-1.8008,-1.8214,-1.8431,-1.8706,-1.9339,-1.9514,-1.9525,-1.952,-1.9562,-1.936,-1.9349,-1.9305,-1.9232,-1.9115,-1.8855,-1.8774,-1.8577,-1.8306,-1.796,-1.7836,-1.7682,-1.7485,-1.7397,-1.7309,-1.7361,-1.7463,-1.7618,-1.7631,-1.7646,-1.7653,-1.7572,-1.7477,-1.7353,-1.7426,-1.7448,-1.7499,-1.7682,-1.7806,-1.7799,-1.7726,-1.7823,-1.7821,-1.7704,-1.7631,-1.758,-1.7572,-1.7675,-1.7704,-1.7762,-1.7755,-1.7762,-1.7689,-1.7675,-1.7572,-1.7472,-1.7366,-1.7187,-1.7111,-1.7031,-1.6919,-1.6634,-1.6444,-1.6305,-1.6163,-1.6192,-1.6279,-1.6372,-1.6474,-1.6476,-1.6471,-1.6421,-1.6392,-1.6419,-1.6458,-1.6476,-1.657,-1.6544,-1.6588,-1.6615,-1.6608,-1.6615,-1.6563,-1.6472,-1.6588,-1.6734,-1.657,-1.6384,-1.6088,-1.5852,-1.565,-1.6926,-1.6613,-1.6926,-1.7607,-1.8308,-1.7446,-1.7333,-1.7611,-1.7008,-1.6684,-1.6626,-1.6626,-1.6626,-1.6626,-1.6685,-1.6749,-1.6873,-1.6808,-1.6956,-1.7338,-1.7573,-1.7749,-1.8123,-1.8438,-1.8548,-1.9123,-1.9259,-1.9361,-1.966,-2.0061,-2.0202,-2.0273,-2.0256,-2.0186,-1.9803,-1.9474,-1.9327,-1.9305,-1.9298,-1.9137,-1.8899,-1.8796,-1.8606,-1.8321,-1.8077,-1.793,-1.7675,-1.758,-1.7499,-1.7441,-1.7507,-1.7604,-1.7582,-1.7485,-1.7456,-1.7419,-1.739,-1.7492,-1.7762,-1.7777,-1.7955,-1.8123,-1.8196,-1.8211,-1.824,-1.8277,-1.8233,-1.8047,-1.8123,-1.8199,-1.825,-1.8267,-1.824,-1.8358,-1.8377,-1.8396,-1.8331,-1.8303,-1.8278,-1.8305,-1.7614,-1.7102,-1.7031,-1.6996,-1.6989,-1.6823,-1.6596,-1.6424,-1.631,-1.6301,-1.6396,-1.6432,-1.6549,-1.6533,-1.6542,-1.6521,-1.6518,-1.656,-1.6476,-1.6368,-1.6375,-1.6386,-1.6447,-1.6518,-1.6423,-1.6251,-1.6282,-1.6346,-1.627,-1.6208,-1.6474,-1.6325,-1.6044,-1.5693,-1.5418,-1.6775,-1.6508,-1.6631,-1.6855,-1.7067,-1.6814,-1.6749,-1.6803,-1.6596,-1.6508,-1.6508,-1.6508,-1.6508,-1.6508,-1.6508,-1.6543,-1.6578,-1.7385,-1.7619,-1.7543,-1.8064,-1.8606,-1.8955,-1.9042,-1.9152,-1.9383,-1.9666,-1.9998,-2.0102,-2.0558,-2.0809,-2.0891,-2.0644,-2.0451,-2.0144,-1.9896,-1.985,-1.9671,-1.9598,-1.9481,-1.918,-1.9115,-1.8975,-1.8635,-1.8489,-1.824,-1.7894,-1.7867,-1.7792,-1.7682,-1.7772,-1.7872,-1.7836,-1.7746,-1.7607,-1.7607,-1.7646,-1.7925,-1.8284,-1.8452,-1.8379,-1.8413,-1.8511,-1.8525,-1.8364,-1.8533,-1.8489,-1.8429,-1.8481,-1.8597,-1.8712,-1.8811,-1.8903,-1.9302,-1.9408,-1.9391,-1.9369,-1.9346,-1.9323,-1.9347,-1.8958,-1.8713,-1.8563,-1.8115,-1.7909,-1.764,-1.746,-1.6893,-1.6647,-1.6519,-1.6533,-1.654,-1.6575,-1.6593,-1.6579,-1.6521,-1.6423,-1.6402,-1.6232,-1.6001,-1.6038,-1.6116,-1.6076,-1.6059,-1.595,-1.5842,-1.5832,-1.5767,-1.5601,-1.5571,-1.5832,-1.5998,-1.5772,-1.5379,-1.4979,-1.6453,-1.6188,-1.6307,-1.6277,-1.6218,-1.6307,-1.6307,-1.6218,-1.6307,-1.6301,-1.6212,-1.6188,-1.639,-1.6596,-1.6679,-1.7062,-1.7067,-1.7642,-1.8279,-1.8146,-1.8729,-1.9245,-1.9506,-1.9679,-1.9859,-1.9975,-2.0285,-2.058,-2.0444,-2.0945,-2.1052,-2.0901,-2.0729,-2.0335,-2.0104,-1.9961,-1.985,-1.9642,-1.951,-1.9474,-1.9312,-1.9254,-1.9195,-1.8979,-1.8796,-1.8584,-1.8306,-1.8186,-1.8194,-1.8099,-1.8142,-1.8239,-1.8134,-1.7991,-1.779,-1.7741,-1.7858,-1.8067,-1.834,-1.8592,-1.8448,-1.8376,-1.8735,-1.884,-1.8777,-1.9091,-1.913,-1.9069,-1.894,-1.9138,-1.9429,-1.9495,-1.962,-2.002,-2.0061,-2.0044,-1.9924,-1.9876,-1.9924,-2.0013,-1.9997,-1.994,-1.9818,-1.9504,-1.9065,-1.87,-1.836,-1.7714,-1.7074,-1.6864,-1.6748,-1.6731,-1.6677,-1.6632,-1.6552,-1.6423,-1.6337,-1.6256,-1.6051,-1.5853,-1.5711,-1.5783,-1.5678,-1.5573,-1.5519,-1.5447,-1.5291,-1.5172,-1.5108,-1.5078,-1.5166,-1.5309,-1.538,-1.5118,-1.4712,-1.5893,-1.5645,-1.5952,-1.5917,-1.575,-1.614,-1.6041,-1.5674,-1.5987,-1.6011,-1.5728,-1.59,-1.6473,-1.6997,-1.7085,-1.7613,-1.8431,-1.8483,-1.8803,-1.9094,-1.9368,-1.9773,-2.0126,-2.0299,-2.0414,-2.0823,-2.0988,-2.0644,-2.0689,-2.0837,-2.0852,-2.0701,-2.0479,-2.0196,-1.9962,-1.9777,-1.9631,-1.9387,-1.9371,-1.9287,-1.9126,-1.9194,-1.9138,-1.9003,-1.88,-1.8666,-1.8477,-1.8397,-1.8306,-1.8226,-1.8243,-1.8127,-1.7988,-1.7899,-1.7718,-1.7696,-1.7861,-1.8017,-1.8384,-1.8631,-1.8825,-1.8945,-1.9228,-1.932,-1.9413,-1.9674,-1.9885,-1.9977,-1.9947,-2.0116,-2.0287,-2.0249,-2.0219,-2.0359,-2.0424,-2.0327,-2.0207,-2.0207,-2.0296,-2.0313,-2.028,-2.0198,-2.0048,-1.9828,-1.9933,-1.9571,-1.9172,-1.8714,-1.8047,-1.7239,-1.712,-1.6973,-1.6873,-1.6675,-1.6557,-1.6403,-1.6246,-1.6142,-1.6034,-1.5829,-1.5659,-1.5532,-1.5531,-1.5428,-1.5201,-1.5044,-1.489,-1.4812,-1.4763,-1.4732,-1.471,-1.4841,-1.4975,-1.488,-1.4568,-1.5412,-1.5319,-1.5412,-1.5768,-1.6295,-1.6832,-1.6446,-1.5532,-1.6275,-1.6569,-1.6362,-1.7236,-1.7572,-1.7987,-1.801,-1.825,-1.8658,-1.91,-1.9426,-1.9722,-2.004,-2.0565,-2.0737,-2.0673,-2.0752,-2.0701,-2.0687,-2.0565,-2.0458,-2.0565,-2.0565,-2.0385,-2.027,-2.0053,-1.9808,-1.9616,-1.9331,-1.9149,-1.9177,-1.9074,-1.8933,-1.895,-1.8883,-1.8719,-1.8643,-1.8494,-1.8349,-1.8409,-1.8283,-1.8141,-1.8102,-1.8019,-1.8012,-1.7785,-1.7604,-1.7846,-1.8023,-1.8275,-1.9004,-1.9284,-1.9439,-1.9828,-2.0248,-1.9964,-1.9983,-2.0189,-2.0652,-2.0684,-2.0759,-2.0819,-2.0849,-2.0834,-2.0737,-2.0688,-2.0761,-2.0728,-2.0671,-2.0786,-2.0851,-2.099,-2.0923,-2.0766,-2.054,-2.0621,-2.0677,-2.0338,-1.9976,-1.9542,-1.892,-1.8088,-1.7555,-1.7429,-1.7207,-1.7052,-1.6617,-1.6406,-1.6224,-1.6041,-1.5948,-1.5853,-1.5708,-1.5563,-1.5484,-1.5273,-1.4967,-1.4692,-1.4489,-1.4434,-1.4434,-1.4313,-1.4297,-1.4439,-1.4509,-1.4497,-1.4467,-1.5565,-1.5583,-1.569,-1.6051,-1.6559,-1.707,-1.6686,-1.6075,-1.6815,-1.7078,-1.7064,-1.7663,-1.8221,-1.8541,-1.8577,-1.881,-1.9274,-1.9686,-1.9982,-2.0126,-2.0601,-2.0658,-2.0709,-2.0673,-2.0551,-2.0472,-2.0414,-2.0342,-2.0241,-2.0133,-2.0104,-2.0075,-2.0018,-1.9745,-1.9476,-1.9256,-1.9036,-1.8946,-1.892,-1.8873,-1.8821,-1.8763,-1.8634,-1.845,-1.8384,-1.827,-1.8165,-1.8347,-1.8263,-1.8212,-1.8245,-1.8286,-1.8201,-1.7912,-1.7963,-1.8198,-1.837,-1.8887,-1.9535,-1.9805,-2.0145,-2.0532,-2.0891,-2.0789,-2.0729,-2.0883,-2.1113,-2.1234,-2.1308,-2.1353,-2.1346,-2.132,-2.1185,-2.104,-2.1095,-2.1147,-2.1255,-2.1387,-2.1545,-2.1719,-2.1633,-2.149,-2.1438,-2.1445,-2.131,-2.0829,-2.0542,-2.0322,-1.9639,-1.8752,-1.8256,-1.7986,-1.7707,-1.7456,-1.7009,-1.6631,-1.6503,-1.6298,-1.5973,-1.5858,-1.573,-1.546,-1.5211,-1.4938,-1.466,-1.4435,-1.424,-1.419,-1.4151,-1.4052,-1.4069,-1.426,-1.4381,-1.4348,-1.4305,-1.6166,-1.6207,-1.6572,-1.6744,-1.6761,-1.7092,-1.7088,-1.6917,-1.7444,-1.7612,-1.7623,-1.776,-1.8415,-1.9078,-1.9136,-1.9519,-1.9837,-2.0155,-2.0213,-2.027,-2.0357,-2.045,-2.0421,-2.0263,-2.0241,-2.0241,-2.0191,-2.0046,-2.0075,-1.9931,-1.9786,-1.9758,-1.9591,-1.9389,-1.9223,-1.9053,-1.8926,-1.8916,-1.8885,-1.8863,-1.882,-1.879,-1.8739,-1.8396,-1.8293,-1.8264,-1.8271,-1.8318,-1.8351,-1.8441,-1.8505,-1.8511,-1.8586,-1.8605,-1.8698,-1.8702,-1.889,-1.9302,-1.9805,-2.0009,-2.0112,-2.0421,-2.0832,-2.0994,-2.107,-2.1504,-2.1725,-2.1734,-2.177,-2.1545,-2.147,-2.1073,-2.0819,-2.0679,-2.0622,-2.0646,-2.0694,-2.0889,-2.1165,-2.1311,-2.1326,-2.1198,-2.0934,-2.0832,-2.0678,-2.0668,-2.0565,-2.0437,-2.0071,-1.9177,-1.8889,-1.853,-1.8163,-1.7881,-1.7577,-1.7238,-1.6957,-1.6673,-1.6264,-1.5938,-1.5846,-1.5399,-1.4855,-1.4641,-1.4427,-1.4242,-1.4086,-1.4035,-1.3986,-1.3946,-1.3995,-1.4177,-1.4235,-1.4242,-1.4273,-1.6857,-1.6914,-1.7448,-1.7679,-1.7682,-1.8006,-1.809,-1.8094,-1.8405,-1.8409,-1.8457,-1.9117,-1.9599,-1.9657,-1.9751,-2.0011,-2.0097,-2.0155,-2.027,-2.0213,-2.0213,-2.0162,-2.0213,-2.0011,-1.9953,-1.9844,-1.9764,-1.9678,-1.9678,-1.9562,-1.9511,-1.9511,-1.9395,-1.9321,-1.9247,-1.9085,-1.8971,-1.9033,-1.8987,-1.887,-1.8734,-1.8584,-1.8433,-1.8157,-1.8016,-1.794,-1.7913,-1.7853,-1.7806,-1.7826,-1.7853,-1.8328,-1.9097,-1.9611,-1.9966,-2.0046,-1.9602,-1.9798,-2.0104,-2.0266,-2.0215,-2.0532,-2.0891,-2.0942,-2.1249,-2.1962,-2.2283,-2.2173,-2.1988,-2.1703,-2.1362,-2.0882,-2.0461,-2.0307,-2.012,-2.011,-2.0091,-2.0369,-2.0688,-2.0759,-2.0832,-2.0634,-2.0377,-2.0197,-2.0042,-1.9887,-1.9713,-1.9609,-1.9687,-1.9209,-1.9306,-1.8998,-1.8563,-1.8269,-1.801,-1.778,-1.7457,-1.7113,-1.6704,-1.6349,-1.5974,-1.5241,-1.4603,-1.4401,-1.4205,-1.411,-1.4031,-1.3948,-1.3881,-1.3905,-1.3942,-1.411,-1.4203,-1.4224,-1.4258,-1.7175,-1.7359,-1.7971,-1.8218,-1.8275,-1.8551,-1.8593,-1.8508,-1.8647,-1.8621,-1.8595,-1.9416,-1.9844,-1.9751,-1.9809,-1.9809,-1.978,-1.9844,-1.97,-1.9693,-1.9837,-1.9851,-1.9793,-1.9729,-1.9678,-1.9569,-1.9511,-1.9424,-1.9395,-1.9424,-1.9424,-1.9395,-1.9395,-1.9417,-1.9397,-1.9241,-1.9185,-1.9361,-1.9201,-1.9047,-1.8839,-1.873,-1.8536,-1.823,-1.8096,-1.7996,-1.7929,-1.7889,-1.7796,-1.7969,-1.8242,-1.8968,-1.9703,-2.0196,-2.0607,-2.0617,-2.0411,-2.0189,-2.0575,-2.0601,-2.0377,-2.066,-2.0865,-2.0891,-2.0925,-2.1504,-2.1564,-2.1463,-2.1429,-2.1173,-2.103,-2.0637,-2.0343,-2.0161,-1.9857,-1.9676,-1.9674,-1.9798,-1.9952,-1.9968,-1.9998,-1.9946,-1.9765,-1.9739,-1.9609,-1.9583,-1.935,-1.9324,-1.9298,-1.9298,-1.9402,-1.9402,-1.8926,-1.8553,-1.8265,-1.8082,-1.7924,-1.7556,-1.7193,-1.6611,-1.607,-1.5069,-1.4357,-1.4252,-1.4204,-1.4171,-1.4093,-1.4002,-1.4018,-1.4083,-1.4078,-1.4083,-1.4132,-1.4196,-1.4223,-1.7372,-1.7626,-1.8149,-1.8413,-1.8453,-1.861,-1.852,-1.8322,-1.8381,-1.8358,-1.8336,-1.8971,-1.9055,-1.9084,-1.9149,-1.9062,-1.9062,-1.9207,-1.9091,-1.8968,-1.9149,-1.9214,-1.9301,-1.9366,-1.9424,-1.9453,-1.9424,-1.9395,-1.9395,-1.9395,-1.9395,-1.9395,-1.9395,-1.9395,-1.9395,-1.9388,-1.9395,-1.9395,-1.9341,-1.9368,-1.9254,-1.9085,-1.8778,-1.8604,-1.851,-1.8497,-1.8397,-1.8256,-1.8089,-1.8732,-1.9283,-2.0107,-2.0654,-2.1104,-2.1308,-2.1432,-2.104,-2.1027,-2.1139,-2.0832,-2.066,-2.066,-2.0712,-2.0712,-2.0686,-2.0694,-2.0745,-2.0745,-2.0712,-2.0763,-2.0619,-2.0364,-2.0125,-1.9952,-1.9613,-1.9376,-1.9383,-1.9383,-1.9383,-1.9398,-1.939,-1.939,-1.9357,-1.9331,-1.9305,-1.9298,-1.9298,-1.9298,-1.9298,-1.9298,-1.935,-1.9376,-1.9168,-1.8821,-1.8579,-1.8475,-1.8403,-1.816,-1.7766,-1.6975,-1.6166,-1.5314,-1.4635,-1.4245,-1.4196,-1.418,-1.4191,-1.4142,-1.4175,-1.4196,-1.4164,-1.4116,-1.4143,-1.4196,-1.4196,-1.7852,-1.7884,-1.7808,-1.789,-1.8057,-1.7872,-1.7721,-1.7737,-1.7976,-1.7954,-1.786,-1.8274,-1.8648,-1.8874,-1.8933,-1.8881,-1.8771,-1.8742,-1.8409,-1.8198,-1.8596,-1.8632,-1.869,-1.8923,-1.9307,-1.9278,-1.9191,-1.9336,-1.9039,-1.9191,-1.9366,-1.9278,-1.9307,-1.9336,-1.9336,-1.9307,-1.9191,-1.9162,-1.9191,-1.9156,-1.9176,-1.9046,-1.8923,-1.8771,-1.8617,-1.8544,-1.8464,-1.8437,-1.8837,-1.9665,-2.0725,-2.1454,-2.182,-2.1984,-2.2137,-2.1849,-2.1497,-2.1104,-2.096,-2.055,-2.0248,-1.9869,-1.9869,-1.9817,-1.9791,-1.9791,-1.9843,-1.9894,-1.9946,-2.0246,-2.0135,-1.9809,-1.9543,-1.958,-1.9401,-1.9412,-1.9434,-1.9404,-1.9382,-1.9375,-1.9353,-1.9346,-1.9298,-1.9305,-1.9305,-1.9298,-1.9298,-1.9298,-1.9298,-1.9298,-1.9272,-1.9272,-1.9272,-1.9272,-1.9116,-1.9004,-1.89,-1.8691,-1.8239,-1.7285,-1.6411,-1.5699,-1.5089,-1.4407,-1.4196,-1.4202,-1.4191,-1.4196,-1.4196,-1.4196,-1.4196,-1.418,-1.4196,-1.4196,-1.4196]},{"header":{"parameterUnit":"m.s-1","parameterCategory":1,"la1":31.0,"la2":29.5877,"lo1":-88.7671,"lo2":-86.6584,"dy":0.0162,"dx":0.0185,"nx":115,"ny":88,"refTime":"2023-10-08T06:00:00:Z","depth":0,"parameterNumber":3,"parameterNumberName":"V-component_of_WINDS"},"data":[0.0,0.0,0.0,0.0,0.0,0.0,0.0,0.0,0.0,0.0,0.0,0.0,0.0,0.0,0.0,0.0,0.0,0.0,0.0,0.0,0.0,0.0,0.0,0.0,0.0,0.0,0.0,0.0,0.0,0.0,0.0,0.0,0.0,0.0,0.0,0.0,0.0,0.0,0.0,0.0,0.0,0.0,0.0,0.0,0.0,0.0,0.0,0.0,0.0,0.0,0.0,0.0,0.0,0.0,0.0,0.0,0.0,0.0,0.0,0.0,0.0,0.0,0.0,0.0,0.0,0.0,0.0,0.0,0.0,0.0,0.0,0.0,0.0,0.0,0.0,0.0,0.0,0.0,0.0,0.0,0.0,0.0,0.0,0.0,0.0,0.0,0.0,0.0,0.0,0.0,0.0,0.0,0.0,0.0,0.0,0.0,0.0,0.0,0.0,0.0,0.0,0.0,0.0,0.0,0.0,0.0,0.0,0.0,0.0,0.0,0.0,0.0,0.0,0.0,0.0,0.0,0.0,0.0,0.0,0.0,0.0,0.0,0.0,0.0,0.0,0.0,0.0,0.0,0.0,0.0,0.0,0.0,0.0,0.0,0.0,0.0,0.0,0.0,0.0,0.0,0.0,0.0,0.0,0.0,0.0,0.0,0.0,0.0,0.0,0.0,0.0,0.0,0.0,0.0,0.0,0.0,0.0,0.0,0.0,0.0,0.0,0.0,0.0,0.0,0.0,0.0,0.0,0.0,0.0,0.0,0.0,0.0,0.0,0.0,0.0,0.0,0.0,0.0,0.0,0.0,0.0,0.0,0.0,0.0,0.0,0.0,0.0,0.0,0.0,0.0,0.0,0.0,0.0,0.0,0.0,0.0,0.0,0.0,0.0,0.0,0.0,0.0,0.0,0.0,0.0,0.0,0.0,0.0,0.0,0.0,0.0,0.0,0.0,0.0,0.0,0.0,0.0,0.0,0.0,0.0,0.0,0.0,0.0,0.0,0.0,0.0,0.0,0.0,0.0,0.0,0.0,0.0,0.0,0.0,0.0,0.0,0.0,0.0,0.0,0.0,0.0,0.0,0.0,0.0,0.0,0.0,0.0,0.0,0.0,0.0,0.0,0.0,0.0,0.0,0.0,0.0,0.0,0.0,0.0,0.0,0.0,0.0,0.0,0.0,0.0,0.0,0.0,0.0,0.0,0.0,0.0,0.0,0.0,0.0,0.0,0.0,0.0,0.0,0.0,0.0,0.0,0.0,0.0,0.0,0.0,0.0,0.0,0.0,0.0,0.0,0.0,0.0,0.0,0.0,0.0,0.0,0.0,0.0,0.0,0.0,0.0,0.0,0.0,0.0,0.0,0.0,0.0,0.0,0.0,0.0,0.0,0.0,0.0,0.0,0.0,0.0,0.0,0.0,0.0,0.0,0.0,0.0,0.0,0.0,0.0,0.0,0.0,0.0,0.0,0.0,0.0,0.0,0.0,0.0,0.0,0.0,0.0,0.0,0.0,0.0,0.0,0.0,0.0,0.0,0.0,0.0,0.0,0.0,0.0,0.0,0.0,0.0,0.0,0.0,0.0,0.0,0.0,0.0,0.0,0.0,0.0,0.0,0.0,0.0,0.0,0.0,0.0,0.0,0.0,0.0,0.0,0.0,0.0,0.0,0.0,0.0,0.0,0.0,0.0,0.0,0.0,0.0,0.0,0.0,0.0,0.0,0.0,0.0,0.0,0.0,0.0,0.0,0.0,0.0,0.0,0.0,0.0,0.0,0.0,0.0,0.0,0.0,0.0,0.0,0.0,0.0,0.0,0.0,0.0,0.0,0.0,0.0,0.0,0.0,0.0,0.0,0.0,0.0,0.0,0.0,0.0,0.0,0.0,0.0,0.0,0.0,0.0,0.0,0.0,0.0,0.0,0.0,0.0,0.0,0.0,0.0,0.0,0.0,0.0,0.0,0.0,0.0,0.0,0.0,0.0,0.0,0.0,0.0,0.0,0.0,0.0,0.0,0.0,0.0,0.0,0.0,0.0,0.0,0.0,0.0,0.0,0.0,0.0,0.0,0.0,0.0,0.0,0.0,0.0,0.0,0.0,0.0,0.0,0.0,0.0,0.0,0.0,0.0,0.0,0.0,0.0,0.0,0.0,0.0,0.0,0.0,0.0,0.0,0.0,0.0,0.0,0.0,0.0,0.0,0.0,0.0,0.0,0.0,0.0,0.0,0.0,0.0,0.0,0.0,0.0,0.0,0.0,0.0,0.0,0.0,0.0,0.0,0.0,0.0,0.0,0.0,0.0,0.0,0.0,0.0,0.0,0.0,0.0,0.0,0.0,0.0,0.0,0.0,0.0,0.0,0.0,0.0,0.0,0.0,0.0,0.0,0.0,0.0,0.0,0.0,0.0,0.0,0.0,0.0,0.0,0.0,0.0,0.0,0.0,0.0,0.0,0.0,0.0,0.0,0.0,0.0,0.0,0.0,0.0,0.0,0.0,0.0,0.0,0.0,0.0,0.0,0.0,0.0,0.0,0.0,0.0,0.0,0.0,0.0,0.0,0.0,0.0,0.0,0.0,0.0,0.0,0.0,0.0,0.0,0.0,0.0,0.0,0.0,0.0,0.0,0.0,0.0,0.0,0.0,0.0,0.0,0.0,0.0,0.0,0.0,0.0,0.0,0.0,0.0,0.0,0.0,0.0,0.0,0.0,0.0,0.0,0.0,0.0,0.0,0.0,0.0,0.0,0.0,0.0,0.0,0.0,0.0,0.0,0.0,0.0,0.0,0.0,0.0,0.0,0.0,0.0,0.0,0.0,0.0,0.0,0.0,0.0,0.0,0.0,0.0,0.0,0.0,0.0,0.0,0.0,0.0,0.0,0.0,0.0,0.0,0.0,0.0,0.0,0.0,0.0,0.0,0.0,0.0,0.0,0.0,0.0,0.0,0.0,0.0,0.0,0.0,0.0,0.0,0.0,0.0,0.0,0.0,0.0,0.0,0.0,0.0,0.0,0.0,0.0,0.0,0.0,0.0,0.0,0.0,0.0,0.0,0.0,0.0,0.0,0.0,0.0,0.0,0.0,0.0,0.0,0.0,0.0,0.0,0.0,0.0,0.0,0.0,0.0,0.0,0.0,0.0,0.0,0.0,0.0,0.0,0.0,0.0,0.0,0.0,0.0,0.0,0.0,0.0,0.0,0.0,0.0,0.0,0.0,0.0,0.0,0.0,0.0,0.0,0.0,0.0,0.0,0.0,0.0,0.0,0.0,0.0,0.0,0.0,0.0,0.0,0.0,0.0,0.0,0.0,0.0,0.0,0.0,0.0,0.0,0.0,0.0,0.0,0.0,0.0,0.0,0.0,0.0,0.0,0.0,0.0,0.0,0.0,0.0,0.0,0.0,0.0,0.0,0.0,0.0,0.0,0.0,0.0,0.0,0.0,0.0,0.0,0.0,0.0,0.0,0.0,0.0,0.0,0.0,0.0,0.0,0.0,0.0,0.0,0.0,0.0,0.0,0.0,0.0,0.0,0.0,0.0,0.0,0.0,0.0,0.0,0.0,0.0,0.0,0.0,0.0,0.0,0.0,0.0,0.0,0.0,0.0,0.0,0.0,0.0,0.0,0.0,0.0,0.0,0.0,0.0,0.0,0.0,0.0,0.0,0.0,0.0,0.0,0.0,0.0,0.0,0.0,0.0,0.0,0.0,0.0,0.0,0.0,0.0,0.0,0.0,0.0,0.0,0.0,0.0,0.0,0.0,0.0,0.0,0.0,0.0,0.0,0.0,0.0,0.0,0.0,0.0,0.0,0.0,0.0,0.0,0.0,0.0,0.0,0.0,0.0,0.0,0.0,0.0,0.0,0.0,0.0,0.0,0.0,0.0,0.0,0.0,0.0,0.0,0.0,0.0,0.0,0.0,0.0,0.0,0.0,0.0,0.0,0.0,0.0,0.0,0.0,0.0,0.0,0.0,0.0,0.0,0.0,0.0,0.0,0.0,0.0,0.0,0.0,0.0,0.0,0.0,0.0,0.0,0.0,0.0,0.0,0.0,0.0,0.0,0.0,0.0,0.0,0.0,0.0,0.0,0.0,0.0,0.0,0.0,0.0,0.0,0.0,0.0,0.0,0.0,0.0,0.0,0.0,0.0,0.0,0.0,0.0,0.0,0.0,0.0,0.0,0.0,0.0,0.0,0.0,0.0,0.0,0.0,0.0,0.0,0.0,0.0,0.0,0.0,0.0,0.0,0.0,0.0,0.0,0.0,0.0,0.0,0.0,0.0,0.0,0.0,1.3683,0.0,0.0,0.0,0.0,0.0,0.0,0.0,0.0,0.0,0.0,0.0,0.0,0.0,0.0,0.0,0.0,0.0,0.0,0.0,0.0,0.0,0.0,0.0,0.0,0.0,0.0,0.0,0.0,0.0,0.0,0.0,0.0,0.0,0.0,0.0,0.0,0.0,0.0,0.0,0.0,0.0,0.0,0.0,0.0,0.0,0.0,0.0,0.0,0.0,0.0,0.0,0.0,0.0,0.0,0.0,0.0,0.0,0.0,0.0,0.0,0.0,0.0,0.0,0.0,0.0,0.0,0.0,0.0,0.0,0.0,0.0,0.0,0.0,0.0,0.0,0.0,0.0,0.0,0.0,0.0,0.0,0.0,0.0,0.0,0.0,0.0,0.0,0.0,0.0,0.0,0.0,0.0,0.0,0.0,0.0,0.0,0.0,0.0,0.0,0.0,0.0,0.0,0.0,0.0,0.0,0.0,0.0,0.0,0.0,0.0,1.3744,1.4119,1.4105,1.4068,1.3973,0.0,0.0,0.0,0.0,0.0,0.0,0.0,0.0,0.0,0.0,0.0,0.0,0.0,0.0,0.0,0.0,0.0,0.0,0.0,0.0,0.0,0.0,0.0,0.0,0.0,0.0,0.0,0.0,0.0,0.0,0.0,0.0,0.0,0.0,0.0,0.0,0.0,0.0,0.0,0.0,0.0,0.0,0.0,0.0,0.0,0.0,0.0,0.0,0.0,0.0,0.0,0.0,0.0,0.0,0.0,0.0,0.0,0.0,0.0,0.0,0.0,0.0,0.0,0.0,0.0,0.0,0.0,0.0,0.0,0.0,0.0,0.0,0.0,0.0,0.0,0.0,0.0,0.0,0.0,0.0,0.0,0.0,0.0,0.0,0.0,0.0,0.0,0.0,0.0,0.0,0.0,0.0,0.0,0.0,0.0,0.0,0.0,0.0,0.0,0.0,0.0,0.0,0.0,0.0,0.0,0.0,0.0,0.0,0.0,0.0,0.0,0.0,1.4192,1.3967,1.3574,0.0,0.0,0.0,0.0,0.0,0.0,0.0,0.0,0.0,0.0,0.0,0.0,0.0,0.0,0.0,0.0,0.0,0.0,0.0,0.0,0.0,0.0,0.0,0.0,0.0,0.0,0.0,0.0,0.0,0.0,0.0,0.0,0.0,0.0,0.0,0.0,0.0,0.0,0.0,0.0,0.0,0.0,0.0,0.0,0.0,0.0,0.0,0.0,0.0,0.0,0.0,0.0,0.0,0.0,0.0,0.0,0.0,0.0,0.0,0.0,0.0,0.0,0.0,0.0,0.0,0.0,0.0,0.0,0.0,0.0,0.0,0.0,0.0,0.0,0.0,0.0,0.0,0.0,0.0,0.0,0.0,0.0,0.0,0.0,0.0,0.0,0.0,0.0,0.0,0.0,0.0,0.0,0.0,0.0,0.0,0.0,0.0,0.0,0.0,0.0,0.0,0.0,0.0,0.0,0.0,0.0,0.0,0.0,0.0,0.0,1.4265,1.4208,1.4262,0.0,1.213,0.0,0.0,0.0,0.0,0.0,0.0,0.0,0.0,0.0,0.0,0.0,0.0,0.0,0.0,0.0,0.0,0.0,0.0,0.0,0.0,0.0,0.0,0.0,0.0,0.0,0.0,0.0,0.0,0.0,0.0,0.0,0.0,0.0,0.0,0.0,0.0,0.0,0.0,0.0,0.0,0.0,0.0,0.0,0.0,0.0,0.0,0.0,0.0,0.0,0.0,0.0,0.0,0.0,0.0,0.0,0.0,0.0,0.0,0.0,0.0,0.0,0.0,0.0,0.0,0.0,0.0,0.0,0.0,0.0,0.0,0.0,0.0,0.0,0.0,0.0,0.0,0.0,0.0,0.0,0.0,0.0,0.0,0.0,0.0,0.0,0.0,0.0,0.0,0.0,0.0,0.0,0.0,0.0,0.0,0.0,0.0,0.0,0.0,0.0,0.0,0.0,0.0,0.0,0.0,0.0,0.0,0.0,0.0,0.0,0.0,1.4287,1.4247,1.4287,1.3763,0.0,0.0,0.0,0.0,0.0,0.0,0.0,0.0,0.0,0.0,0.0,0.0,0.0,0.0,0.0,0.0,0.0,0.0,0.0,0.0,0.0,0.0,0.0,0.0,0.0,0.0,0.0,0.0,0.0,0.0,0.0,0.0,0.0,0.0,0.0,0.0,0.0,0.0,0.0,0.0,0.0,0.0,0.0,0.0,0.0,0.0,0.0,0.0,0.0,0.0,0.0,0.0,0.0,0.0,0.0,0.0,0.0,0.0,0.0,0.0,0.0,0.0,0.0,0.0,0.0,0.0,0.0,0.0,0.0,0.0,0.0,0.0,0.0,0.0,0.0,0.0,0.0,0.0,0.0,0.0,0.0,0.0,0.0,0.0,0.0,0.0,0.0,0.0,0.0,0.0,0.0,0.0,0.0,0.0,0.0,0.0,0.0,0.0,0.0,0.0,0.0,0.0,0.0,0.0,0.0,0.0,0.0,0.0,0.0,0.0,1.4038,1.4337,1.4295,1.4122,1.3718,1.3138,0.0,0.0,0.0,0.0,0.0,0.0,0.0,0.0,0.0,0.0,0.0,0.0,0.0,0.0,0.0,0.0,0.0,0.0,0.0,0.0,0.0,0.0,0.0,0.0,0.0,0.0,0.0,0.0,0.0,0.0,0.0,0.0,0.0,0.0,0.0,0.0,0.0,0.0,0.0,0.0,0.0,0.0,0.0,0.0,0.0,0.0,0.0,0.0,0.0,0.0,0.0,0.0,0.0,0.0,0.0,0.0,0.0,0.0,0.0,0.0,0.0,0.0,0.0,0.0,0.0,0.0,0.0,0.0,0.0,0.0,0.0,0.0,0.0,0.0,0.0,0.0,0.0,0.0,0.0,0.0,0.0,0.0,0.0,0.0,0.0,0.0,0.0,0.0,0.0,0.0,0.0,0.0,0.0,0.0,0.0,0.0,0.0,0.0,0.0,0.0,0.0,0.0,0.0,0.0,0.0,0.0,0.0,0.0,1.4298,1.4374,1.4392,1.439,1.3659,1.3224,0.0,0.0,0.0,0.0,0.0,0.0,0.0,0.0,0.0,0.0,0.0,0.0,0.0,0.0,0.0,0.0,0.0,0.0,0.0,0.0,0.0,0.0,0.0,0.0,0.0,0.0,0.0,0.0,0.0,0.0,0.0,0.0,0.0,0.0,0.0,0.0,0.0,0.0,0.0,0.0,0.0,0.0,0.0,0.0,0.0,0.0,0.0,0.0,0.0,0.0,0.0,0.0,0.0,0.0,0.0,0.0,0.0,0.0,0.0,0.0,0.0,0.0,0.0,0.0,0.0,0.0,0.0,0.0,0.0,0.0,0.0,0.0,0.0,0.0,0.0,0.0,0.0,0.0,0.0,0.0,0.0,0.0,0.0,0.0,0.0,0.0,0.0,0.0,0.0,0.0,0.0,0.0,0.0,0.0,0.0,0.0,0.0,0.0,0.0,0.0,0.0,0.0,0.0,0.0,0.0,0.0,0.0,0.0,0.0,1.4329,1.4378,1.4422,1.4443,1.4142,1.3988,0.0,0.0,0.0,0.0,0.0,0.0,0.0,0.0,0.0,0.0,0.0,0.0,0.0,0.0,0.0,0.0,0.0,0.0,0.0,0.0,0.0,0.0,0.0,0.0,0.0,0.0,0.0,0.0,0.0,0.0,0.0,0.0,0.0,0.0,0.0,0.0,0.0,0.0,0.0,0.0,0.0,0.0,0.0,0.0,0.0,0.0,0.0,0.0,0.0,0.0,0.0,0.0,0.0,0.0,0.0,0.0,0.0,0.0,0.0,0.0,0.0,0.0,0.0,0.0,0.0,0.0,0.0,0.0,0.0,0.0,0.0,0.0,0.0,0.0,0.0,0.0,0.0,0.0,0.0,0.0,0.0,0.0,0.0,0.0,0.0,0.0,0.0,0.0,0.0,0.0,0.0,0.0,0.0,0.0,0.0,0.0,0.0,0.0,0.0,0.0,0.0,0.0,0.0,0.0,0.0,0.0,0.0,0.0,0.0,1.4393,0.0,1.4495,1.4549,1.4482,1.4465,0.0,0.0,0.0,0.0,0.0,0.0,0.0,0.0,0.0,0.0,0.0,0.0,0.0,0.0,0.0,0.0,0.0,0.0,0.0,0.0,0.0,0.0,0.0,0.0,0.0,0.0,0.0,0.0,0.0,0.0,0.0,0.0,0.0,0.0,0.0,0.0,0.0,0.0,0.0,0.0,0.0,0.0,0.0,0.0,0.0,0.0,0.0,0.0,0.0,0.0,0.0,0.0,0.0,0.0,0.0,0.0,0.0,0.0,0.0,0.0,0.0,0.0,0.0,0.0,0.0,0.0,0.0,0.0,0.0,0.0,0.0,0.0,0.0,0.0,0.0,0.0,0.0,0.0,0.0,0.0,0.0,0.0,0.0,0.0,0.0,0.0,0.0,0.0,0.0,0.0,0.0,0.0,0.0,0.0,0.0,0.0,0.0,0.0,0.0,0.0,0.0,0.0,0.0,0.0,0.0,0.0,0.0,0.0,1.4502,1.4619,1.4619,1.4654,1.4702,1.4598,1.4547,0.0,0.0,0.0,0.0,0.0,0.0,0.0,0.0,0.0,0.0,0.0,0.0,0.0,0.0,0.0,0.0,0.0,0.0,0.0,0.0,0.0,0.0,0.0,0.0,0.0,0.0,0.0,0.0,0.0,0.0,0.0,0.0,0.0,0.0,0.0,0.0,0.0,0.0,0.0,0.0,0.0,0.0,0.0,0.0,0.0,0.0,0.0,0.0,0.0,0.0,0.0,0.0,0.0,0.0,0.0,0.0,0.0,0.0,0.0,0.0,0.0,0.0,0.0,0.0,0.0,0.0,0.0,0.0,0.0,0.0,0.0,0.0,0.0,0.0,0.0,0.0,0.0,0.0,0.0,0.0,0.0,0.0,0.0,0.0,0.0,0.0,0.0,0.0,0.0,0.0,0.0,0.0,0.0,0.0,0.0,0.0,0.0,0.0,0.0,0.0,0.0,0.0,0.0,0.0,0.0,0.0,0.0,0.0,0.0,1.544,1.4918,1.4969,1.5543,1.4969,1.4953,0.0,0.0,0.0,0.0,0.0,0.0,0.0,0.0,0.0,0.0,0.0,0.0,0.0,0.0,0.0,0.0,0.0,0.0,0.0,0.0,0.0,0.0,0.0,0.0,0.0,0.0,0.0,0.0,0.0,0.0,0.0,0.0,0.0,0.0,0.0,0.0,0.0,0.0,0.0,0.0,0.0,0.0,0.0,0.0,0.0,0.0,0.0,0.0,0.0,0.0,0.0,0.0,0.0,0.0,0.0,0.0,0.0,0.0,0.0,0.0,0.0,0.0,0.0,0.0,0.0,0.0,0.0,0.0,0.0,0.0,0.0,0.0,0.0,0.0,0.0,0.0,0.0,0.0,0.0,0.0,0.0,0.0,0.0,0.0,0.0,0.0,0.0,0.0,0.0,0.0,0.0,0.0,0.0,0.0,0.0,0.0,0.0,0.0,0.0,0.0,0.0,0.0,0.0,0.0,0.0,0.0,0.0,0.0,0.0,1.7579,1.6326,1.5903,1.6458,1.5913,1.5612,1.5651,0.0,0.0,0.0,0.0,0.0,0.0,0.0,0.0,0.0,0.0,0.0,0.0,0.0,0.0,0.0,0.0,0.0,0.0,0.0,0.0,0.0,0.0,0.0,0.0,0.0,0.0,0.0,0.0,0.0,0.0,0.0,0.0,0.0,0.0,0.0,0.0,0.0,0.0,0.0,0.0,0.0,0.0,0.0,0.0,0.0,0.0,0.0,0.0,0.0,0.0,0.0,0.0,0.0,0.0,0.0,0.0,0.0,0.0,0.0,0.0,0.0,0.0,0.0,0.0,0.0,0.0,0.0,0.0,0.0,0.0,0.0,0.0,0.0,0.0,0.0,0.0,0.0,0.0,0.0,0.0,0.0,0.0,0.0,0.0,0.0,0.0,0.0,0.0,0.0,0.0,0.0,0.0,0.0,0.0,0.0,0.0,0.0,0.0,0.0,0.0,0.0,0.0,0.0,0.0,0.0,0.0,0.0,0.0,2.081,1.8746,1.7607,1.7519,1.7338,1.6564,0.0,0.0,0.0,0.0,0.0,0.0,0.0,0.0,0.0,0.0,0.0,0.0,0.0,0.0,0.0,0.0,0.0,0.0,0.0,0.0,0.0,0.0,0.0,0.0,0.0,0.0,0.0,0.0,0.0,0.0,0.0,0.0,0.0,0.0,0.0,0.0,0.0,0.0,0.0,0.0,0.0,0.0,0.0,0.0,0.0,0.0,0.0,0.0,0.0,0.0,0.0,0.0,0.0,0.0,0.0,0.0,0.0,0.0,0.0,0.0,0.0,0.0,0.0,0.0,0.0,0.0,0.0,0.0,0.0,0.0,0.0,0.0,0.0,0.0,0.0,0.0,0.0,0.0,0.0,0.0,0.0,0.0,0.0,0.0,0.0,0.0,0.0,0.0,0.0,0.0,0.0,0.0,0.0,0.0,0.0,0.0,0.0,0.0,0.0,0.0,0.0,0.0,0.0,0.0,0.0,0.0,0.0,0.0,0.0,2.2558,2.2582,2.1745,2.0022,1.9351,1.8617,0.0,0.0,0.0,0.0,0.0,0.0,0.0,0.0,0.0,0.0,0.0,0.0,0.0,0.0,0.0,0.0,0.0,0.0,0.0,0.0,0.0,0.0,0.0,0.0,0.0,0.0,0.0,0.0,0.0,0.0,0.0,0.0,0.0,0.0,0.0,0.0,0.0,0.0,0.0,0.0,0.0,0.0,0.0,0.0,0.0,0.0,0.0,0.0,0.0,0.0,0.0,0.0,0.0,0.0,0.0,0.0,0.0,0.0,0.0,0.0,0.0,0.0,0.0,0.0,0.0,0.0,0.0,0.0,0.0,0.0,0.0,0.0,0.0,0.0,0.0,0.0,0.0,0.0,0.0,0.0,0.0,0.0,0.0,0.0,0.0,0.0,0.0,0.0,0.0,0.0,0.0,0.0,0.0,0.0,0.0,0.0,0.0,0.0,0.0,0.0,0.0,0.0,0.0,0.0,0.0,0.0,0.0,0.0,2.3075,2.4238,2.5397,2.5181,2.352,2.2028,2.0426,0.0,0.0,0.0,0.0,0.0,0.0,0.0,0.0,0.0,0.0,0.0,0.0,0.0,0.0,0.0,0.0,0.0,0.0,0.0,0.0,0.0,0.0,0.0,0.0,0.0,0.0,0.0,0.0,0.0,0.0,0.0,0.0,0.0,0.0,0.0,0.0,0.0,0.0,0.0,0.0,0.0,0.0,0.0,0.0,0.0,0.0,0.0,0.0,0.0,0.0,0.0,0.0,0.0,0.0,0.0,0.0,0.0,0.0,0.0,0.0,0.0,0.0,0.0,0.0,0.0,0.0,0.0,0.0,0.0,0.0,0.0,0.0,0.0,0.0,0.0,0.0,0.0,0.0,0.0,0.0,0.0,0.0,0.0,0.0,0.0,0.0,0.0,0.0,0.0,0.0,0.0,0.0,0.0,0.0,0.0,0.0,0.0,0.0,0.0,0.0,0.0,0.0,0.0,0.0,0.0,0.0,0.0,0.0,2.407,2.5606,2.7288,2.7831,2.7111,2.4891,2.2221,0.0,0.0,0.0,0.0,0.0,0.0,0.0,0.0,0.0,0.0,0.0,0.0,0.0,0.0,0.0,0.0,0.0,0.0,0.0,0.0,0.0,0.0,0.0,0.0,0.0,0.0,0.0,0.0,0.0,0.0,0.0,0.0,0.0,0.0,0.0,0.0,0.0,0.0,0.0,0.0,0.0,0.0,0.0,0.0,0.0,0.0,0.0,0.0,0.0,0.0,0.0,0.0,0.0,0.0,0.0,0.0,0.0,0.0,0.0,0.0,0.0,0.0,0.0,0.0,0.0,0.0,0.0,0.0,0.0,0.0,0.0,0.0,0.0,0.0,0.0,0.0,0.0,0.0,0.0,0.0,0.0,0.0,0.0,0.0,0.0,0.0,0.0,0.0,0.0,0.0,0.0,0.0,0.0,0.0,0.0,0.0,0.0,0.0,0.0,0.0,0.0,0.0,0.0,0.0,0.0,0.0,0.0,0.0,2.4654,2.5756,2.8002,2.8829,2.811,2.6332,2.444,0.0,0.0,0.0,0.0,0.0,0.0,0.0,0.0,0.0,0.0,0.0,0.0,0.0,0.0,0.0,0.0,0.0,0.0,0.0,0.0,0.0,0.0,0.0,0.0,0.0,0.0,0.0,0.0,0.0,0.0,0.0,0.0,0.0,0.0,0.0,0.0,0.0,0.0,0.0,0.0,0.0,0.0,0.0,0.0,0.0,0.0,0.0,0.0,1.9067,0.0,0.0,0.0,0.0,0.0,0.0,0.0,0.0,0.0,0.0,0.0,0.0,0.0,0.0,0.0,0.0,0.0,0.0,0.0,0.0,0.0,0.0,0.0,0.0,0.0,0.0,0.0,0.0,0.0,0.0,0.0,0.0,0.0,0.0,0.0,0.0,0.0,0.0,0.0,0.0,0.0,0.0,0.0,0.0,0.0,0.0,0.0,0.0,0.0,0.0,0.0,0.0,0.0,0.0,0.0,0.0,0.0,0.0,0.0,2.5556,2.6884,2.8517,2.9256,2.8924,2.7378,2.5773,0.0,0.0,0.0,0.0,0.0,0.0,0.0,0.0,0.0,0.0,0.0,0.0,0.0,0.0,0.0,0.0,0.0,0.0,0.0,0.0,0.0,0.0,0.0,0.0,0.0,0.0,0.0,0.0,0.0,0.0,0.0,0.0,0.0,0.0,0.0,0.0,0.0,0.0,0.0,0.0,0.0,0.0,0.0,0.0,0.0,0.0,0.0,0.0,0.0,0.0,0.0,0.0,0.0,0.0,0.0,0.0,0.0,0.0,0.0,0.0,0.0,0.0,0.0,0.0,0.0,0.0,0.0,0.0,0.0,0.0,0.0,0.0,0.0,0.0,0.0,0.0,0.0,0.0,0.0,0.0,0.0,0.0,0.0,0.0,0.0,0.0,0.0,0.0,0.0,0.0,0.0,0.0,0.0,0.0,0.0,0.0,0.0,0.0,0.0,0.0,0.0,0.0,0.0,0.0,0.0,0.0,0.0,2.5151,2.635,2.799,2.888,2.9414,2.9555,2.8028,2.6557,2.5243,0.0,0.0,0.0,0.0,0.0,0.0,0.0,0.0,0.0,0.0,0.0,0.0,0.0,0.0,0.0,0.0,0.0,0.0,0.0,0.0,0.0,0.0,0.0,0.0,0.0,0.0,0.0,0.0,0.0,0.0,0.0,0.0,0.0,0.0,0.0,0.0,0.0,0.0,1.9479,1.9555,0.0,0.0,0.0,0.0,0.0,0.0,0.0,0.0,1.979,0.0,0.0,0.0,0.0,0.0,0.0,0.0,0.0,0.0,0.0,0.0,0.0,0.0,0.0,0.0,0.0,0.0,0.0,0.0,0.0,0.0,0.0,0.0,0.0,0.0,0.0,0.0,0.0,0.0,0.0,0.0,0.0,0.0,0.0,0.0,0.0,0.0,0.0,0.0,0.0,0.0,0.0,0.0,0.0,0.0,0.0,0.0,0.0,0.0,0.0,0.0,0.0,0.0,0.0,0.0,0.0,2.4954,2.5372,2.6304,2.7819,2.8913,2.9511,2.956,2.7988,2.7041,2.6818,0.0,0.0,0.0,0.0,0.0,0.0,0.0,0.0,0.0,0.0,0.0,0.0,0.0,0.0,0.0,0.0,0.0,0.0,0.0,0.0,0.0,0.0,0.0,0.0,0.0,0.0,0.0,0.0,0.0,0.0,0.0,0.0,0.0,0.0,0.0,0.0,0.0,0.0,0.0,1.9513,1.9591,0.0,0.0,0.0,0.0,0.0,0.0,0.0,0.0,1.9928,0.0,0.0,0.0,0.0,0.0,0.0,0.0,0.0,0.0,0.0,0.0,0.0,0.0,0.0,0.0,0.0,0.0,0.0,0.0,0.0,0.0,0.0,0.0,0.0,0.0,0.0,0.0,0.0,0.0,0.0,0.0,0.0,0.0,0.0,0.0,0.0,0.0,0.0,0.0,0.0,0.0,0.0,0.0,0.0,0.0,0.0,0.0,0.0,0.0,0.0,0.0,0.0,0.0,0.0,0.0,2.5863,2.65,2.7379,2.855,2.9102,2.9453,2.9508,2.7969,2.713,0.0,0.0,0.0,0.0,0.0,0.0,0.0,0.0,0.0,0.0,0.0,0.0,0.0,0.0,0.0,0.0,0.0,0.0,0.0,0.0,0.0,0.0,0.0,0.0,0.0,0.0,0.0,0.0,0.0,0.0,0.0,0.0,0.0,0.0,0.0,0.0,0.0,0.0,0.0,0.0,1.9888,2.023,2.0259,0.0,0.0,0.0,0.0,0.0,0.0,2.0324,2.0318,0.0,0.0,0.0,0.0,0.0,0.0,0.0,0.0,0.0,0.0,0.0,0.0,0.0,0.0,0.0,0.0,0.0,0.0,0.0,0.0,0.0,0.0,0.0,0.0,0.0,0.0,0.0,0.0,0.0,0.0,0.0,0.0,0.0,0.0,0.0,0.0,0.0,0.0,0.0,0.0,0.0,0.0,0.0,0.0,0.0,0.0,0.0,0.0,0.0,0.0,0.0,0.0,0.0,0.0,0.0,2.6604,2.7474,2.8333,2.9198,2.9299,2.9379,2.9478,2.7942,2.7112,0.0,0.0,0.0,0.0,0.0,0.0,0.0,0.0,0.0,0.0,0.0,0.0,0.0,0.0,0.0,0.0,0.0,0.0,0.0,0.0,0.0,0.0,0.0,0.0,0.0,0.0,0.0,0.0,0.0,0.0,0.0,0.0,0.0,0.0,0.0,0.0,0.0,0.0,0.0,0.0,0.0,2.0793,2.0847,2.1056,0.0,0.0,0.0,0.0,2.0633,2.1177,0.0,0.0,0.0,0.0,0.0,0.0,0.0,0.0,0.0,0.0,0.0,0.0,0.0,0.0,0.0,0.0,0.0,0.0,0.0,0.0,0.0,0.0,0.0,0.0,0.0,0.0,0.0,0.0,0.0,0.0,0.0,0.0,0.0,0.0,0.0,0.0,0.0,0.0,0.0,0.0,0.0,0.0,0.0,0.0,0.0,0.0,0.0,0.0,0.0,0.0,0.0,0.0,0.0,0.0,0.0,0.0,2.6441,2.7403,2.8286,2.9006,2.9273,2.9428,2.9478,2.796,2.7151,0.0,0.0,0.0,0.0,0.0,0.0,0.0,0.0,0.0,0.0,0.0,0.0,0.0,0.0,0.0,0.0,0.0,0.0,0.0,0.0,0.0,0.0,0.0,0.0,0.0,0.0,0.0,0.0,0.0,0.0,0.0,0.0,0.0,0.0,0.0,0.0,0.0,0.0,0.0,0.0,0.0,2.0646,2.0714,2.1384,2.1864,0.0,0.0,2.3176,2.3015,2.3709,0.0,0.0,0.0,0.0,0.0,0.0,0.0,0.0,0.0,0.0,0.0,0.0,0.0,0.0,0.0,0.0,0.0,0.0,0.0,0.0,0.0,0.0,0.0,0.0,0.0,0.0,0.0,0.0,0.0,0.0,0.0,0.0,0.0,0.0,0.0,0.0,0.0,0.0,0.0,0.0,0.0,0.0,0.0,0.0,0.0,0.0,0.0,0.0,0.0,0.0,0.0,0.0,0.0,0.0,0.0,2.6901,2.7322,2.8141,2.8779,2.9217,2.9382,2.9472,2.9516,2.8362,2.7604,0.0,0.0,0.0,0.0,0.0,0.0,0.0,0.0,0.0,0.0,0.0,0.0,0.0,0.0,0.0,0.0,0.0,0.0,0.0,0.0,0.0,0.0,0.0,0.0,0.0,0.0,0.0,0.0,0.0,0.0,0.0,0.0,0.0,0.0,0.0,0.0,0.0,0.0,0.0,0.0,0.0,0.0,2.2029,2.2823,0.0,0.0,0.0,2.3923,2.3471,0.0,0.0,0.0,0.0,0.0,0.0,0.0,0.0,0.0,0.0,0.0,0.0,0.0,0.0,0.0,0.0,0.0,0.0,0.0,0.0,0.0,0.0,0.0,0.0,0.0,0.0,0.0,0.0,0.0,0.0,0.0,0.0,0.0,0.0,0.0,0.0,0.0,0.0,0.0,0.0,0.0,0.0,0.0,0.0,0.0,0.0,0.0,0.0,0.0,0.0,0.0,0.0,0.0,0.0,0.0,0.0,0.0,2.8029,2.8732,2.9192,2.9417,2.9482,2.9517,2.9512,2.875,0.0,0.0,0.0,0.0,0.0,0.0,0.0,0.0,0.0,0.0,0.0,0.0,0.0,0.0,0.0,0.0,0.0,0.0,0.0,0.0,0.0,0.0,0.0,0.0,0.0,0.0,0.0,1.9612,0.0,0.0,0.0,0.0,0.0,0.0,0.0,0.0,0.0,0.0,0.0,0.0,0.0,0.0,2.3127,2.3327,2.4091,2.4469,0.0,0.0,2.4854,2.4285,2.5061,2.5316,0.0,0.0,0.0,0.0,0.0,0.0,0.0,0.0,0.0,0.0,0.0,0.0,0.0,0.0,0.0,0.0,0.0,0.0,0.0,0.0,0.0,0.0,0.0,0.0,0.0,0.0,0.0,0.0,0.0,0.0,0.0,0.0,0.0,0.0,0.0,0.0,0.0,0.0,0.0,0.0,0.0,0.0,0.0,0.0,0.0,0.0,0.0,0.0,0.0,0.0,0.0,0.0,0.0,0.0,0.0,2.8108,2.8759,2.9251,2.9477,2.9555,2.9593,2.9579,2.8811,2.8379,0.0,0.0,0.0,0.0,0.0,0.0,0.0,0.0,0.0,0.0,0.0,0.0,0.0,0.0,0.0,0.0,0.0,0.0,0.0,0.0,0.0,0.0,0.0,0.0,0.0,0.0,0.0,0.0,0.0,0.0,0.0,0.0,0.0,0.0,0.0,0.0,0.0,0.0,0.0,0.0,0.0,2.3881,2.4014,2.4734,2.5489,0.0,0.0,2.6527,2.6388,2.7711,2.7996,2.5661,0.0,0.0,0.0,0.0,0.0,0.0,0.0,0.0,0.0,0.0,0.0,0.0,0.0,0.0,0.0,0.0,0.0,0.0,0.0,0.0,0.0,0.0,0.0,0.0,0.0,0.0,0.0,0.0,0.0,0.0,0.0,0.0,0.0,0.0,0.0,0.0,0.0,0.0,0.0,0.0,0.0,0.0,0.0,0.0,0.0,0.0,0.0,0.0,0.0,0.0,0.0,0.0,0.0,2.8405,2.8709,2.9505,2.9987,3.0194,3.0815,3.1155,3.1136,3.0329,2.965,0.0,0.0,0.0,0.0,0.0,0.0,0.0,0.0,0.0,0.0,0.0,0.0,0.0,0.0,0.0,0.0,0.0,0.0,0.0,0.0,0.0,0.0,0.0,0.0,0.0,0.0,0.0,0.0,2.0747,2.1014,2.1698,0.0,0.0,0.0,0.0,0.0,0.0,0.0,0.0,0.0,0.0,2.4733,2.5359,2.6186,0.0,0.0,2.6893,2.7315,2.7331,2.7429,2.719,2.6282,2.5284,0.0,0.0,0.0,0.0,0.0,0.0,0.0,0.0,0.0,0.0,0.0,0.0,0.0,0.0,0.0,0.0,0.0,0.0,0.0,0.0,0.0,0.0,0.0,0.0,0.0,0.0,0.0,0.0,0.0,0.0,0.0,0.0,0.0,0.0,0.0,0.0,0.0,0.0,0.0,0.0,0.0,0.0,0.0,0.0,0.0,0.0,0.0,0.0,0.0,0.0,0.0,0.0,2.9527,2.982,3.0448,3.0813,3.0958,3.1705,3.211,3.2091,3.1282,3.0558,0.0,0.0,0.0,0.0,0.0,0.0,0.0,0.0,0.0,0.0,0.0,0.0,0.0,0.0,0.0,0.0,0.0,0.0,0.0,0.0,0.0,0.0,0.0,0.0,0.0,0.0,0.0,0.0,2.1789,2.2106,2.2522,0.0,0.0,0.0,0.0,0.0,0.0,0.0,0.0,0.0,0.0,2.5785,2.6179,2.6969,2.7301,2.6662,2.6937,2.7327,2.7616,2.6947,2.6436,2.6506,0.0,0.0,0.0,0.0,0.0,0.0,0.0,0.0,0.0,0.0,0.0,0.0,0.0,0.0,0.0,0.0,0.0,0.0,0.0,0.0,0.0,0.0,0.0,0.0,0.0,0.0,0.0,0.0,0.0,0.0,2.6819,0.0,0.0,0.0,0.0,0.0,0.0,0.0,0.0,0.0,0.0,0.0,0.0,0.0,0.0,0.0,0.0,0.0,0.0,0.0,0.0,0.0,0.0,3.1085,3.1421,3.1513,3.1637,3.1782,3.1994,3.2151,3.2113,3.1339,3.0869,3.0731,0.0,0.0,0.0,0.0,0.0,0.0,0.0,0.0,0.0,0.0,0.0,0.0,0.0,0.0,0.0,0.0,0.0,0.0,0.0,0.0,0.0,0.0,0.0,0.0,0.0,0.0,2.1739,2.2257,2.2636,0.0,0.0,0.0,0.0,0.0,0.0,0.0,0.0,0.0,0.0,2.6344,2.7019,2.6249,2.6802,2.7313,2.7203,2.6616,2.6435,2.7199,2.6675,2.6227,0.0,0.0,0.0,0.0,0.0,0.0,0.0,0.0,0.0,0.0,0.0,0.0,0.0,0.0,0.0,0.0,0.0,0.0,0.0,0.0,0.0,0.0,0.0,0.0,0.0,0.0,0.0,3.0104,2.9848,0.0,0.0,0.0,0.0,0.0,0.0,0.0,0.0,0.0,0.0,0.0,3.0816,3.1129,0.0,0.0,0.0,0.0,0.0,0.0,0.0,0.0,0.0,0.0,0.0,0.0,3.1055,3.12,3.1858,3.223,3.2274,3.3,3.3374,3.3355,3.2641,3.1723,3.0626,0.0,0.0,0.0,0.0,0.0,0.0,0.0,0.0,0.0,0.0,0.0,0.0,0.0,0.0,0.0,0.0,0.0,0.0,0.0,0.0,0.0,0.0,0.0,0.0,0.0,2.3343,0.0,0.0,0.0,0.0,0.0,0.0,0.0,0.0,0.0,0.0,0.0,2.5021,2.5648,2.6171,2.6549,2.6789,2.7503,2.8049,0.0,0.0,0.0,0.0,0.0,0.0,0.0,0.0,0.0,0.0,0.0,0.0,0.0,0.0,2.4809,2.3643,2.3208,2.3172,2.363,0.0,0.0,0.0,0.0,0.0,0.0,0.0,0.0,0.0,0.0,0.0,0.0,0.0,0.0,3.166,0.0,3.155,0.0,0.0,0.0,0.0,0.0,0.0,0.0,0.0,3.2252,3.2484,3.213,3.2737,3.2719,0.0,3.3182,3.2655,0.0,0.0,0.0,0.0,0.0,0.0,0.0,0.0,3.184,3.1923,3.2584,3.2958,3.2983,3.3631,3.4011,3.4018,3.3321,3.2177,3.0598,2.9976,2.9248,0.0,0.0,0.0,0.0,0.0,0.0,0.0,0.0,0.0,0.0,0.0,0.0,0.0,0.0,0.0,0.0,0.0,0.0,0.0,0.0,0.0,0.0,0.0,2.4163,0.0,0.0,0.0,0.0,0.0,0.0,0.0,0.0,0.0,2.4778,2.5207,2.5775,2.6393,2.6699,2.6943,2.714,0.0,0.0,0.0,0.0,0.0,0.0,0.0,2.5646,2.6435,2.6169,2.6047,2.6559,2.6495,2.6358,2.6369,0.0,0.0,2.4886,2.4683,2.4806,2.5286,2.529,2.5362,2.584,2.5779,2.5649,0.0,0.0,0.0,0.0,0.0,0.0,0.0,0.0,3.188,3.2299,0.0,3.212,0.0,0.0,0.0,0.0,0.0,3.2248,0.0,0.0,3.4076,3.4719,3.4041,3.5539,3.5466,3.4027,3.5369,3.4833,3.2614,3.2561,0.0,0.0,0.0,0.0,0.0,0.0,3.3404,3.3591,3.3762,3.3818,3.3818,3.3969,3.4054,3.4062,3.337,3.2248,3.0767,3.0544,3.0106,2.9299,2.8444,0.0,0.0,0.0,0.0,0.0,0.0,0.0,0.0,0.0,0.0,0.0,0.0,0.0,0.0,0.0,0.0,0.0,0.0,0.0,0.0,2.451,0.0,0.0,0.0,0.0,0.0,0.0,0.0,0.0,0.0,0.0,2.5003,2.6107,2.7133,2.7166,0.0,0.0,0.0,0.0,2.8077,2.7196,2.7079,2.7106,2.7113,2.6537,2.6387,2.7236,0.0,0.0,2.7543,2.689,2.6413,2.6389,2.6442,2.6361,2.6368,2.6235,2.6208,2.6153,2.6081,2.6002,2.5909,2.5922,2.5753,3.8497,0.0,0.0,0.0,0.0,3.5957,3.6298,3.6759,3.6209,3.5739,3.5311,3.4368,0.0,0.0,0.0,0.0,0.0,0.0,3.4557,3.5036,3.6351,3.65,3.5786,3.6748,3.6683,3.5701,3.6071,3.5874,3.52,3.5189,3.444,3.3022,0.0,0.0,0.0,0.0,3.3712,3.4335,3.448,3.4504,3.4523,3.4565,3.4328,3.3827,3.3044,3.2445,3.2035,3.0912,3.0416,3.0656,2.9506,0.0,0.0,0.0,0.0,0.0,0.0,0.0,0.0,0.0,0.0,0.0,0.0,0.0,0.0,0.0,0.0,0.0,0.0,0.0,2.5044,2.5361,2.5485,0.0,0.0,0.0,0.0,0.0,0.0,0.0,0.0,0.0,2.7206,2.7108,2.7043,0.0,0.0,2.7283,2.704,2.7767,2.8244,2.8035,2.7573,0.0,2.7301,2.6676,2.647,2.726,2.7943,2.8349,2.8355,2.8118,2.7942,2.7924,2.7875,2.7788,2.7665,2.6844,2.6393,2.6746,2.6784,2.6904,2.7377,2.7305,2.7077,4.3413,4.1366,3.9228,3.8637,3.9117,3.9219,3.9514,3.9933,3.9437,3.8953,3.8418,3.7483,3.676,3.6199,3.5486,0.0,0.0,0.0,3.6613,3.744,3.7974,3.7956,3.7514,3.7907,3.7694,3.6968,3.718,3.696,3.6346,3.6582,3.593,3.4435,0.0,0.0,3.3856,3.3912,3.4375,3.5213,3.5301,3.5323,3.5298,3.4994,3.4621,3.4174,3.3408,3.2898,3.2601,3.1703,3.1225,3.1309,3.0527,3.0369,0.0,0.0,0.0,0.0,0.0,0.0,0.0,0.0,0.0,0.0,0.0,2.4637,2.4497,0.0,0.0,0.0,2.5273,2.5325,2.5637,2.604,0.0,0.0,0.0,0.0,0.0,0.0,0.0,2.7613,2.8192,2.8774,2.9294,2.8885,2.8577,2.867,2.8611,2.8569,2.8544,0.0,2.9242,2.891,2.8499,2.8106,2.7825,2.7361,2.718,2.7642,2.8167,2.8519,2.8537,2.8542,2.853,2.8523,2.8453,2.8382,2.832,2.7746,2.7341,2.7543,2.7502,2.7568,2.8051,2.7886,2.7714,4.7906,4.7554,4.3573,4.1873,4.1806,4.1812,4.1891,4.1988,4.1898,4.185,4.1739,4.0914,4.0396,3.9985,3.8365,0.0,3.7911,3.7893,3.8372,3.9214,3.9255,3.9249,3.9117,3.9183,3.877,3.8017,3.8689,3.8221,3.6892,3.7348,3.7153,3.6296,3.5506,3.502,3.4801,3.486,3.5316,3.6179,3.6204,3.615,3.6102,3.533,3.4872,3.4799,3.4165,3.3458,3.2754,3.2684,3.2347,3.1635,3.1476,3.1402,3.137,0.0,0.0,0.0,0.0,0.0,0.0,0.0,0.0,0.0,0.0,0.0,0.0,0.0,0.0,0.0,2.6285,0.0,2.6096,2.6816,0.0,0.0,0.0,2.9876,3.0563,3.0797,3.0902,3.0803,0.0,0.0,3.1059,3.1009,3.1038,3.1247,3.114,3.1046,3.0916,3.0868,3.067,2.9766,2.9658,2.9406,2.8744,2.847,2.8304,2.83,2.8295,2.83,2.8307,2.8423,2.8458,2.8481,2.8488,2.8537,2.8463,2.8881,2.9075,2.8471,2.8273,2.8191,2.8272,2.8089,2.8055,4.954,4.9383,4.778,4.6399,4.5246,4.465,4.4758,4.5249,4.4581,4.3934,4.3296,4.2444,4.1369,4.0111,3.9051,3.8976,3.9692,3.9667,4.0155,4.0992,4.1624,4.1553,4.1,4.1523,4.1314,4.0498,4.0551,4.041,4.0008,4.0123,3.9433,3.7997,3.7726,3.6985,3.5742,3.5702,3.6148,3.7013,3.7013,3.6768,3.6245,3.5412,3.469,3.408,3.3885,3.3715,3.3507,3.2951,3.281,3.3189,3.2158,3.1997,3.2963,3.1657,0.0,0.0,0.0,0.0,0.0,0.0,0.0,0.0,0.0,2.5759,2.5698,0.0,2.5901,0.0,2.8061,2.873,2.8583,2.9308,0.0,0.0,3.0306,3.0539,3.0873,3.0994,3.0994,3.0884,3.0846,3.1059,3.1625,3.1573,3.1787,3.2486,3.166,3.0884,3.0772,3.0812,3.0697,3.0312,3.0276,3.0212,2.9962,2.9472,2.9062,2.9041,2.858,2.8214,2.8232,2.8624,2.8944,2.8966,2.9366,2.9644,2.9639,2.9814,2.9824,2.9681,2.9622,2.9599,2.9599,2.9413,2.9321,5.1546,5.1147,5.0349,4.9262,4.8036,4.7237,4.7144,4.7516,4.7028,4.6343,4.5545,4.4715,4.3431,4.1886,4.1385,4.126,4.1408,4.1416,4.1857,4.2667,4.2768,4.2564,4.2129,4.2192,4.1924,4.1444,4.1371,4.1293,4.118,4.1166,4.0624,3.9682,3.9655,3.9001,3.7716,3.6929,3.6965,3.7789,3.7828,3.768,3.7342,3.6204,3.549,3.5297,3.4254,3.3835,3.4094,3.3304,3.311,3.3546,3.275,3.2643,3.3433,3.2254,3.1822,0.0,0.0,0.0,0.0,0.0,0.0,0.0,0.0,0.0,0.0,0.0,2.7616,2.8495,2.9558,3.0135,2.9994,3.0456,3.0916,3.1326,3.1397,3.1573,3.202,3.2084,3.2067,3.1899,3.1851,3.1984,3.2424,3.2411,3.2542,3.3086,3.2433,3.1877,3.1755,3.1755,3.1596,3.1082,3.1034,3.0929,3.0585,3.0132,2.9675,2.926,2.9129,2.8979,2.8624,2.9084,2.9545,2.9573,2.9863,3.0098,3.0108,3.0404,3.058,3.0633,3.0878,3.0853,3.023,2.9974,2.9911,5.3237,5.2512,5.1621,5.0803,5.0023,4.9262,4.889,4.889,4.889,4.85,4.7813,4.6995,4.5844,4.4488,4.4376,4.3931,4.3299,4.3262,4.3596,4.4116,4.3429,4.3061,4.2863,4.2207,4.185,4.1775,4.1773,4.1659,4.1512,4.1474,4.1366,4.1186,4.1184,4.0758,3.9828,3.8324,3.7842,3.839,3.8454,3.8496,3.8501,3.7114,3.6566,3.6893,3.4867,3.3931,3.4416,3.3643,3.3238,3.3356,3.3196,3.3196,3.3345,3.2537,3.2364,0.0,3.2401,0.0,0.0,0.0,0.0,0.0,0.0,0.0,0.0,2.9695,2.9855,3.041,3.074,3.093,3.0869,3.0999,3.1394,3.2206,3.2353,3.265,3.328,3.3356,3.3304,3.3124,3.3104,3.3101,3.3101,3.3137,3.3088,3.3058,3.2999,3.2855,3.29,3.2838,3.2556,3.1894,3.1854,3.1591,3.1008,3.0706,3.0308,2.9584,2.9722,2.9929,2.9199,2.9728,3.0246,3.0246,3.0387,3.0467,3.0396,3.0949,3.1343,3.1378,3.1844,3.1879,3.0835,3.0435,3.0423,5.2735,5.2447,5.0971,5.0237,5.0033,4.9243,4.889,4.889,4.889,4.8816,4.8612,4.7831,4.7293,4.6958,4.6308,4.5955,4.5807,4.5807,4.5528,4.5053,4.4896,4.4329,4.3484,4.3521,4.326,4.2776,4.2995,4.2943,4.2605,4.2749,4.2377,4.1542,4.1669,4.1206,4.0158,0.0,0.0,0.0,3.8415,3.8144,3.7595,3.6991,3.6464,3.5988,3.4795,0.0,3.4299,3.3538,3.3132,3.3165,3.3117,0.0,0.0,0.0,0.0,0.0,0.0,0.0,0.0,0.0,0.0,0.0,3.1545,3.1142,3.0571,3.0608,3.0735,3.0814,3.1337,3.1733,3.183,3.2243,3.2575,3.2819,3.2868,3.2947,3.3121,3.3155,3.3132,3.3101,3.3,3.2948,3.293,3.2762,3.2648,3.2665,3.2591,3.2558,3.2542,3.2672,3.2643,3.233,3.2242,3.2234,3.206,3.1468,3.1044,3.0771,3.0323,3.0104,2.9983,3.05,3.0974,3.101,3.1528,3.1932,3.1932,3.209,3.2125,3.2177,3.2291,3.2326,3.2019,3.1941,3.1976,5.2977,0.0,5.1695,5.0869,0.0,4.9661,4.9209,4.8767,4.8865,4.889,4.8881,4.8463,4.8021,4.7527,4.7049,4.6564,4.6117,4.6036,4.577,4.5402,4.5402,4.5102,4.4537,4.4284,4.3959,4.3651,4.3789,4.3752,4.3556,4.3612,4.3356,4.2833,4.253,4.1904,4.097,4.0536,3.9833,3.8813,3.8795,3.8437,3.7711,3.7142,3.6854,3.674,3.5163,0.0,0.0,0.0,0.0,0.0,0.0,0.0,0.0,3.3414,0.0,3.3181,3.3615,3.3681,3.3242,3.3196,3.3068,3.2763,3.2635,3.2263,3.1552,3.1982,3.2214,3.2069,3.2342,3.255,3.2549,3.2783,3.2977,3.3047,3.3086,3.3068,3.3016,3.3032,3.3,3.2874,3.2762,3.2714,3.2745,3.2615,3.2516,3.2507,3.2473,3.244,3.2405,3.249,3.2524,3.2448,3.2457,3.2465,3.2455,3.2216,3.1697,3.1364,3.1284,3.1127,3.0711,3.1298,3.1815,3.1834,3.2142,3.2406,3.2406,3.2406,3.2406,3.2406,3.2406,3.2406,3.2406,3.2406,3.2406,5.3394,5.2753,5.2605,5.163,5.0166,5.0018,4.9399,4.8514,0.0,0.0,0.0,4.8804,4.8335,4.7573,4.7436,4.6948,4.6128,4.6034,4.5895,4.573,4.5767,4.5666,4.5473,4.4846,4.4508,4.4385,4.4228,4.4116,4.4068,4.3948,4.3837,4.3743,4.3169,4.2518,4.1801,4.1151,4.0392,3.959,3.9419,3.903,3.8303,3.7576,3.7402,3.7855,3.5757,3.4859,3.5312,3.3829,3.3064,3.3236,3.3005,3.2996,3.3344,3.4064,3.4191,3.3625,3.4271,3.4424,3.3776,3.3674,3.3627,3.3558,3.3581,3.3253,3.2512,3.3092,3.3423,3.3212,3.3167,3.3099,3.3016,3.2943,3.2935,3.3008,3.306,3.3067,3.3056,3.3104,3.3074,3.28,3.2804,3.2673,3.259,3.2531,3.2515,3.2515,3.2532,3.2516,3.2457,3.2422,3.2448,3.2464,3.2499,3.2515,3.2573,3.2562,3.229,3.1721,3.2107,3.2275,3.1787,3.2122,3.2562,3.2378,3.2476,3.2555,3.2458,3.2406,3.2406,3.2406,3.2406,3.2406,3.2406,3.2406,3.2406,5.3651,5.3309,5.2625,5.1637,5.0476,4.9715,4.8943,4.8182,4.8316,4.8392,4.8382,4.8382,4.8318,4.8179,4.816,4.8001,4.7785,4.7871,4.7467,4.6722,4.6826,4.6347,4.5432,4.5476,4.5229,4.471,4.4195,4.3828,4.3586,4.3198,4.2838,4.2639,4.2712,4.2604,4.2248,4.2093,4.1636,4.0847,4.0313,3.9734,3.9057,3.8607,3.8129,3.7622,3.6488,3.5864,3.5944,3.4473,3.3976,3.4659,3.4166,3.4228,3.4989,3.5371,3.5548,3.5494,3.5512,3.5491,3.5356,3.5205,3.4844,3.4283,3.4745,3.4503,3.3129,3.3108,3.3185,3.3182,3.3119,3.2961,3.2985,3.2855,3.276,3.2733,3.2706,3.2931,3.3528,3.3658,3.364,3.3451,3.3538,3.3298,3.2717,3.2583,3.2573,3.2581,3.2573,3.259,3.2557,3.2465,3.2431,3.2482,3.2507,3.2532,3.2589,3.2588,3.2484,3.2357,3.2383,3.2532,3.2384,3.2791,3.3072,3.2632,3.2932,3.3002,3.2599,3.2406,3.2423,3.2423,3.2431,3.2423,3.2423,3.2414,3.2406,5.3758,5.3253,5.2884,5.2196,5.1197,4.975,4.8968,4.8626,4.8103,4.8024,4.8287,4.8315,4.8238,4.8123,4.8063,4.7925,4.7752,4.777,4.7529,4.7143,4.7174,4.6951,4.6429,4.6103,4.582,4.553,4.5273,4.4875,4.4326,4.4094,4.3688,4.3125,4.2835,4.2609,4.2488,4.2445,4.2236,4.1832,4.1103,4.0318,3.9594,3.9388,3.8965,3.8255,3.7379,3.6692,3.6283,3.5172,3.4779,3.5264,3.5008,3.508,3.5596,3.6075,3.6144,3.574,3.5976,3.5939,3.545,3.534,3.5103,3.467,3.4938,3.4824,3.4037,3.4199,3.4295,3.4188,3.4072,3.4016,3.3923,3.382,3.3724,3.3724,3.3767,3.3961,3.4323,3.4446,3.4481,3.4393,3.4048,3.3659,3.3236,3.283,3.2566,3.2557,3.2573,3.2588,3.2588,3.2539,3.2523,3.2557,3.2565,3.2564,3.2588,3.2588,3.2581,3.2565,3.2607,3.2792,3.3058,3.3281,3.3307,3.3678,3.3485,3.3115,3.3026,3.2789,3.2568,3.2516,3.2524,3.2516,3.2516,3.2413,3.231,5.3897,5.3297,5.3095,5.2521,5.1584,4.9907,4.9262,4.926,4.8265,4.8058,4.8387,4.827,4.8072,4.7939,4.7821,4.7666,4.7511,4.7418,4.7385,4.7334,4.7385,4.7396,4.7331,4.678,4.6482,4.6464,4.6288,4.5874,4.5306,4.5122,4.4736,4.4078,4.3274,4.2861,4.2869,4.2628,4.2516,4.247,4.1807,4.1022,4.0208,4.0172,3.9805,3.9066,3.829,3.7559,3.6925,3.5998,3.5629,3.5943,3.5891,3.5946,3.6236,3.6813,3.6801,3.6155,3.6449,3.6381,3.5696,3.5608,3.5448,3.5127,3.5277,3.5249,3.5033,3.5457,3.5508,3.5057,3.4907,3.4854,3.4737,3.4727,3.4735,3.4761,3.4825,3.4942,3.5208,3.5332,3.5403,3.5331,3.4782,3.434,3.3986,3.3333,3.2821,3.2668,3.2631,3.2672,3.2672,3.2672,3.2664,3.2681,3.2665,3.2655,3.2664,3.268,3.2672,3.2647,3.2714,3.2953,3.3293,3.3167,3.3406,3.4234,3.3712,3.327,3.3596,3.3137,3.2653,3.2497,3.2455,3.2455,3.237,3.224,3.2161,5.4148,5.3813,5.3156,5.2177,5.1167,5.0225,4.9834,4.9766,4.9075,4.8793,4.8806,4.8078,4.777,4.772,4.7738,4.7636,4.7522,4.7615,4.7604,4.75,4.7615,4.7657,4.7646,4.746,4.7381,4.7262,4.66,4.6208,4.6021,4.5457,4.5137,4.4965,4.4152,4.367,4.3598,4.2977,4.2589,4.2589,4.2454,4.1924,4.1056,4.1002,4.0618,3.9815,3.9093,3.8656,3.8469,3.7113,3.6649,3.7301,3.7041,3.7054,3.7468,3.7925,3.7976,3.7567,3.739,3.715,3.6848,3.6818,3.6466,3.5865,3.6359,3.6429,3.5819,3.6396,3.6251,3.5249,3.4879,3.495,3.4898,3.4942,3.5021,3.5074,3.5128,3.5324,3.5881,3.6176,3.6203,3.6041,3.5963,3.5785,3.4969,3.4215,3.3564,3.3008,3.297,3.2915,3.2834,3.2844,3.2852,3.2852,3.283,3.2813,3.2818,3.2858,3.2828,3.2789,3.2799,3.2931,3.3102,3.3425,3.3844,3.4187,3.38,3.3571,3.3544,3.3172,3.2532,3.2318,3.224,3.2179,3.1947,3.1882,3.1929,5.4709,5.3816,5.3471,5.2785,5.1879,5.0979,5.0665,5.0649,4.9856,4.9517,4.9499,4.8757,4.8159,4.7707,4.7689,4.7668,4.7625,4.7668,4.7668,4.7625,4.7668,4.7689,4.7689,4.7665,4.7625,4.7607,4.7247,4.6857,4.6326,4.5616,4.5249,4.5231,4.4873,4.4456,4.3976,4.362,4.3212,4.2743,4.2617,4.2376,4.2032,4.1978,4.1592,4.0823,4.0163,3.948,3.884,3.7757,3.7301,3.7568,3.7434,3.7478,3.7739,3.7766,3.773,3.755,3.7308,3.7108,3.6989,3.698,3.6857,3.6513,3.6804,3.6849,3.6558,3.6853,3.677,3.6296,3.6127,3.6108,3.6137,3.6184,3.6195,3.6231,3.6323,3.652,3.6805,3.6922,3.6986,3.695,3.6586,3.6212,3.5758,3.5093,3.4389,3.3778,3.3598,3.3427,3.3025,3.2908,3.2908,3.29,3.2868,3.2868,3.29,3.2908,3.2884,3.2878,3.287,3.2933,3.3399,3.3247,3.3507,3.4406,3.3693,3.3317,3.3608,3.2888,3.2197,3.2073,3.2082,3.2047,3.1939,3.1793,3.1765,5.5371,5.4345,5.3892,5.3241,5.2444,5.1784,5.1542,5.1491,5.0663,5.033,5.0336,4.9582,4.8912,4.834,4.7924,4.7689,4.7689,4.7689,4.7689,4.7689,4.7689,4.7689,4.7689,4.7689,4.7689,4.7689,4.7689,4.7381,4.6801,4.6258,4.5961,4.5943,4.5743,4.5345,4.4802,4.4533,4.4098,4.3565,4.3128,4.2895,4.2917,4.2689,4.2272,4.1651,4.1058,4.021,3.9142,3.8336,3.7799,3.7548,3.7549,3.7586,3.7587,3.7458,3.7365,3.7288,3.7124,3.698,3.698,3.7009,3.7029,3.7029,3.7048,3.7068,3.7105,3.7135,3.7164,3.7094,3.7106,3.7042,3.7095,3.7126,3.7147,3.7156,3.726,3.7363,3.7366,3.7429,3.7468,3.7514,3.705,3.6541,3.6274,3.5607,3.4824,3.4197,3.4035,3.3794,3.3132,3.2908,3.2908,3.2908,3.29,3.29,3.2908,3.2908,3.2908,3.2884,3.2868,3.2983,3.3554,3.3039,3.2973,3.3644,3.2905,3.2747,3.3222,3.2677,3.195,3.1887,3.1859,3.1804,3.1685,3.1598,3.153,5.5951,5.5667,5.4291,5.3259,5.2498,5.245,5.2426,5.231,5.1593,5.126,5.1151,5.042,5.0028,4.9869,4.851,4.7753,4.7753,4.7826,4.7862,4.7852,4.7808,4.7725,4.7689,4.7689,4.7725,4.7797,4.7815,4.7725,4.7598,4.7572,4.7598,4.7508,4.6804,4.6432,4.6178,4.5532,4.5276,4.505,4.4065,4.3647,4.3734,4.2911,4.2368,4.218,4.1598,4.0706,3.967,3.8846,3.8121,3.7359,3.7493,3.7457,3.7196,3.7319,3.7272,3.7085,3.7027,3.7007,3.7009,3.706,3.7108,3.7108,3.7193,3.7278,3.7249,3.7278,3.7287,3.7287,3.7287,3.7287,3.7287,3.726,3.7287,3.7297,3.7354,3.7383,3.7411,3.7512,3.7577,3.7595,3.7496,3.7157,3.6497,3.5694,3.5097,3.4517,3.4196,3.3901,3.3231,3.2971,3.2955,3.2876,3.2876,3.29,3.29,3.2842,3.2876,3.2794,3.2681,3.2623,3.2481,3.2476,3.2809,3.2922,3.2476,3.2414,3.2832,3.2672,3.2023,3.172,3.1521,3.1426,3.1504,3.132,3.1298,5.6446,5.5848,5.4327,5.353,5.3295,5.3259,5.2969,5.248,5.219,5.2063,5.1953,5.1344,5.1064,5.1002,5.0104,4.9508,4.926,4.9231,4.9249,4.9238,4.9249,4.922,4.9249,4.9231,4.8931,4.8521,4.8449,4.8196,4.7746,4.7835,4.7876,4.7785,4.7495,4.7083,4.653,4.6106,4.5668,4.5119,4.4202,4.3768,4.382,4.3064,4.255,4.2292,4.1731,4.1163,4.059,3.9284,3.8352,3.7951,3.7533,3.7279,3.7231,3.7298,3.7298,3.7211,3.7192,3.7192,3.7201,3.723,3.7222,3.7222,3.7268,3.7306,3.7306,3.7344,3.7382,3.7373,3.7456,3.7493,3.7466,3.7411,3.7364,3.7383,3.7457,3.7522,3.7531,3.7567,3.7595,3.7595,3.7595,3.7443,3.7184,3.6908,3.6435,3.5739,3.5543,3.4927,3.3965,3.3559,3.3228,3.2804,3.2606,3.2505,3.2531,3.2647,3.268,3.2556,3.2446,3.2429,3.2335,3.2284,3.2546,3.251,3.2116,3.2008,3.2389,3.2208,3.1673,3.1606,3.1392,3.1373,3.1402,3.1363,3.1373,5.6482,5.5842,5.4617,5.4092,5.4092,5.4109,5.3662,5.2966,5.2992,5.2899,5.2606,5.2255,5.2104,5.2034,5.1686,5.1384,5.1005,5.0576,5.0339,5.0321,5.0321,5.0162,4.9948,5.014,4.9712,4.881,4.8704,4.8387,4.7943,4.7921,4.7919,4.7866,4.7718,4.736,4.6832,4.6622,4.627,4.5697,4.4923,4.4378,4.4127,4.337,4.2741,4.2341,4.1895,4.1463,4.1019,3.9907,3.9096,3.8654,3.7949,3.7477,3.7323,3.7297,3.7297,3.7297,3.7297,3.7297,3.7297,3.7333,3.7317,3.7344,3.7364,3.74,3.7418,3.7438,3.7457,3.7494,3.754,3.7595,3.7577,3.7512,3.7466,3.7476,3.7549,3.7595,3.7595,3.7595,3.7595,3.7559,3.7309,3.7318,3.7542,3.7372,3.6943,3.6399,3.6167,3.5384,3.4241,3.3526,3.3184,3.2638,3.2412,3.2318,3.2301,3.2387,3.2498,3.2404,3.2275,3.2249,3.2179,3.2153,3.2109,3.2029,3.1948,3.183,3.1701,3.1587,3.1547,3.1509,3.1471,3.145,3.1469,3.1471,3.1488,5.606,5.5969,5.5227,5.4919,5.4925,5.502,5.4565,5.3865,5.4069,5.3745,5.3014,5.3054,5.3088,5.3015,5.2879,5.2986,5.2624,5.1519,5.0961,5.0982,5.0937,5.0446,4.9777,5.0391,4.983,4.84,4.8291,4.8265,4.8132,4.7923,4.7801,4.7721,4.7515,4.7342,4.7266,4.7183,4.727,4.7011,4.6122,4.5451,4.4941,4.3867,4.3002,4.2437,4.219,4.1723,4.0942,4.0734,4.0268,3.956,3.8797,3.8103,3.7449,3.7325,3.7324,3.7325,3.7306,3.7306,3.7316,3.7364,3.742,3.7429,3.7512,3.7558,3.7558,3.7567,3.7577,3.7577,3.7586,3.7595,3.7595,3.7586,3.7577,3.7595,3.7604,3.7595,3.7595,3.7586,3.7586,3.7496,3.7032,3.6863,3.7274,3.7158,3.6684,3.6345,3.5767,3.4995,3.3961,3.3204,3.2502,3.2318,3.2231,3.2153,3.2126,3.2117,3.2223,3.2267,3.2144,3.2055,3.1975,3.193,3.1875,3.1819,3.1819,3.1718,3.1718,3.1623,3.1595,3.1574,3.1546,3.1555,3.1566,3.1585,3.1583,5.6826,5.6761,5.6182,5.5885,5.5843,5.6115,5.5439,5.4238,5.4825,5.4367,5.3379,5.386,5.3906,5.3433,5.3289,5.323,5.3172,5.2477,5.2233,5.2315,5.2336,5.1823,5.1182,5.1307,5.0529,4.8878,4.7961,4.7624,4.7645,4.7713,4.7673,4.7578,4.7493,4.7396,4.728,4.7165,4.7127,4.7037,4.628,4.5704,4.543,4.4171,4.3333,4.3097,4.2559,4.2083,4.1838,4.1178,4.0737,4.0499,3.929,3.8237,3.7663,3.7512,3.7503,3.7494,3.7494,3.7512,3.7512,3.7512,3.7531,3.754,3.7594,3.7595,3.7595,3.7595,3.7595,3.7595,3.7595,3.7595,3.7595,3.7595,3.7577,3.7595,3.7595,3.7577,3.7549,3.7475,3.74,3.7354,3.7048,3.6991,3.7116,3.6923,3.6834,3.668,3.6052,3.5211,3.4398,3.3455,3.2685,3.2301,3.216,3.2105,3.2156,3.2242,3.2322,3.2316,3.2166,3.2138,3.2012,3.1792,3.1718,3.1698,3.1688,3.1679,3.1679,3.1688,3.1679,3.1723,3.1768,3.1751,3.1724,3.1793,3.1906,5.6972,5.7198,5.6636,5.6556,5.6757,5.7139,5.6525,5.5405,5.5776,5.5082,5.3954,5.4141,5.3989,5.3353,5.3151,5.312,5.3098,5.2864,5.2864,5.2976,5.2987,5.2355,5.1236,5.0569,5.0042,4.9104,4.8297,4.7803,4.7597,4.7886,4.7882,4.7583,4.7381,4.7272,4.7187,4.707,4.7009,4.692,4.6498,4.6105,4.5666,4.4846,4.4078,4.3525,4.3019,4.2619,4.2305,4.1665,4.1372,4.1133,3.989,3.865,3.7737,3.7586,3.7595,3.7595,3.7595,3.7595,3.7595,3.7586,3.7595,3.7595,3.7595,3.7595,3.7595,3.7595,3.7577,3.7503,3.7484,3.7448,3.7383,3.7373,3.7373,3.7373,3.7447,3.7456,3.74,3.7278,3.7201,3.7172,3.706,3.7019,3.7029,3.7038,3.6999,3.6855,3.6256,3.5399,3.4668,3.3924,3.3235,3.2668,3.2465,3.2392,3.2293,3.2353,3.2447,3.2372,3.2243,3.2295,3.2284,3.1947,3.1763,3.1763,3.1754,3.1744,3.1744,3.1818,3.1837,3.1899,3.2073,3.2342,3.249,3.2464,3.2629,5.6642,5.731,5.6762,5.6973,5.7599,5.7911,5.7508,5.6919,5.6742,5.575,5.4495,5.4221,5.3653,5.2974,5.2817,5.2754,5.2772,5.2694,5.2672,5.268,5.2546,5.1741,5.027,4.8878,4.8423,4.8743,4.8724,4.8439,4.7801,4.8114,4.8236,4.7475,4.716,4.702,4.7014,4.7009,4.7009,4.6991,4.6955,4.6569,4.5963,4.5749,4.5131,4.38,4.3525,4.3108,4.2586,4.2318,4.2114,4.1797,4.0399,3.907,3.7916,3.7595,3.7595,3.7595,3.7595,3.7595,3.7595,3.7595,3.7595,3.7595,3.7558,3.7585,3.7567,3.7512,3.7429,3.7306,3.7278,3.722,3.7068,3.7038,3.7029,3.6999,3.7172,3.7184,3.7029,3.6989,3.6987,3.6987,3.6987,3.697,3.6962,3.6964,3.6895,3.6694,3.612,3.5296,3.471,3.4198,3.3775,3.3412,3.3123,3.3143,3.3198,3.3171,3.3327,3.3617,3.3294,3.3039,3.2967,3.2629,3.2275,3.2205,3.209,3.201,3.1933,3.2067,3.2181,3.2311,3.2617,3.3055,3.317,3.3074,3.3364,5.7621,5.7826,5.7801,5.7901,5.8008,5.783,5.7348,5.6845,5.6945,5.5941,5.4584,5.4787,5.4143,5.2985,5.2522,5.2419,5.2449,5.2269,5.2192,5.2185,5.1637,5.0776,4.9531,4.817,4.7594,4.7882,4.7897,4.7451,4.729,4.7651,4.7483,4.7145,4.7142,4.7027,4.7009,4.702,4.7009,4.7009,4.6991,4.6949,4.6645,4.6099,4.563,4.5202,4.4143,4.3496,4.3204,4.2767,4.1803,4.0572,4.0247,3.9266,3.7872,3.7613,3.7595,3.7595,3.7631,3.7613,3.7621,3.7657,3.7648,3.7577,3.7545,3.7382,3.7372,3.7249,3.7135,3.7085,3.7085,3.7056,3.6989,3.6987,3.6918,3.6836,3.6948,3.7046,3.695,3.6859,3.6776,3.6748,3.6619,3.6571,3.6581,3.6591,3.6602,3.6487,3.6063,3.5437,3.501,3.4769,3.4457,3.4273,3.4096,3.4151,3.4169,3.4116,3.4336,3.4901,3.4699,3.4171,3.409,3.3897,3.3551,3.329,3.3085,3.2969,3.2655,3.2526,3.263,3.3005,3.3418,3.3929,3.3587,3.343,3.3958,5.8232,5.7857,5.8017,5.7978,5.7772,5.7618,5.7386,5.7176,5.7111,5.6175,5.4848,5.4747,5.4077,5.2661,5.2239,5.2156,5.2245,5.2072,5.2023,5.1874,5.0939,4.9916,4.8923,4.7789,4.7352,4.7493,4.7902,4.7966,4.7895,4.8248,4.8277,4.7776,4.7612,4.7422,4.712,4.71,4.7093,4.7127,4.712,4.7138,4.7066,4.6697,4.6268,4.5946,4.4997,4.4438,4.3758,4.3041,4.1996,4.0812,4.0237,3.9494,3.8293,3.7765,3.7613,3.7613,3.7926,3.8095,3.8054,3.8277,3.8435,3.824,3.7917,3.7666,3.7576,3.7267,3.698,3.6906,3.6896,3.6819,3.6731,3.671,3.6667,3.6585,3.6697,3.6778,3.6703,3.6588,3.6582,3.6561,3.6492,3.6395,3.6444,3.6482,3.6513,3.6512,3.6338,3.5861,3.5489,3.5349,3.5242,3.51,3.5025,3.507,3.5089,3.5062,3.5063,3.563,3.5961,3.543,3.5023,3.489,3.4513,3.4162,3.4029,3.3853,3.3545,3.3493,3.3967,3.4328,3.4592,3.4778,3.4673,3.4242,3.4738,5.865,5.7759,5.7805,5.7625,5.737,5.7462,5.7543,5.7649,5.7225,5.6322,5.5196,5.4568,5.374,5.224,5.2341,5.2125,5.2156,5.233,5.2006,5.149,5.0464,4.9368,4.8417,4.7691,4.7338,4.7463,4.883,4.8825,4.8641,4.9742,4.9663,4.8629,4.8328,4.7974,4.7332,4.7138,4.7113,4.7067,4.7024,4.7024,4.7078,4.706,4.687,4.6413,4.5871,4.5018,4.3998,4.3159,4.2376,4.1587,4.0728,3.9945,3.9083,3.8257,3.7951,3.8021,3.853,3.8728,3.8652,3.9132,3.9482,3.9043,3.8487,3.8183,3.8085,3.7686,3.7235,3.6952,3.6783,3.6721,3.6433,3.6343,3.6402,3.6423,3.6475,3.6464,3.6381,3.635,3.6391,3.6492,3.6513,3.6582,3.6654,3.6722,3.6705,3.6748,3.6594,3.6424,3.6236,3.6243,3.6133,3.6023,3.5964,3.5975,3.5994,3.6003,3.6032,3.6255,3.6756,3.6571,3.5861,3.5577,3.5231,3.4993,3.4976,3.4808,3.4516,3.4728,3.5161,3.5294,3.5311,3.5976,3.6447,3.5722,3.574,5.9051,5.8814,5.8214,5.7916,5.7747,5.7251,5.7184,5.7437,5.6849,5.6261,5.5575,5.4908,5.4084,5.3159,5.3002,5.2756,5.2378,5.2684,5.2353,5.0518,5.0276,4.9162,4.8161,4.7598,4.7356,4.7456,4.7625,4.8093,4.8578,4.8996,4.8902,4.8614,4.8542,4.8088,4.7363,4.6769,4.6417,4.6439,4.6467,4.6532,4.6658,4.709,4.7223,4.6928,4.6002,4.498,4.4073,4.3258,4.279,4.2408,4.1754,4.0911,4.0053,3.9469,3.9156,3.9134,3.9098,3.915,3.9103,3.929,3.9339,3.9294,3.9006,3.8729,3.8718,3.8419,3.7923,3.7508,3.7318,3.7011,3.645,3.6412,3.6444,3.6485,3.6585,3.6664,3.6623,3.6602,3.6613,3.6643,3.6664,3.6695,3.6786,3.6816,3.6839,3.6918,3.6925,3.6904,3.6925,3.6954,3.6861,3.667,3.6735,3.6702,3.6731,3.6713,3.6713,3.674,3.717,3.7421,3.6726,3.6486,3.6219,3.6069,3.6007,3.5776,3.5536,3.5615,3.596,3.5996,3.6068,3.6539,3.6824,3.6541,3.6524,5.9199,5.833,5.7892,5.7613,5.7382,5.6994,5.6957,5.713,5.6847,5.6392,5.5906,5.541,5.4634,5.3658,5.3766,5.3424,5.2653,5.2785,5.244,5.1219,5.0578,4.9836,4.9354,4.845,4.7922,4.7652,4.7951,4.8319,4.8734,4.9329,4.9568,4.8788,4.8989,4.8539,4.7504,4.6672,4.6347,4.6364,4.6346,4.6346,4.6444,4.7085,4.749,4.7309,4.637,4.5485,4.5004,4.4259,4.3644,4.316,4.2659,4.1866,4.0729,3.9961,3.9593,3.9522,3.9841,3.9726,3.9703,3.999,4.0213,3.9961,3.9584,3.9426,3.927,3.9015,3.8627,3.8265,3.7909,3.7401,3.6651,3.6578,3.6636,3.666,3.6798,3.6896,3.6869,3.6786,3.6753,3.6796,3.6839,3.6918,3.6978,3.6997,3.7036,3.7134,3.7143,3.7121,3.7131,3.7169,3.7235,3.7203,3.7312,3.7377,3.7423,3.7397,3.7334,3.7316,3.7406,3.754,3.7272,3.7255,3.7326,3.7068,3.6738,3.6836,3.6657,3.6737,3.6701,3.6817,3.6933,3.7094,3.7121,3.7059,3.713,5.9134,5.7363,5.7381,5.7109,5.6737,5.6809,5.6941,5.7041,5.7041,5.6727,5.6222,5.6026,5.5183,5.4388,5.4472,5.3899,5.3,5.2498,5.2281,5.1839,5.0898,5.0517,5.0343,4.9543,4.8779,4.8177,4.8717,4.9133,4.9705,5.0434,5.0407,4.9568,4.9621,4.9158,4.7972,4.6855,4.6246,4.6181,4.6137,4.6114,4.6187,4.6775,4.706,4.6853,4.6104,4.5536,4.5098,4.4556,4.3981,4.3336,4.323,4.2495,4.1416,4.0335,3.9614,3.9722,4.0387,4.0493,4.0439,4.0812,4.1087,4.096,4.0418,4.014,4.0119,3.9828,3.9506,3.9104,3.872,3.8027,3.7303,3.7428,3.7393,3.7319,3.7373,3.7312,3.7247,3.7033,3.6918,3.6997,3.7046,3.7105,3.7201,3.7259,3.7297,3.7343,3.7334,3.7344,3.7363,3.7392,3.7466,3.754,3.7622,3.7658,3.7694,3.7694,3.7676,3.7667,3.7667,3.7667,3.7667,3.7658,3.7632,3.7577,3.7407,3.7425,3.7417,3.7354,3.7408,3.7613,3.7604,3.7533,3.756,3.7631,3.7622,5.8758,5.7226,5.7244,5.6814,5.6293,5.6836,5.7143,5.7181,5.715,5.7109,5.6917,5.6307,5.5878,5.545,5.5003,5.4351,5.3481,5.287,5.2225,5.1765,5.1105,5.0917,5.0442,4.9985,4.9673,4.9775,4.9851,5.0108,5.0572,5.1122,5.097,5.0741,5.0278,4.9499,4.8496,4.7269,4.615,4.5745,4.5655,4.5548,4.5361,4.5639,4.5851,4.5673,4.4954,4.4465,4.4078,4.3384,4.2767,4.2707,4.2483,4.2227,4.1911,4.1506,4.129,4.1169,4.1143,4.1098,4.1045,4.1104,4.1277,4.1266,4.1109,4.1125,4.1195,4.1106,4.062,4.013,3.9582,3.8999,3.8918,3.8785,3.8982,3.8906,3.8555,3.8272,3.8111,3.7736,3.7272,3.7305,3.7305,3.7287,3.7391,3.7466,3.7484,3.7503,3.753,3.7539,3.7558,3.7595,3.7676,3.7757,3.7846,3.7864,3.7855,3.7846,3.7828,3.7819,3.7811,3.7811,3.7819,3.7828,3.781,3.7712,3.7676,3.7641,3.7685,3.7775,3.7784,3.7766,3.7811,3.7837,3.7802,3.7739,3.7703,5.8909,5.7786,5.7387,5.6971,5.6736,5.7025,5.7188,5.7188,5.7188,5.7188,5.7098,5.6772,5.612,5.5613,5.5558,5.4876,5.3857,5.3026,5.2445,5.2013,5.1355,5.1034,5.0689,5.0233,5.0133,5.0263,5.0427,5.0449,5.0691,5.1115,5.1072,5.0637,5.0245,4.9757,4.8862,4.7468,4.6319,4.5609,4.5388,4.5052,4.4492,4.4836,4.5047,4.4831,4.4529,4.4277,4.4039,4.3824,4.3357,4.3057,4.2835,4.2537,4.2291,4.2156,4.203,4.1769,4.1604,4.1493,4.1419,4.1408,4.1442,4.1493,4.1515,4.1593,4.1703,4.1641,4.1438,4.0919,4.054,4.0033,3.9708,3.9819,3.9813,3.9789,3.9554,3.9263,3.8871,3.8469,3.8093,3.7745,3.7592,3.7574,3.7558,3.7613,3.7658,3.7685,3.773,3.7739,3.7748,3.7784,3.7828,3.789,3.7952,3.7952,3.7952,3.7961,3.7961,3.7952,3.7961,3.7961,3.797,3.7997,3.7926,3.7801,3.7801,3.781,3.7819,3.7855,3.7881,3.7917,3.7917,3.7899,3.7881,3.7855,3.7801,5.88,5.7876,5.7406,5.7128,5.7002,5.7152,5.7188,5.7188,5.7188,5.708,5.6953,5.6844,5.6157,5.5372,5.5208,5.4914,5.3799,5.3091,5.2853,5.2612,5.1896,5.153,5.1441,5.1017,5.0751,5.1315,5.1024,5.0762,5.0817,5.1169,5.0983,5.0733,5.0421,4.9836,4.899,4.7816,4.6648,4.5969,4.5657,4.511,4.4359,4.4512,4.4743,4.453,4.4474,4.4216,4.3903,4.3793,4.3539,4.3204,4.303,4.288,4.2456,4.2412,4.2238,4.1881,4.1773,4.1751,4.174,4.1758,4.1784,4.1827,4.1773,4.1881,4.1988,4.2019,4.1841,4.1474,4.1334,4.1173,4.0843,4.0642,4.0687,4.0652,4.0583,4.0299,3.9839,3.9381,3.8878,3.8492,3.8097,3.7891,3.7918,3.7757,3.7784,3.7784,3.7811,3.7846,3.7863,3.789,3.7933,3.7969,3.8013,3.8013,3.8013,3.803,3.8021,3.8029,3.8101,3.8155,3.8148,3.8166,3.8149,3.8239,3.7969,3.7986,3.7951,3.7961,3.7995,3.8012,3.7995,3.7987,3.8013,3.7969,3.7898,5.7659,5.6355,5.6953,5.679,5.635,5.6929,5.7219,5.7219,5.7177,5.6754,5.629,5.6139,5.5789,5.5154,5.4593,5.4027,5.3439,5.3193,5.3054,5.3002,5.2687,5.2532,5.28,5.2837,5.2122,5.2106,5.1752,5.1747,5.1412,5.1508,5.1604,5.1273,5.0558,5.0089,4.9148,4.8184,4.7363,4.6557,4.6307,4.5506,4.4367,4.4368,4.3932,4.3273,4.291,4.2882,4.2964,4.2982,4.2823,4.2843,4.2727,4.2658,4.257,4.257,4.257,4.248,4.2381,4.2279,4.2197,4.2184,4.2205,4.2218,4.2241,4.2371,4.2391,4.2422,4.2378,4.245,4.2352,4.2245,4.2078,4.2186,4.2266,4.197,4.1577,4.1317,4.0948,4.0355,3.986,3.9356,3.8969,3.8528,3.8294,3.807,3.7899,3.7908,3.7926,3.7978,3.7977,3.8003,3.802,3.8082,3.809,3.809,3.8082,3.8099,3.8288,3.8251,3.8359,3.8504,3.8794,3.8939,3.8856,3.8838,3.8567,3.8414,3.8534,3.8515,3.8268,3.8268,3.8406,3.8323,3.8167,3.8106,3.8029,5.7775,5.7452,5.728,5.6989,5.6748,5.7149,5.7301,5.7247,5.6988,5.6684,5.6277,5.5862,5.5323,5.4642,5.3934,5.3537,5.3336,5.333,5.333,5.3224,5.3024,5.2805,5.2533,5.2316,5.2135,5.2124,5.1432,5.1099,5.1247,5.1295,5.1127,5.0903,5.0271,4.9638,4.9086,4.8385,4.7521,4.6551,4.5592,4.465,4.4031,4.364,4.3227,4.2635,4.252,4.2482,4.2502,4.2512,4.2589,4.2696,4.2715,4.2736,4.2757,4.2767,4.2749,4.2757,4.271,4.2603,4.2482,4.2462,4.2482,4.2492,4.2512,4.254,4.2599,4.2609,4.2649,4.2697,4.2697,4.2727,4.2747,4.2776,4.2776,4.2604,4.2323,4.198,4.1673,4.1367,4.0853,4.0357,3.9869,3.9454,3.8995,3.8588,3.8426,3.8336,3.8272,3.8198,3.817,3.8115,3.814,3.8175,3.8175,3.8175,3.8167,3.8185,3.8683,3.8782,3.8981,3.9216,3.9723,3.9877,3.9713,3.9749,3.9723,3.9561,3.9344,3.9127,3.8972,3.8916,3.8889,3.8798,3.8671,3.8319,3.8241,5.7382,5.782,5.7273,5.7048,5.7042,5.6964,5.6885,5.6866,5.6472,5.6205,5.5866,5.5258,5.4629,5.4157,5.3602,5.3469,5.3579,5.3579,5.3579,5.3398,5.3169,5.2919,5.2815,5.2363,5.2187,5.1974,5.1556,5.1334,5.1294,5.1065,5.069,5.0221,4.9736,4.9145,4.8786,4.8292,4.7622,4.7005,4.5851,4.4954,4.4303,4.3744,4.3228,4.2842,4.2688,4.2688,4.267,4.267,4.2756,4.2794,4.2832,4.2842,4.2854,4.2881,4.2881,4.2881,4.2862,4.2815,4.2718,4.267,4.267,4.267,4.267,4.2689,4.2689,4.267,4.2689,4.2814,4.2814,4.2843,4.2891,4.2882,4.2881,4.2881,4.2809,4.2456,4.2148,4.194,4.1632,4.1107,4.0691,4.051,3.9995,3.9334,3.8998,3.8844,3.8671,3.8526,3.8508,3.85,3.8735,3.888,3.9025,3.9043,3.8989,3.8989,3.9269,3.9386,3.9604,3.9994,4.0573,4.06,4.0392,4.0501,4.0727,4.0619,4.0347,4.0003,3.9677,3.9677,3.9623,3.9387,3.9152,3.8816,3.8625,5.575,5.5926,5.6429,5.66,5.6563,5.5902,5.5661,5.5804,5.5647,5.5196,5.4618,5.3994,5.3811,5.363,5.3711,5.3708,5.3774,5.3784,5.3765,5.3756,5.3719,5.358,5.344,5.3375,5.3404,5.3302,5.241,5.2047,5.1977,5.1139,5.05,4.9808,4.9515,4.8867,4.8385,4.804,4.7842,4.7464,4.6851,4.6181,4.5448,4.4825,4.4264,4.3179,4.2918,4.2891,4.2891,4.2844,4.2835,4.2881,4.3026,4.3062,4.3118,4.3109,4.3109,4.3109,4.2946,4.2899,4.2843,4.2843,4.2872,4.2881,4.2944,4.2952,4.2834,4.288,4.2909,4.2918,4.2872,4.2881,4.291,4.291,4.291,4.291,4.291,4.2801,4.2592,4.2647,4.2311,4.1813,4.1542,4.1388,4.1243,4.0637,3.993,3.9731,3.9441,3.9297,3.9278,3.9333,3.9668,3.9903,4.0121,4.0193,4.0229,4.0247,4.0119,4.0264,4.049,4.0962,4.1515,4.1361,4.1298,4.1316,4.1542,4.1443,4.137,4.1125,4.0871,4.0564,4.0347,4.0219,4.0064,3.9863,3.9619,5.6215,5.5815,5.5647,5.5702,5.5888,5.5699,5.5614,5.5555,5.5278,5.47,5.4003,5.3778,5.3678,5.3698,5.3737,5.3851,5.3907,5.3832,5.3851,5.387,5.3851,5.3822,5.3813,5.3803,5.3775,5.3598,5.289,5.2396,5.217,5.1333,5.0648,5.0051,4.9616,4.8698,4.8141,4.7863,4.7783,4.7596,4.7265,4.654,4.6232,4.5454,4.4765,4.3797,4.3634,4.3344,4.3018,4.2928,4.291,4.3018,4.3326,4.3453,4.3471,4.3489,4.3489,4.3417,4.3145,4.2964,4.2964,4.2946,4.291,4.3046,4.329,4.3489,4.32,4.3344,4.3254,4.3127,4.3,4.3127,4.2946,4.2928,4.291,4.291,4.2982,4.3073,4.3091,4.3181,4.3,4.2511,4.242,4.2357,4.2212,4.2013,4.1279,4.0628,4.0338,4.0093,4.012,4.0165,4.0482,4.0736,4.0935,4.089,4.089,4.088,4.0853,4.1125,4.1397,4.1796,4.2259,4.2568,4.2486,4.2459,4.235,4.2332,4.2296,4.2268,4.1987,4.1488,4.1252,4.1116,4.0969,4.0831,4.0666,5.5852,5.5308,5.4839,5.4901,5.5296,5.5238,5.5169,5.5069,5.4791,5.4426,5.3879,5.3889,5.3898,5.3898,5.3889,5.3917,5.3972,5.3935,5.3917,5.3907,5.387,5.3803,5.3745,5.3678,5.3611,5.3434,5.2992,5.2503,5.2012,5.1383,5.0836,5.0371,4.9954,4.9266,4.8295,4.7815,4.7707,4.7526,4.7236,4.6667,4.6468,4.5979,4.5309,4.4522,4.4214,4.3833,4.3344,4.3127,4.291,4.3036,4.329,4.3607,4.3707,4.3743,4.3761,4.3562,4.3326,4.3018,4.32,4.3254,4.3381,4.3833,4.4141,4.4123,4.3942,4.4114,4.4178,4.3888,4.3707,4.358,4.3562,4.3815,4.3888,4.4033,4.4015,4.4033,4.3852,4.3815,4.3562,4.3244,4.3118,4.2875,4.2821,4.2622,4.214,4.1497,4.1152,4.0998,4.1033,4.1105,4.126,4.1496,4.1687,4.156,4.1415,4.1687,4.195,4.2086,4.2323,4.2504,4.2887,4.3169,4.3214,4.2932,4.2914,4.3142,4.3078,4.2841,4.2587,4.2278,4.2132,4.1995,4.1775,4.1635,4.1649,5.4196,5.4129,5.4093,5.4389,5.4816,5.4297,5.4046,5.41,5.4149,5.4148,5.4064,5.4064,5.4064,5.4064,5.4046,5.4046,5.4028,5.4028,5.3982,5.386,5.3784,5.3726,5.358,5.3452,5.3393,5.317,5.2913,5.248,5.1805,5.2091,5.1533,5.0896,5.0692,5.0279,4.8938,4.8123,4.7761,4.7707,4.7689,4.729,4.6776,4.6522,4.6051,4.5345,4.4812,4.4449,4.3815,4.358,4.3381,4.3236,4.3399,4.357,4.3516,4.3344,4.3272,4.3181,4.3109,4.3363,4.4033,4.4069,4.444,4.4856,4.5037,4.5073,4.5146,4.5236,4.5128,4.4739,4.4856,4.4973,4.51,4.5072,4.4935,4.4803,4.471,4.4618,4.4391,4.4255,4.3991,4.3852,4.3461,4.314,4.3168,4.3077,4.2786,4.2368,4.1996,4.1896,4.194,4.1986,4.2095,4.2186,4.235,4.2377,4.2332,4.2759,4.3032,4.3142,4.3132,4.3131,4.315,4.325,4.3269,4.3242,4.3277,4.3322,4.3331,4.3286,4.3085,4.2921,4.2986,4.2876,4.2627,4.2466,4.2505,5.4549,5.41,5.4082,5.4177,5.4336,5.4149,5.4046,5.4009,5.4073,5.41,5.41,5.41,5.41,5.41,5.41,5.411,5.4119,5.3804,5.3728,5.3793,5.36,5.3373,5.325,5.3219,5.3159,5.3075,5.295,5.2784,5.2452,5.261,5.2407,5.1869,5.1337,5.0698,4.9938,4.9322,4.913,4.8612,4.8431,4.8141,4.7399,4.7236,4.6892,4.6124,4.5761,4.5146,4.4359,4.4222,4.4105,4.3833,4.3987,4.4304,4.4214,4.4061,4.3716,4.3716,4.3743,4.4367,4.5254,4.5671,4.549,4.5645,4.5816,4.5852,4.5454,4.587,4.5761,4.547,4.5385,4.5317,4.5037,4.4996,4.4872,4.4724,4.4635,4.4663,4.4545,4.4492,4.4374,4.4363,4.4127,4.4019,4.3998,4.3868,4.3572,4.3387,4.308,4.2886,4.2878,4.2823,4.2859,4.2877,4.2969,4.3087,4.326,4.3679,4.3779,4.3724,4.3558,4.3373,4.3401,4.3539,4.3429,4.3456,4.3454,4.3452,4.3497,4.3542,4.3601,4.3592,4.3497,4.3437,4.3187,4.3204,4.3426,5.4667,5.4217,5.4181,5.419,5.4208,5.4181,5.4181,5.4208,5.4181,5.4163,5.4189,5.4217,5.4136,5.4073,5.4027,5.3907,5.3926,5.3699,5.3465,5.3552,5.3351,5.3146,5.3051,5.2987,5.294,5.2897,5.2758,5.2581,5.2151,5.2415,5.2435,5.2307,5.2039,5.146,5.0711,5.0032,4.913,4.854,4.8214,4.8123,4.7725,4.758,4.7435,4.6975,4.6522,4.5997,4.5309,4.5083,4.5101,4.4866,4.4975,4.5357,4.5167,4.4951,4.459,4.4609,4.5046,4.5573,4.6263,4.6898,4.6682,4.6501,4.6736,4.6631,4.6256,4.6592,4.647,4.6179,4.5725,4.543,4.5222,4.5172,4.499,4.4835,4.4859,4.4888,4.4685,4.4642,4.4685,4.4688,4.4717,4.4721,4.4775,4.4657,4.4442,4.4322,4.4189,4.4052,4.3906,4.3862,4.3844,4.3871,4.4017,4.4263,4.4418,4.4591,4.4581,4.4361,4.4249,4.4154,4.406,4.4262,4.3968,4.3674,4.3672,4.3698,4.3711,4.3753,4.3878,4.3868,4.3734,4.3684,4.3659,4.3751,4.3889,5.4304,5.4335,5.4287,5.4277,5.4366,5.4272,5.4261,5.4327,5.4297,5.4269,5.4291,5.422,5.409,5.3907,5.3879,5.3709,5.3434,5.3395,5.3283,5.318,5.3122,5.2973,5.2861,5.2794,5.275,5.2611,5.2524,5.2409,5.1613,5.2227,5.2599,5.2638,5.2578,5.2018,5.1166,5.0126,4.9049,4.8516,4.8249,4.8114,4.7863,4.7731,4.7669,4.7407,4.7047,4.6638,4.6166,4.5967,4.5667,4.5467,4.5439,4.5507,4.552,4.5513,4.5563,4.5802,4.6303,4.6557,4.6896,4.745,4.7562,4.7262,4.7443,4.7595,4.7452,4.7133,4.6917,4.6708,4.6359,4.5988,4.5699,4.5481,4.528,4.5261,4.5274,4.5125,4.4858,4.4793,4.486,4.4896,4.4954,4.5033,4.5228,4.5197,4.5301,4.5416,4.5373,4.5459,4.5307,4.5057,4.5039,4.5095,4.5279,4.5581,4.5644,4.5451,4.5404,4.5192,4.5437,4.5406,4.5237,4.4868,4.4475,4.418,4.3991,4.4003,4.4262,4.4267,4.4201,4.4191,4.4445,4.4196,4.4274,4.3915,4.3937,5.3528,5.3535,5.3528,5.3771,5.4144,5.4,5.3792,5.3616,5.3864,5.3775,5.3205,5.3544,5.3682,5.3564,5.3536,5.3475,5.3334,5.3198,5.3101,5.3013,5.2893,5.2712,5.2645,5.2649,5.2597,5.2638,5.2602,5.2544,5.2439,5.2712,5.2712,5.2761,5.2806,5.2324,5.1518,5.0525,4.963,4.8925,4.8683,4.8346,4.8065,4.7954,4.7938,4.7751,4.7634,4.7252,4.6805,4.7034,4.6789,4.6425,4.6399,4.641,4.6392,4.5956,4.5712,4.6414,4.6722,4.6918,4.7259,4.7505,4.7589,4.7428,4.7272,4.7392,4.7363,4.7276,4.7075,4.6869,4.6558,4.6082,4.5682,4.5453,4.511,4.4875,4.5035,4.5222,4.5033,4.5217,4.5294,4.5596,4.5648,4.5698,4.5864,4.5978,4.6103,4.636,4.6496,4.6532,4.6535,4.6215,4.6107,4.6155,4.6175,4.6378,4.6204,4.601,4.6054,4.6097,4.6398,4.6451,4.6026,4.5601,4.505,4.4833,4.4813,4.4883,4.501,4.5008,4.5008,4.5395,4.5604,4.5191,4.4819,4.4618,4.4525,5.3077,5.3031,5.2653,5.2708,5.3021,5.3228,5.3022,5.268,5.3432,5.3554,5.3209,5.3466,5.3485,5.3375,5.3383,5.3302,5.3136,5.3005,5.2915,5.2861,5.2719,5.2697,5.2656,5.2649,5.2676,5.2728,5.275,5.2736,5.2817,5.2879,5.289,5.2901,5.2923,5.2462,5.1833,5.1248,5.0663,4.9924,4.937,4.8927,4.8633,4.8405,4.8308,4.8065,4.8048,4.7674,4.74,4.7874,4.7655,4.7445,4.7453,4.7793,4.7805,4.7434,4.6871,4.7408,4.7237,4.7265,4.7381,4.7374,4.7316,4.7149,4.6991,4.7037,4.7041,4.6973,4.687,4.673,4.6353,4.5988,4.5646,4.527,4.4729,4.4235,4.4728,4.5221,4.5451,4.567,4.6006,4.6377,4.6525,4.6548,4.6637,4.6719,4.676,4.6783,4.6825,4.6878,4.6978,4.7003,4.6946,4.7009,4.6968,4.7,4.681,4.6801,4.7011,4.7248,4.7565,4.748,4.6926,4.6542,4.6213,4.5974,4.5797,4.5868,4.5949,4.5965,4.6018,4.6415,4.6655,4.6372,4.6049,4.5854,4.5806,5.2877,5.2803,5.187,5.163,5.1584,5.2215,5.2011,5.1491,5.2901,5.3607,5.3541,5.3661,5.3481,5.3227,5.3206,5.3088,5.297,5.285,5.2828,5.2806,5.2772,5.2757,5.2768,5.2787,5.2817,5.2817,5.2857,5.2912,5.2901,5.2955,5.3009,5.302,5.3103,5.2823,5.2281,5.1907,5.1474,5.1187,5.0344,4.9705,4.9429,4.919,4.8895,4.8316,4.8125,4.7969,4.7987,4.8032,4.804,4.8277,4.8525,4.894,4.9058,4.8946,4.8472,4.8093,4.7726,4.7476,4.7374,4.7352,4.7309,4.7176,4.6996,4.6945,4.6911,4.6714,4.659,4.6543,4.6224,4.5876,4.5523,4.545,4.5094,4.4793,4.4991,4.5302,4.5474,4.5836,4.6375,4.6695,4.6795,4.6853,4.695,4.6996,4.7064,4.7111,4.7156,4.7212,4.7284,4.7464,4.7495,4.7573,4.7547,4.7508,4.7725,4.7766,4.8136,4.8421,4.8519,4.8421,4.7793,4.757,4.7476,4.697,4.6464,4.6766,4.6895,4.691,4.7027,4.7364,4.7533,4.7479,4.7299,4.7134,4.6961,5.2661,5.2642,5.2241,5.2081,5.1997,5.1472,5.1174,5.1007,5.1974,5.2532,5.2577,5.2881,5.3037,5.3016,5.3002,5.2904,5.2872,5.285,5.2806,5.2828,5.2828,5.2868,5.2828,5.2904,5.2926,5.2988,5.3039,5.3071,5.3071,5.3114,5.3153,5.3153,5.3196,5.2994,5.2792,5.2435,5.2123,5.2205,5.1639,5.0892,5.0525,4.9789,4.922,4.8969,4.8833,4.8466,4.8393,4.8311,4.8265,4.832,4.8394,4.8696,4.9029,4.8847,4.8576,4.8247,4.7839,4.7504,4.7291,4.7243,4.7265,4.7149,4.6991,4.6968,4.683,4.65,4.6326,4.6292,4.6164,4.5823,4.5617,4.5624,4.5622,4.5477,4.5389,4.55,4.5594,4.6154,4.6739,4.69,4.6996,4.7104,4.7216,4.7294,4.7359,4.7425,4.7518,4.7561,4.7529,4.7619,4.7559,4.762,4.7812,4.7904,4.8169,4.8275,4.8372,4.8495,4.8513,4.851,4.8532,4.8338,4.8045,4.7473,4.7104,4.754,4.7848,4.7852,4.8014,4.8292,4.8322,4.8212,4.8531,4.8504,4.823,5.1612,5.188,5.1733,5.1626,5.1606,5.1403,5.1346,5.146,5.1846,5.2312,5.2694,5.2897,5.2988,5.3002,5.298,5.298,5.2991,5.2988,5.3042,5.3023,5.297,5.3006,5.3028,5.3031,5.3071,5.3132,5.3153,5.3185,5.3196,5.3185,5.3185,5.3196,5.3196,5.3167,5.3112,5.2774,5.2711,5.3104,5.2664,5.2242,5.1673,5.1026,5.0328,5.0086,4.9719,4.9361,4.926,4.915,4.8893,4.8788,4.8791,4.8618,4.8768,4.8608,4.818,4.7772,4.7436,4.7276,4.7109,4.7098,4.7216,4.7093,4.7002,4.6991,4.6998,4.6714,4.6708,4.669,4.6684,4.6393,4.6415,4.642,4.6507,4.6437,4.6568,4.6708,4.6773,4.6996,4.7291,4.7327,4.7399,4.7421,4.7497,4.7508,4.7561,4.7572,4.7668,4.7678,4.7689,4.7689,4.7646,4.7646,4.7816,4.7941,4.8052,4.8121,4.818,4.8316,4.8467,4.8586,4.8645,4.8719,4.8567,4.8211,4.8144,4.852,4.8746,4.863,4.8788,4.9013,4.8994,4.8911,4.9283,4.9509,4.9095,5.0721,5.1191,5.0987,5.0934,5.1044,5.1569,5.185,5.192,5.2086,5.257,5.3157,5.3203,5.3256,5.3246,5.3243,5.3274,5.3274,5.3222,5.3264,5.3287,5.3243,5.3241,5.3209,5.3206,5.3185,5.3175,5.3185,5.3196,5.3196,5.3196,5.3196,5.3196,5.3196,5.3196,5.3196,5.3177,5.3196,5.3196,5.3049,5.3122,5.281,5.2435,5.1591,5.1114,5.0857,5.082,5.0545,5.0243,4.9784,4.9442,4.9187,4.8919,4.8585,4.8391,4.7789,4.7369,4.7117,4.6952,4.6859,4.6996,4.7093,4.7093,4.707,4.707,4.7082,4.71,4.7077,4.7077,4.707,4.7048,4.7069,4.7115,4.7197,4.7291,4.7496,4.7657,4.7675,4.7675,4.7675,4.7711,4.7693,4.7693,4.7686,4.7696,4.7707,4.7689,4.7689,4.7689,4.7689,4.7689,4.7668,4.7657,4.7741,4.7858,4.7931,4.7972,4.802,4.8092,4.8238,4.8523,4.8757,4.8847,4.9014,4.9271,4.9305,4.9249,4.9287,4.9219,4.9434,4.9509,4.9396,4.9227,4.9321,4.9509,4.9509,5.1939,5.2032,5.1355,5.141,5.1889,5.154,5.1282,5.1421,5.2021,5.2421,5.2803,5.3261,5.34,5.33,5.3279,5.3318,5.3378,5.3388,5.3462,5.3514,5.3439,5.3447,5.3427,5.3345,5.3227,5.3238,5.3269,5.3217,5.3303,5.3269,5.3206,5.3238,5.3227,5.3217,5.3217,5.3227,5.3269,5.328,5.3269,5.3261,5.3046,5.2595,5.2079,5.1573,5.1151,5.0949,5.0729,5.0655,5.0383,5.0002,4.9424,4.9048,4.8651,4.817,4.754,4.7394,4.7104,4.6917,4.6939,4.712,4.7272,4.7454,4.7454,4.7475,4.7486,4.7486,4.7464,4.7443,4.7421,4.7336,4.7363,4.7457,4.7547,4.7637,4.7794,4.7895,4.795,4.7877,4.7823,4.7805,4.7751,4.7732,4.7689,4.7707,4.7707,4.7689,4.7689,4.7689,4.7689,4.7689,4.7699,4.7699,4.7699,4.7699,4.7762,4.7785,4.7827,4.7909,4.8062,4.8392,4.8695,4.895,4.9162,4.9427,4.9509,4.9426,4.949,4.9509,4.9509,4.9509,4.9509,4.9452,4.9509,4.9509,4.9509]}]]